[[{"header":{"parameterUnit":"m.s-1","parameterCategory":1,"la1":31.0,"la2":29.5877,"lo1":-88.7671,"lo2":-86.6584,"dy":0.0162,"dx":0.0185,"nx":115,"ny":88,"refTime":"2024-07-01T18:00:00:Z","depth":0,"parameterNumber":2,"parameterNumberName":"U-component_of_WINDS"},"data":[0.0,0.0,0.0,0.0,0.0,0.0,0.0,0.0,0.0,0.0,0.0,0.0,0.0,0.0,0.0,0.0,0.0,0.0,0.0,0.0,0.0,0.0,0.0,0.0,0.0,0.0,0.0,0.0,0.0,0.0,0.0,0.0,0.0,0.0,0.0,0.0,0.0,0.0,0.0,0.0,0.0,0.0,0.0,0.0,0.0,0.0,0.0,0.0,0.0,0.0,0.0,0.0,0.0,0.0,0.0,0.0,0.0,0.0,0.0,0.0,0.0,0.0,0.0,0.0,0.0,0.0,0.0,0.0,0.0,0.0,0.0,0.0,0.0,0.0,0.0,0.0,0.0,0.0,0.0,0.0,0.0,0.0,0.0,0.0,0.0,0.0,0.0,0.0,0.0,0.0,0.0,0.0,0.0,0.0,0.0,0.0,0.0,0.0,0.0,0.0,0.0,0.0,0.0,0.0,0.0,0.0,0.0,0.0,0.0,0.0,0.0,0.0,0.0,0.0,0.0,0.0,0.0,0.0,0.0,0.0,0.0,0.0,0.0,0.0,0.0,0.0,0.0,0.0,0.0,0.0,0.0,0.0,0.0,0.0,0.0,0.0,0.0,0.0,0.0,0.0,0.0,0.0,0.0,0.0,0.0,0.0,0.0,0.0,0.0,0.0,0.0,0.0,0.0,0.0,0.0,0.0,0.0,0.0,0.0,0.0,0.0,0.0,0.0,0.0,0.0,0.0,0.0,0.0,0.0,0.0,0.0,0.0,0.0,0.0,0.0,0.0,0.0,0.0,0.0,0.0,0.0,0.0,0.0,0.0,0.0,0.0,0.0,0.0,0.0,0.0,0.0,0.0,0.0,0.0,0.0,0.0,0.0,0.0,0.0,0.0,0.0,0.0,0.0,0.0,0.0,0.0,0.0,0.0,0.0,0.0,0.0,0.0,0.0,0.0,0.0,0.0,0.0,0.0,0.0,0.0,0.0,0.0,0.0,0.0,0.0,0.0,0.0,0.0,0.0,0.0,0.0,0.0,0.0,0.0,0.0,0.0,0.0,0.0,0.0,0.0,0.0,0.0,0.0,0.0,0.0,0.0,0.0,0.0,0.0,0.0,0.0,0.0,0.0,0.0,0.0,0.0,0.0,0.0,0.0,0.0,0.0,0.0,0.0,0.0,0.0,0.0,0.0,0.0,0.0,0.0,0.0,0.0,0.0,0.0,0.0,0.0,0.0,0.0,0.0,0.0,0.0,0.0,0.0,0.0,0.0,0.0,0.0,0.0,0.0,0.0,0.0,0.0,0.0,0.0,0.0,0.0,0.0,0.0,0.0,0.0,0.0,0.0,0.0,0.0,0.0,0.0,0.0,0.0,0.0,0.0,0.0,0.0,0.0,0.0,0.0,0.0,0.0,0.0,0.0,0.0,0.0,0.0,0.0,0.0,0.0,0.0,0.0,0.0,0.0,0.0,0.0,0.0,0.0,0.0,0.0,0.0,0.0,0.0,0.0,0.0,0.0,0.0,0.0,0.0,0.0,0.0,0.0,0.0,0.0,0.0,0.0,0.0,0.0,0.0,0.0,0.0,0.0,0.0,0.0,0.0,0.0,0.0,0.0,0.0,0.0,0.0,0.0,0.0,0.0,0.0,0.0,0.0,0.0,0.0,0.0,0.0,0.0,0.0,0.0,0.0,0.0,0.0,0.0,0.0,0.0,0.0,0.0,0.0,0.0,0.0,0.0,0.0,0.0,0.0,0.0,0.0,0.0,0.0,0.0,0.0,0.0,0.0,0.0,0.0,0.0,0.0,0.0,0.0,0.0,0.0,0.0,0.0,0.0,0.0,0.0,0.0,0.0,0.0,0.0,0.0,0.0,0.0,0.0,0.0,0.0,0.0,0.0,0.0,0.0,0.0,0.0,0.0,0.0,0.0,0.0,0.0,0.0,0.0,0.0,0.0,0.0,0.0,0.0,0.0,0.0,0.0,0.0,0.0,0.0,0.0,0.0,0.0,0.0,0.0,0.0,0.0,0.0,0.0,0.0,0.0,0.0,0.0,0.0,0.0,0.0,0.0,0.0,0.0,0.0,0.0,0.0,0.0,0.0,0.0,0.0,0.0,0.0,0.0,0.0,0.0,0.0,0.0,0.0,0.0,0.0,0.0,0.0,0.0,0.0,0.0,0.0,0.0,0.0,0.0,0.0,0.0,0.0,0.0,0.0,0.0,0.0,0.0,0.0,0.0,0.0,0.0,0.0,0.0,0.0,0.0,0.0,0.0,0.0,0.0,0.0,0.0,0.0,0.0,0.0,0.0,0.0,0.0,0.0,0.0,0.0,0.0,0.0,0.0,0.0,0.0,0.0,0.0,0.0,0.0,0.0,0.0,0.0,0.0,0.0,0.0,0.0,0.0,0.0,0.0,0.0,0.0,0.0,0.0,0.0,0.0,0.0,0.0,0.0,0.0,0.0,0.0,0.0,0.0,0.0,0.0,0.0,0.0,0.0,0.0,0.0,0.0,0.0,0.0,0.0,0.0,0.0,0.0,0.0,0.0,0.0,0.0,0.0,0.0,0.0,0.0,0.0,0.0,0.0,0.0,0.0,0.0,0.0,0.0,0.0,0.0,0.0,0.0,0.0,0.0,0.0,0.0,0.0,0.0,0.0,0.0,0.0,0.0,0.0,0.0,0.0,0.0,0.0,0.0,0.0,0.0,0.0,0.0,0.0,0.0,0.0,0.0,0.0,0.0,0.0,0.0,0.0,0.0,0.0,0.0,0.0,0.0,0.0,0.0,0.0,0.0,0.0,0.0,0.0,0.0,0.0,0.0,0.0,0.0,0.0,0.0,0.0,0.0,0.0,0.0,0.0,0.0,0.0,0.0,0.0,0.0,0.0,0.0,0.0,0.0,0.0,0.0,0.0,0.0,0.0,0.0,0.0,0.0,0.0,0.0,0.0,0.0,0.0,0.0,0.0,0.0,0.0,0.0,0.0,0.0,0.0,0.0,0.0,0.0,0.0,0.0,0.0,0.0,0.0,0.0,0.0,0.0,0.0,0.0,0.0,0.0,0.0,0.0,0.0,0.0,0.0,0.0,0.0,0.0,0.0,0.0,0.0,0.0,0.0,0.0,0.0,0.0,0.0,0.0,0.0,0.0,0.0,0.0,0.0,0.0,0.0,0.0,0.0,0.0,0.0,0.0,0.0,0.0,0.0,0.0,0.0,0.0,0.0,0.0,0.0,0.0,0.0,0.0,0.0,0.0,0.0,0.0,0.0,0.0,0.0,0.0,0.0,0.0,0.0,0.0,0.0,0.0,0.0,0.0,0.0,0.0,0.0,0.0,0.0,0.0,0.0,0.0,0.0,0.0,0.0,0.0,0.0,0.0,0.0,0.0,0.0,0.0,0.0,0.0,0.0,0.0,0.0,0.0,0.0,0.0,0.0,0.0,0.0,0.0,0.0,0.0,0.0,0.0,0.0,0.0,0.0,0.0,0.0,0.0,0.0,0.0,0.0,0.0,0.0,0.0,0.0,0.0,0.0,0.0,0.0,0.0,0.0,0.0,0.0,0.0,0.0,0.0,0.0,0.0,0.0,0.0,0.0,0.0,0.0,0.0,0.0,0.0,0.0,0.0,0.0,0.0,0.0,0.0,0.0,0.0,0.0,0.0,0.0,0.0,0.0,0.0,0.0,0.0,0.0,0.0,0.0,0.0,0.0,0.0,0.0,0.0,0.0,0.0,0.0,0.0,0.0,0.0,0.0,0.0,0.0,0.0,0.0,0.0,0.0,0.0,0.0,0.0,0.0,0.0,0.0,0.0,0.0,0.0,0.0,0.0,0.0,0.0,0.0,0.0,0.0,0.0,0.0,0.0,0.0,0.0,0.0,0.0,0.0,0.0,0.0,0.0,0.0,0.0,0.0,0.0,0.0,0.0,0.0,0.0,0.0,0.0,0.0,0.0,0.0,0.0,0.0,0.0,0.0,0.0,0.0,0.0,0.0,0.0,0.0,0.0,0.0,0.0,0.0,0.0,0.0,0.0,0.0,0.0,0.0,0.0,0.0,0.0,0.0,0.0,0.0,0.0,0.0,0.0,0.0,0.0,0.0,0.0,0.0,0.0,0.0,0.0,0.0,0.0,0.0,0.0,0.0,0.0,0.0,0.0,0.0,0.0,0.0,0.0,0.0,0.0,0.0,0.0,0.0,0.0,0.0,0.0,0.0,0.0,0.0,0.0,0.0,0.0,0.0,0.0,0.0,0.0,0.0,0.0,0.0,0.0,0.0,0.0,-0.4515,0.0,0.0,0.0,0.0,0.0,0.0,0.0,0.0,0.0,0.0,0.0,0.0,0.0,0.0,0.0,0.0,0.0,0.0,0.0,0.0,0.0,0.0,0.0,0.0,0.0,0.0,0.0,0.0,0.0,0.0,0.0,0.0,0.0,0.0,0.0,0.0,0.0,0.0,0.0,0.0,0.0,0.0,0.0,0.0,0.0,0.0,0.0,0.0,0.0,0.0,0.0,0.0,0.0,0.0,0.0,0.0,0.0,0.0,0.0,0.0,0.0,0.0,0.0,0.0,0.0,0.0,0.0,0.0,0.0,0.0,0.0,0.0,0.0,0.0,0.0,0.0,0.0,0.0,0.0,0.0,0.0,0.0,0.0,0.0,0.0,0.0,0.0,0.0,0.0,0.0,0.0,0.0,0.0,0.0,0.0,0.0,0.0,0.0,0.0,0.0,0.0,0.0,0.0,0.0,0.0,0.0,0.0,0.0,0.0,0.0,-0.4463,-0.4463,-0.4463,-0.4463,-0.4519,0.0,0.0,0.0,0.0,0.0,0.0,0.0,0.0,0.0,0.0,0.0,0.0,0.0,0.0,0.0,0.0,0.0,0.0,0.0,0.0,0.0,0.0,0.0,0.0,0.0,0.0,0.0,0.0,0.0,0.0,0.0,0.0,0.0,0.0,0.0,0.0,0.0,0.0,0.0,0.0,0.0,0.0,0.0,0.0,0.0,0.0,0.0,0.0,0.0,0.0,0.0,0.0,0.0,0.0,0.0,0.0,0.0,0.0,0.0,0.0,0.0,0.0,0.0,0.0,0.0,0.0,0.0,0.0,0.0,0.0,0.0,0.0,0.0,0.0,0.0,0.0,0.0,0.0,0.0,0.0,0.0,0.0,0.0,0.0,0.0,0.0,0.0,0.0,0.0,0.0,0.0,0.0,0.0,0.0,0.0,0.0,0.0,0.0,0.0,0.0,0.0,0.0,0.0,0.0,0.0,0.0,0.0,0.0,0.0,0.0,0.0,0.0,-0.4514,-0.4622,-0.479,0.0,0.0,0.0,0.0,0.0,0.0,0.0,0.0,0.0,0.0,0.0,0.0,0.0,0.0,0.0,0.0,0.0,0.0,0.0,0.0,0.0,0.0,0.0,0.0,0.0,0.0,0.0,0.0,0.0,0.0,0.0,0.0,0.0,0.0,0.0,0.0,0.0,0.0,0.0,0.0,0.0,0.0,0.0,0.0,0.0,0.0,0.0,0.0,0.0,0.0,0.0,0.0,0.0,0.0,0.0,0.0,0.0,0.0,0.0,0.0,0.0,0.0,0.0,0.0,0.0,0.0,0.0,0.0,0.0,0.0,0.0,0.0,0.0,0.0,0.0,0.0,0.0,0.0,0.0,0.0,0.0,0.0,0.0,0.0,0.0,0.0,0.0,0.0,0.0,0.0,0.0,0.0,0.0,0.0,0.0,0.0,0.0,0.0,0.0,0.0,0.0,0.0,0.0,0.0,0.0,0.0,0.0,0.0,0.0,0.0,-0.4587,-0.4667,-0.4667,0.0,-0.5567,0.0,0.0,0.0,0.0,0.0,0.0,0.0,0.0,0.0,0.0,0.0,0.0,0.0,0.0,0.0,0.0,0.0,0.0,0.0,0.0,0.0,0.0,0.0,0.0,0.0,0.0,0.0,0.0,0.0,0.0,0.0,0.0,0.0,0.0,0.0,0.0,0.0,0.0,0.0,0.0,0.0,0.0,0.0,0.0,0.0,0.0,0.0,0.0,0.0,0.0,0.0,0.0,0.0,0.0,0.0,0.0,0.0,0.0,0.0,0.0,0.0,0.0,0.0,0.0,0.0,0.0,0.0,0.0,0.0,0.0,0.0,0.0,0.0,0.0,0.0,0.0,0.0,0.0,0.0,0.0,0.0,0.0,0.0,0.0,0.0,0.0,0.0,0.0,0.0,0.0,0.0,0.0,0.0,0.0,0.0,0.0,0.0,0.0,0.0,0.0,0.0,0.0,0.0,0.0,0.0,0.0,0.0,0.0,0.0,0.0,-0.4585,-0.4611,-0.4611,-0.472,0.0,0.0,0.0,0.0,0.0,0.0,0.0,0.0,0.0,0.0,0.0,0.0,0.0,0.0,0.0,0.0,0.0,0.0,0.0,0.0,0.0,0.0,0.0,0.0,0.0,0.0,0.0,0.0,0.0,0.0,0.0,0.0,0.0,0.0,0.0,0.0,0.0,0.0,0.0,0.0,0.0,0.0,0.0,0.0,0.0,0.0,0.0,0.0,0.0,0.0,0.0,0.0,0.0,0.0,0.0,0.0,0.0,0.0,0.0,0.0,0.0,0.0,0.0,0.0,0.0,0.0,0.0,0.0,0.0,0.0,0.0,0.0,0.0,0.0,0.0,0.0,0.0,0.0,0.0,0.0,0.0,0.0,0.0,0.0,0.0,0.0,0.0,0.0,0.0,0.0,0.0,0.0,0.0,0.0,0.0,0.0,0.0,0.0,0.0,0.0,0.0,0.0,0.0,0.0,0.0,0.0,0.0,0.0,0.0,0.0,-0.4616,-0.4596,-0.4528,-0.4539,-0.4463,-0.4463,0.0,0.0,0.0,0.0,0.0,0.0,0.0,0.0,0.0,0.0,0.0,0.0,0.0,0.0,0.0,0.0,0.0,0.0,0.0,0.0,0.0,0.0,0.0,0.0,0.0,0.0,0.0,0.0,0.0,0.0,0.0,0.0,0.0,0.0,0.0,0.0,0.0,0.0,0.0,0.0,0.0,0.0,0.0,0.0,0.0,0.0,0.0,0.0,0.0,0.0,0.0,0.0,0.0,0.0,0.0,0.0,0.0,0.0,0.0,0.0,0.0,0.0,0.0,0.0,0.0,0.0,0.0,0.0,0.0,0.0,0.0,0.0,0.0,0.0,0.0,0.0,0.0,0.0,0.0,0.0,0.0,0.0,0.0,0.0,0.0,0.0,0.0,0.0,0.0,0.0,0.0,0.0,0.0,0.0,0.0,0.0,0.0,0.0,0.0,0.0,0.0,0.0,0.0,0.0,0.0,0.0,0.0,0.0,-0.4867,-0.4619,-0.4597,-0.467,-0.4597,-0.4463,0.0,0.0,0.0,0.0,0.0,0.0,0.0,0.0,0.0,0.0,0.0,0.0,0.0,0.0,0.0,0.0,0.0,0.0,0.0,0.0,0.0,0.0,0.0,0.0,0.0,0.0,0.0,0.0,0.0,0.0,0.0,0.0,0.0,0.0,0.0,0.0,0.0,0.0,0.0,0.0,0.0,0.0,0.0,0.0,0.0,0.0,0.0,0.0,0.0,0.0,0.0,0.0,0.0,0.0,0.0,0.0,0.0,0.0,0.0,0.0,0.0,0.0,0.0,0.0,0.0,0.0,0.0,0.0,0.0,0.0,0.0,0.0,0.0,0.0,0.0,0.0,0.0,0.0,0.0,0.0,0.0,0.0,0.0,0.0,0.0,0.0,0.0,0.0,0.0,0.0,0.0,0.0,0.0,0.0,0.0,0.0,0.0,0.0,0.0,0.0,0.0,0.0,0.0,0.0,0.0,0.0,0.0,0.0,0.0,-0.4613,-0.4577,-0.4594,-0.4677,-0.4541,-0.4419,0.0,0.0,0.0,0.0,0.0,0.0,0.0,0.0,0.0,0.0,0.0,0.0,0.0,0.0,0.0,0.0,0.0,0.0,0.0,0.0,0.0,0.0,0.0,0.0,0.0,0.0,0.0,0.0,0.0,0.0,0.0,0.0,0.0,0.0,0.0,0.0,0.0,0.0,0.0,0.0,0.0,0.0,0.0,0.0,0.0,0.0,0.0,0.0,0.0,0.0,0.0,0.0,0.0,0.0,0.0,0.0,0.0,0.0,0.0,0.0,0.0,0.0,0.0,0.0,0.0,0.0,0.0,0.0,0.0,0.0,0.0,0.0,0.0,0.0,0.0,0.0,0.0,0.0,0.0,0.0,0.0,0.0,0.0,0.0,0.0,0.0,0.0,0.0,0.0,0.0,0.0,0.0,0.0,0.0,0.0,0.0,0.0,0.0,0.0,0.0,0.0,0.0,0.0,0.0,0.0,0.0,0.0,0.0,0.0,-0.4463,0.0,-0.4565,-0.4609,-0.4573,-0.4395,0.0,0.0,0.0,0.0,0.0,0.0,0.0,0.0,0.0,0.0,0.0,0.0,0.0,0.0,0.0,0.0,0.0,0.0,0.0,0.0,0.0,0.0,0.0,0.0,0.0,0.0,0.0,0.0,0.0,0.0,0.0,0.0,0.0,0.0,0.0,0.0,0.0,0.0,0.0,0.0,0.0,0.0,0.0,0.0,0.0,0.0,0.0,0.0,0.0,0.0,0.0,0.0,0.0,0.0,0.0,0.0,0.0,0.0,0.0,0.0,0.0,0.0,0.0,0.0,0.0,0.0,0.0,0.0,0.0,0.0,0.0,0.0,0.0,0.0,0.0,0.0,0.0,0.0,0.0,0.0,0.0,0.0,0.0,0.0,0.0,0.0,0.0,0.0,0.0,0.0,0.0,0.0,0.0,0.0,0.0,0.0,0.0,0.0,0.0,0.0,0.0,0.0,0.0,0.0,0.0,0.0,0.0,0.0,-0.4519,-0.4522,-0.4659,-0.4666,-0.4525,-0.4577,-0.4453,0.0,0.0,0.0,0.0,0.0,0.0,0.0,0.0,0.0,0.0,0.0,0.0,0.0,0.0,0.0,0.0,0.0,0.0,0.0,0.0,0.0,0.0,0.0,0.0,0.0,0.0,0.0,0.0,0.0,0.0,0.0,0.0,0.0,0.0,0.0,0.0,0.0,0.0,0.0,0.0,0.0,0.0,0.0,0.0,0.0,0.0,0.0,0.0,0.0,0.0,0.0,0.0,0.0,0.0,0.0,0.0,0.0,0.0,0.0,0.0,0.0,0.0,0.0,0.0,0.0,0.0,0.0,0.0,0.0,0.0,0.0,0.0,0.0,0.0,0.0,0.0,0.0,0.0,0.0,0.0,0.0,0.0,0.0,0.0,0.0,0.0,0.0,0.0,0.0,0.0,0.0,0.0,0.0,0.0,0.0,0.0,0.0,0.0,0.0,0.0,0.0,0.0,0.0,0.0,0.0,0.0,0.0,0.0,0.0,-0.5164,-0.5215,-0.5334,-0.5397,-0.5282,-0.4922,0.0,0.0,0.0,0.0,0.0,0.0,0.0,0.0,0.0,0.0,0.0,0.0,0.0,0.0,0.0,0.0,0.0,0.0,0.0,0.0,0.0,0.0,0.0,0.0,0.0,0.0,0.0,0.0,0.0,0.0,0.0,0.0,0.0,0.0,0.0,0.0,0.0,0.0,0.0,0.0,0.0,0.0,0.0,0.0,0.0,0.0,0.0,0.0,0.0,0.0,0.0,0.0,0.0,0.0,0.0,0.0,0.0,0.0,0.0,0.0,0.0,0.0,0.0,0.0,0.0,0.0,0.0,0.0,0.0,0.0,0.0,0.0,0.0,0.0,0.0,0.0,0.0,0.0,0.0,0.0,0.0,0.0,0.0,0.0,0.0,0.0,0.0,0.0,0.0,0.0,0.0,0.0,0.0,0.0,0.0,0.0,0.0,0.0,0.0,0.0,0.0,0.0,0.0,0.0,0.0,0.0,0.0,0.0,0.0,-0.5592,-0.5648,-0.5871,-0.6283,-0.5875,-0.5448,-0.4893,0.0,0.0,0.0,0.0,0.0,0.0,0.0,0.0,0.0,0.0,0.0,0.0,0.0,0.0,0.0,0.0,0.0,0.0,0.0,0.0,0.0,0.0,0.0,0.0,0.0,0.0,0.0,0.0,0.0,0.0,0.0,0.0,0.0,0.0,0.0,0.0,0.0,0.0,0.0,0.0,0.0,0.0,0.0,0.0,0.0,0.0,0.0,0.0,0.0,0.0,0.0,0.0,0.0,0.0,0.0,0.0,0.0,0.0,0.0,0.0,0.0,0.0,0.0,0.0,0.0,0.0,0.0,0.0,0.0,0.0,0.0,0.0,0.0,0.0,0.0,0.0,0.0,0.0,0.0,0.0,0.0,0.0,0.0,0.0,0.0,0.0,0.0,0.0,0.0,0.0,0.0,0.0,0.0,0.0,0.0,0.0,0.0,0.0,0.0,0.0,0.0,0.0,0.0,0.0,0.0,0.0,0.0,0.0,-0.5789,-0.5961,-0.6372,-0.7079,-0.6459,-0.5966,0.0,0.0,0.0,0.0,0.0,0.0,0.0,0.0,0.0,0.0,0.0,0.0,0.0,0.0,0.0,0.0,0.0,0.0,0.0,0.0,0.0,0.0,0.0,0.0,0.0,0.0,0.0,0.0,0.0,0.0,0.0,0.0,0.0,0.0,0.0,0.0,0.0,0.0,0.0,0.0,0.0,0.0,0.0,0.0,0.0,0.0,0.0,0.0,0.0,0.0,0.0,0.0,0.0,0.0,0.0,0.0,0.0,0.0,0.0,0.0,0.0,0.0,0.0,0.0,0.0,0.0,0.0,0.0,0.0,0.0,0.0,0.0,0.0,0.0,0.0,0.0,0.0,0.0,0.0,0.0,0.0,0.0,0.0,0.0,0.0,0.0,0.0,0.0,0.0,0.0,0.0,0.0,0.0,0.0,0.0,0.0,0.0,0.0,0.0,0.0,0.0,0.0,0.0,0.0,0.0,0.0,0.0,0.0,0.0,-0.6024,-0.6224,-0.6664,-0.739,-0.7544,-0.7131,0.0,0.0,0.0,0.0,0.0,0.0,0.0,0.0,0.0,0.0,0.0,0.0,0.0,0.0,0.0,0.0,0.0,0.0,0.0,0.0,0.0,0.0,0.0,0.0,0.0,0.0,0.0,0.0,0.0,0.0,0.0,0.0,0.0,0.0,0.0,0.0,0.0,0.0,0.0,0.0,0.0,0.0,0.0,0.0,0.0,0.0,0.0,0.0,0.0,0.0,0.0,0.0,0.0,0.0,0.0,0.0,0.0,0.0,0.0,0.0,0.0,0.0,0.0,0.0,0.0,0.0,0.0,0.0,0.0,0.0,0.0,0.0,0.0,0.0,0.0,0.0,0.0,0.0,0.0,0.0,0.0,0.0,0.0,0.0,0.0,0.0,0.0,0.0,0.0,0.0,0.0,0.0,0.0,0.0,0.0,0.0,0.0,0.0,0.0,0.0,0.0,0.0,0.0,0.0,0.0,0.0,0.0,0.0,-0.3816,-0.5164,-0.5698,-0.6361,-0.7131,-0.7365,-0.716,0.0,0.0,0.0,0.0,0.0,0.0,0.0,0.0,0.0,0.0,0.0,0.0,0.0,0.0,0.0,0.0,0.0,0.0,0.0,0.0,0.0,0.0,0.0,0.0,0.0,0.0,0.0,0.0,0.0,0.0,0.0,0.0,0.0,0.0,0.0,0.0,0.0,0.0,0.0,0.0,0.0,0.0,0.0,0.0,0.0,0.0,0.0,0.0,0.0,0.0,0.0,0.0,0.0,0.0,0.0,0.0,0.0,0.0,0.0,0.0,0.0,0.0,0.0,0.0,0.0,0.0,0.0,0.0,0.0,0.0,0.0,0.0,0.0,0.0,0.0,0.0,0.0,0.0,0.0,0.0,0.0,0.0,0.0,0.0,0.0,0.0,0.0,0.0,0.0,0.0,0.0,0.0,0.0,0.0,0.0,0.0,0.0,0.0,0.0,0.0,0.0,0.0,0.0,0.0,0.0,0.0,0.0,0.0,-0.2812,-0.3778,-0.4665,-0.5657,-0.6645,-0.6544,-0.6651,0.0,0.0,0.0,0.0,0.0,0.0,0.0,0.0,0.0,0.0,0.0,0.0,0.0,0.0,0.0,0.0,0.0,0.0,0.0,0.0,0.0,0.0,0.0,0.0,0.0,0.0,0.0,0.0,0.0,0.0,0.0,0.0,0.0,0.0,0.0,0.0,0.0,0.0,0.0,0.0,0.0,0.0,0.0,0.0,0.0,0.0,0.0,0.0,0.0,0.0,0.0,0.0,0.0,0.0,0.0,0.0,0.0,0.0,0.0,0.0,0.0,0.0,0.0,0.0,0.0,0.0,0.0,0.0,0.0,0.0,0.0,0.0,0.0,0.0,0.0,0.0,0.0,0.0,0.0,0.0,0.0,0.0,0.0,0.0,0.0,0.0,0.0,0.0,0.0,0.0,0.0,0.0,0.0,0.0,0.0,0.0,0.0,0.0,0.0,0.0,0.0,0.0,0.0,0.0,0.0,0.0,0.0,0.0,-0.2297,-0.3783,-0.4085,-0.5071,-0.6654,-0.7044,-0.7012,0.0,0.0,0.0,0.0,0.0,0.0,0.0,0.0,0.0,0.0,0.0,0.0,0.0,0.0,0.0,0.0,0.0,0.0,0.0,0.0,0.0,0.0,0.0,0.0,0.0,0.0,0.0,0.0,0.0,0.0,0.0,0.0,0.0,0.0,0.0,0.0,0.0,0.0,0.0,0.0,0.0,0.0,0.0,0.0,0.0,0.0,0.0,0.0,-1.0999,0.0,0.0,0.0,0.0,0.0,0.0,0.0,0.0,0.0,0.0,0.0,0.0,0.0,0.0,0.0,0.0,0.0,0.0,0.0,0.0,0.0,0.0,0.0,0.0,0.0,0.0,0.0,0.0,0.0,0.0,0.0,0.0,0.0,0.0,0.0,0.0,0.0,0.0,0.0,0.0,0.0,0.0,0.0,0.0,0.0,0.0,0.0,0.0,0.0,0.0,0.0,0.0,0.0,0.0,0.0,0.0,0.0,0.0,0.0,-0.1554,-0.3203,-0.3387,-0.4276,-0.6001,-0.6375,-0.645,0.0,0.0,0.0,0.0,0.0,0.0,0.0,0.0,0.0,0.0,0.0,0.0,0.0,0.0,0.0,0.0,0.0,0.0,0.0,0.0,0.0,0.0,0.0,0.0,0.0,0.0,0.0,0.0,0.0,0.0,0.0,0.0,0.0,0.0,0.0,0.0,0.0,0.0,0.0,0.0,0.0,0.0,0.0,0.0,0.0,0.0,0.0,0.0,0.0,0.0,0.0,0.0,0.0,0.0,0.0,0.0,0.0,0.0,0.0,0.0,0.0,0.0,0.0,0.0,0.0,0.0,0.0,0.0,0.0,0.0,0.0,0.0,0.0,0.0,0.0,0.0,0.0,0.0,0.0,0.0,0.0,0.0,0.0,0.0,0.0,0.0,0.0,0.0,0.0,0.0,0.0,0.0,0.0,0.0,0.0,0.0,0.0,0.0,0.0,0.0,0.0,0.0,0.0,0.0,0.0,0.0,0.0,-0.0255,-0.1044,-0.2808,-0.2878,-0.368,-0.5359,-0.5428,-0.5664,-0.6125,0.0,0.0,0.0,0.0,0.0,0.0,0.0,0.0,0.0,0.0,0.0,0.0,0.0,0.0,0.0,0.0,0.0,0.0,0.0,0.0,0.0,0.0,0.0,0.0,0.0,0.0,0.0,0.0,0.0,0.0,0.0,0.0,0.0,0.0,0.0,0.0,0.0,0.0,-1.1601,-1.3418,0.0,0.0,0.0,0.0,0.0,0.0,0.0,0.0,-1.2432,0.0,0.0,0.0,0.0,0.0,0.0,0.0,0.0,0.0,0.0,0.0,0.0,0.0,0.0,0.0,0.0,0.0,0.0,0.0,0.0,0.0,0.0,0.0,0.0,0.0,0.0,0.0,0.0,0.0,0.0,0.0,0.0,0.0,0.0,0.0,0.0,0.0,0.0,0.0,0.0,0.0,0.0,0.0,0.0,0.0,0.0,0.0,0.0,0.0,0.0,0.0,0.0,0.0,0.0,0.0,0.0,-0.2227,-0.1476,-0.1956,-0.3744,-0.3816,-0.4284,-0.5359,-0.5428,-0.5603,-0.5961,0.0,0.0,0.0,0.0,0.0,0.0,0.0,0.0,0.0,0.0,0.0,0.0,0.0,0.0,0.0,0.0,0.0,0.0,0.0,0.0,0.0,0.0,0.0,0.0,0.0,0.0,0.0,0.0,0.0,0.0,0.0,0.0,0.0,0.0,0.0,0.0,0.0,0.0,0.0,-1.5566,-1.6759,0.0,0.0,0.0,0.0,0.0,0.0,0.0,0.0,-1.3707,0.0,0.0,0.0,0.0,0.0,0.0,0.0,0.0,0.0,0.0,0.0,0.0,0.0,0.0,0.0,0.0,0.0,0.0,0.0,0.0,0.0,0.0,0.0,0.0,0.0,0.0,0.0,0.0,0.0,0.0,0.0,0.0,0.0,0.0,0.0,0.0,0.0,0.0,0.0,0.0,0.0,0.0,0.0,0.0,0.0,0.0,0.0,0.0,0.0,0.0,0.0,0.0,0.0,0.0,0.0,-0.1946,-0.1554,-0.2182,-0.3944,-0.4013,-0.442,-0.5359,-0.5672,-0.5891,0.0,0.0,0.0,0.0,0.0,0.0,0.0,0.0,0.0,0.0,0.0,0.0,0.0,0.0,0.0,0.0,0.0,0.0,0.0,0.0,0.0,0.0,0.0,0.0,0.0,0.0,0.0,0.0,0.0,0.0,0.0,0.0,0.0,0.0,0.0,0.0,0.0,0.0,0.0,0.0,-1.6809,-1.8061,-1.8006,0.0,0.0,0.0,0.0,0.0,0.0,-1.4537,-1.4215,0.0,0.0,0.0,0.0,0.0,0.0,0.0,0.0,0.0,0.0,0.0,0.0,0.0,0.0,0.0,0.0,0.0,0.0,0.0,0.0,0.0,0.0,0.0,0.0,0.0,0.0,0.0,0.0,0.0,0.0,0.0,0.0,0.0,0.0,0.0,0.0,0.0,0.0,0.0,0.0,0.0,0.0,0.0,0.0,0.0,0.0,0.0,0.0,0.0,0.0,0.0,0.0,0.0,0.0,0.0,-0.1602,-0.1748,-0.2661,-0.4215,-0.448,-0.4882,-0.5617,-0.6258,-0.6519,0.0,0.0,0.0,0.0,0.0,0.0,0.0,0.0,0.0,0.0,0.0,0.0,0.0,0.0,0.0,0.0,0.0,0.0,0.0,0.0,0.0,0.0,0.0,0.0,0.0,0.0,0.0,0.0,0.0,0.0,0.0,0.0,0.0,0.0,0.0,0.0,0.0,0.0,0.0,0.0,0.0,-1.923,-1.9393,-1.8993,0.0,0.0,0.0,0.0,-1.5592,-1.5385,0.0,0.0,0.0,0.0,0.0,0.0,0.0,0.0,0.0,0.0,0.0,0.0,0.0,0.0,0.0,0.0,0.0,0.0,0.0,0.0,0.0,0.0,0.0,0.0,0.0,0.0,0.0,0.0,0.0,0.0,0.0,0.0,0.0,0.0,0.0,0.0,0.0,0.0,0.0,0.0,0.0,0.0,0.0,0.0,0.0,0.0,0.0,0.0,0.0,0.0,0.0,0.0,0.0,0.0,0.0,0.0,-0.2582,-0.3297,-0.4175,-0.5216,-0.6001,-0.6453,-0.6588,-0.7349,-0.7907,0.0,0.0,0.0,0.0,0.0,0.0,0.0,0.0,0.0,0.0,0.0,0.0,0.0,0.0,0.0,0.0,0.0,0.0,0.0,0.0,0.0,0.0,0.0,0.0,0.0,0.0,0.0,0.0,0.0,0.0,0.0,0.0,0.0,0.0,0.0,0.0,0.0,0.0,0.0,0.0,0.0,-2.0376,-1.9891,-1.9829,-1.9679,0.0,0.0,-1.8267,-1.8197,-1.7777,0.0,0.0,0.0,0.0,0.0,0.0,0.0,0.0,0.0,0.0,0.0,0.0,0.0,0.0,0.0,0.0,0.0,0.0,0.0,0.0,0.0,0.0,0.0,0.0,0.0,0.0,0.0,0.0,0.0,0.0,0.0,0.0,0.0,0.0,0.0,0.0,0.0,0.0,0.0,0.0,0.0,0.0,0.0,0.0,0.0,0.0,0.0,0.0,0.0,0.0,0.0,0.0,0.0,0.0,0.0,-0.2125,-0.2707,-0.3599,-0.4686,-0.6071,-0.6523,-0.6915,-0.7432,-0.7965,-0.8281,0.0,0.0,0.0,0.0,0.0,0.0,0.0,0.0,0.0,0.0,0.0,0.0,0.0,0.0,0.0,0.0,0.0,0.0,0.0,0.0,0.0,0.0,0.0,0.0,0.0,0.0,0.0,0.0,0.0,0.0,0.0,0.0,0.0,0.0,0.0,0.0,0.0,0.0,0.0,0.0,0.0,0.0,-2.1098,-2.1889,0.0,0.0,0.0,-2.0439,-1.9899,0.0,0.0,0.0,0.0,0.0,0.0,0.0,0.0,0.0,0.0,0.0,0.0,0.0,0.0,0.0,0.0,0.0,0.0,0.0,0.0,0.0,0.0,0.0,0.0,0.0,0.0,0.0,0.0,0.0,0.0,0.0,0.0,0.0,0.0,0.0,0.0,0.0,0.0,0.0,0.0,0.0,0.0,0.0,0.0,0.0,0.0,0.0,0.0,0.0,0.0,0.0,0.0,0.0,0.0,0.0,0.0,0.0,-0.2954,-0.3903,-0.5074,-0.6654,-0.7102,-0.7742,-0.8586,-0.9156,0.0,0.0,0.0,0.0,0.0,0.0,0.0,0.0,0.0,0.0,0.0,0.0,0.0,0.0,0.0,0.0,0.0,0.0,0.0,0.0,0.0,0.0,0.0,0.0,0.0,0.0,0.0,-1.0973,0.0,0.0,0.0,0.0,0.0,0.0,0.0,0.0,0.0,0.0,0.0,0.0,0.0,0.0,-2.1596,-2.1754,-2.3017,-2.3514,0.0,0.0,-2.211,-2.1409,-2.0317,-1.9061,0.0,0.0,0.0,0.0,0.0,0.0,0.0,0.0,0.0,0.0,0.0,0.0,0.0,0.0,0.0,0.0,0.0,0.0,0.0,0.0,0.0,0.0,0.0,0.0,0.0,0.0,0.0,0.0,0.0,0.0,0.0,0.0,0.0,0.0,0.0,0.0,0.0,0.0,0.0,0.0,0.0,0.0,0.0,0.0,0.0,0.0,0.0,0.0,0.0,0.0,0.0,0.0,0.0,0.0,-0.295,-0.3758,-0.4755,-0.5749,-0.6719,-0.8238,-0.9439,-1.0286,-1.1481,-1.197,0.0,0.0,0.0,0.0,0.0,0.0,0.0,0.0,0.0,0.0,0.0,0.0,0.0,0.0,0.0,0.0,0.0,0.0,0.0,0.0,0.0,0.0,0.0,0.0,0.0,0.0,0.0,0.0,0.0,0.0,0.0,0.0,0.0,0.0,0.0,0.0,0.0,0.0,0.0,0.0,0.0,-2.1344,-2.1303,-2.2265,-2.28,0.0,-2.2444,-2.2823,-2.2753,-2.2218,-2.099,-1.8594,0.0,0.0,0.0,0.0,0.0,0.0,0.0,0.0,0.0,0.0,0.0,0.0,0.0,0.0,0.0,0.0,0.0,0.0,0.0,0.0,0.0,0.0,0.0,0.0,0.0,0.0,0.0,0.0,0.0,0.0,0.0,0.0,0.0,0.0,0.0,0.0,0.0,0.0,0.0,0.0,0.0,0.0,0.0,0.0,0.0,0.0,0.0,0.0,0.0,0.0,0.0,0.0,0.0,-0.3075,-0.3814,-0.4819,-0.6079,-0.7437,-0.8623,-0.9888,-1.1253,-1.1831,-1.2051,0.0,0.0,0.0,0.0,0.0,0.0,0.0,0.0,0.0,0.0,0.0,0.0,0.0,0.0,0.0,0.0,0.0,0.0,0.0,0.0,0.0,0.0,0.0,0.0,0.0,0.0,0.0,0.0,-1.1922,-1.1713,-1.1507,0.0,0.0,0.0,0.0,0.0,0.0,0.0,0.0,0.0,0.0,-2.146,-2.1659,-2.2578,0.0,0.0,-2.3405,-2.3372,-2.2475,-2.1977,-2.099,-1.9171,-1.8024,0.0,0.0,0.0,0.0,0.0,0.0,0.0,0.0,0.0,0.0,0.0,0.0,0.0,0.0,0.0,0.0,0.0,0.0,0.0,0.0,0.0,0.0,0.0,0.0,0.0,0.0,0.0,0.0,0.0,0.0,0.0,0.0,0.0,0.0,0.0,0.0,0.0,0.0,0.0,0.0,0.0,0.0,0.0,0.0,0.0,0.0,0.0,0.0,0.0,0.0,0.0,0.0,-0.3487,-0.4173,-0.5267,-0.6552,-0.7997,-0.9296,-1.0642,-1.212,-1.2768,-1.2985,0.0,0.0,0.0,0.0,0.0,0.0,0.0,0.0,0.0,0.0,0.0,0.0,0.0,0.0,0.0,0.0,0.0,0.0,0.0,0.0,0.0,0.0,0.0,0.0,0.0,0.0,0.0,0.0,-1.1931,-1.1784,-1.2409,0.0,0.0,0.0,0.0,0.0,0.0,0.0,0.0,0.0,0.0,-2.109,-2.1521,-2.2414,-2.3117,-2.3196,-2.3694,-2.3663,-2.28,-2.22,-2.1395,-2.031,0.0,0.0,0.0,0.0,0.0,0.0,0.0,0.0,0.0,0.0,0.0,0.0,0.0,0.0,0.0,0.0,0.0,0.0,0.0,0.0,0.0,0.0,0.0,0.0,0.0,0.0,0.0,0.5487,0.0,0.0,0.5429,0.0,0.0,0.0,0.0,0.0,0.0,0.0,0.0,0.0,0.0,0.0,0.0,0.0,0.0,0.0,0.0,0.0,0.0,0.0,0.0,0.0,0.0,-0.429,-0.5065,-0.6211,-0.7265,-0.8213,-1.0474,-1.2012,-1.294,-1.4809,-1.5551,-1.4966,0.0,0.0,0.0,0.0,0.0,0.0,0.0,0.0,0.0,0.0,0.0,0.0,0.0,0.0,0.0,0.0,0.0,0.0,0.0,0.0,0.0,0.0,0.0,0.0,0.0,0.0,-1.1922,-1.1216,-1.1285,0.0,0.0,0.0,0.0,0.0,0.0,0.0,0.0,0.0,-1.7981,-1.9192,-2.0078,-2.0585,-2.1451,-2.2227,-2.2646,-2.3199,-2.3642,-2.4036,-2.324,-2.2552,0.0,0.0,0.0,0.0,0.0,0.0,0.0,0.0,0.0,0.0,0.0,0.0,0.0,0.0,0.0,0.0,0.0,0.0,0.0,0.0,0.0,0.0,0.0,0.0,0.0,0.0,0.0,0.5897,0.5061,0.0,0.0,0.0,0.0,0.0,0.0,0.0,0.0,0.0,0.0,0.0,-0.3392,-0.4723,0.0,0.0,0.0,0.0,0.0,0.0,0.0,0.0,0.0,0.0,0.0,0.0,-0.4359,-0.5142,-0.6285,-0.7346,-0.8223,-0.9982,-1.1542,-1.294,-1.3865,-1.4459,-1.4612,0.0,0.0,0.0,0.0,0.0,0.0,0.0,0.0,0.0,0.0,0.0,0.0,0.0,0.0,0.0,0.0,0.0,0.0,0.0,0.0,0.0,0.0,0.0,0.0,0.0,-1.208,0.0,0.0,0.0,0.0,0.0,0.0,0.0,0.0,0.0,0.0,-1.7794,-1.9113,-1.9669,-2.0605,-2.1172,-2.1025,-2.157,-2.195,0.0,0.0,0.0,0.0,0.0,0.0,0.0,0.0,0.0,0.0,0.0,0.0,0.0,0.0,-1.844,-1.7482,-1.6346,-1.5308,-1.4606,0.0,0.0,0.0,0.0,0.0,0.0,0.0,0.0,0.0,0.0,0.0,0.0,0.0,0.0,0.5063,0.4766,0.4883,0.0,0.0,0.0,0.0,0.0,0.0,0.0,0.0,-0.2506,-0.338,-0.3929,-0.5611,-0.6448,0.0,-0.6823,-0.6073,0.0,0.0,0.0,0.0,0.0,0.0,0.0,0.0,-0.4903,-0.5814,-0.6941,-0.7929,-0.8816,-1.0276,-1.1674,-1.2948,-1.3874,-1.4527,-1.4892,-1.4041,-1.333,0.0,0.0,0.0,0.0,0.0,0.0,0.0,0.0,0.0,0.0,0.0,0.0,0.0,0.0,0.0,0.0,0.0,0.0,0.0,0.0,0.0,0.0,0.0,-1.1728,0.0,0.0,0.0,0.0,0.0,0.0,0.0,0.0,0.0,-1.8091,-1.9127,-2.0041,-2.0967,-2.1523,-2.1777,-2.1504,0.0,0.0,0.0,0.0,0.0,0.0,0.0,-2.09,-2.0467,-2.0283,-1.997,-1.9335,-1.9087,-1.9003,-1.8791,0.0,0.0,-1.8387,-1.7249,-1.622,-1.5465,-1.4853,-1.4362,-1.4275,-1.4409,-1.4449,0.0,0.0,0.0,0.0,0.0,0.0,0.0,0.0,0.2958,0.3188,0.0,0.3655,0.0,0.0,0.0,0.0,0.101,-0.0517,0.0,0.0,-0.314,-0.4077,-0.4127,-0.5299,-0.6287,-0.7108,-0.7333,-0.7775,-0.835,-0.7215,0.0,0.0,0.0,0.0,0.0,0.0,-0.5978,-0.7091,-0.8217,-0.9118,-0.9887,-1.1427,-1.2474,-1.307,-1.4781,-1.5727,-1.5837,-1.4923,-1.3978,-1.3017,-1.2044,0.0,0.0,0.0,0.0,0.0,0.0,0.0,0.0,0.0,0.0,0.0,0.0,0.0,0.0,0.0,0.0,0.0,0.0,0.0,0.0,-1.166,0.0,0.0,0.0,0.0,0.0,0.0,0.0,0.0,0.0,-1.8813,-1.9678,-1.951,-1.9971,-2.1578,0.0,0.0,0.0,0.0,-2.207,-2.2386,-2.2104,-2.1633,-2.0775,-2.0629,-2.0263,-1.9049,0.0,0.0,-1.884,-1.9069,-1.9191,-1.8767,-1.8995,-1.9397,-1.9265,-1.7951,-1.6868,-1.6959,-1.593,-1.5187,-1.5324,-1.5239,-1.489,0.0538,0.0,0.0,0.0,0.0,0.2699,0.2808,0.3251,0.2647,0.2676,0.3107,0.2819,0.0,0.0,0.0,0.0,0.0,0.0,-0.0677,-0.1298,-0.2656,-0.3622,-0.4166,-0.6092,-0.7389,-0.82,-0.9101,-0.9845,-1.0491,-1.0182,-0.8873,-0.6887,0.0,0.0,0.0,0.0,-0.6183,-0.7214,-0.8298,-0.9274,-1.0219,-1.1538,-1.2727,-1.3795,-1.5074,-1.5693,-1.5737,-1.5175,-1.4603,-1.3998,-1.3273,0.0,0.0,0.0,0.0,0.0,0.0,0.0,0.0,0.0,0.0,0.0,0.0,0.0,0.0,0.0,0.0,0.0,0.0,0.0,-1.3301,-1.2531,-1.2494,0.0,0.0,0.0,0.0,0.0,0.0,0.0,0.0,0.0,-1.8786,-1.9024,-1.9107,0.0,0.0,-2.1401,-2.1124,-2.2045,-2.2457,-2.1757,-2.1577,0.0,-2.0035,-1.9563,-1.9301,-1.9298,-1.8708,-1.8195,-1.8018,-1.7338,-1.6807,-1.6714,-1.6778,-1.6842,-1.6929,-1.7265,-1.7069,-1.6406,-1.5812,-1.5605,-1.5591,-1.5025,-1.4242,-0.1042,0.0504,0.042,0.1046,0.2124,0.2024,0.2258,0.2756,0.2285,0.2122,0.1971,0.1672,0.1429,0.1319,0.0864,0.0,0.0,0.0,-0.0285,-0.0866,-0.2328,-0.3242,-0.3889,-0.5986,-0.7699,-0.8902,-0.961,-1.0556,-1.177,-1.1777,-1.0604,-0.8493,0.0,-0.7157,-0.65,-0.6037,-0.6539,-0.7969,-0.8675,-0.9626,-1.0982,-1.1787,-1.2727,-1.383,-1.4685,-1.5292,-1.5573,-1.5222,-1.4846,-1.4562,-1.3878,-1.3176,0.0,0.0,0.0,0.0,0.0,0.0,0.0,0.0,0.0,0.0,0.0,-1.3398,-1.3154,0.0,0.0,0.0,-1.3437,-1.3799,-1.4219,-1.3597,0.0,0.0,0.0,0.0,0.0,0.0,0.0,-1.7163,-1.6428,-1.6357,-1.7842,-1.7825,-1.8001,-1.8979,-1.9971,-2.0488,-2.0262,0.0,-2.14,-2.0666,-2.0576,-2.0215,-1.8948,-1.8597,-1.8253,-1.8087,-1.7483,-1.6943,-1.6943,-1.6292,-1.5825,-1.5825,-1.5825,-1.5825,-1.5825,-1.6089,-1.6177,-1.5825,-1.5343,-1.5045,-1.5051,-1.398,-1.3006,-0.1377,0.0483,0.0379,0.0884,0.1765,0.1762,0.22,0.2857,0.1977,0.1481,0.1281,0.0369,0.0,0.0,0.0,0.0,0.0,0.0,0.0,0.0,-0.2168,-0.3124,-0.3202,-0.5312,-0.7326,-0.914,-0.9296,-1.0282,-1.2109,-1.219,-1.1478,-1.0002,-0.8938,-0.8003,-0.7279,-0.632,-0.6913,-0.9056,-0.9265,-1.0153,-1.1942,-1.2164,-1.2667,-1.3465,-1.3987,-1.4569,-1.5342,-1.5039,-1.4824,-1.4756,-1.3994,-1.3545,-1.3486,0.0,0.0,0.0,0.0,0.0,0.0,0.0,0.0,0.0,0.0,0.0,0.0,0.0,0.0,-1.3445,-1.426,0.0,-1.5234,-1.4574,0.0,0.0,0.0,-1.4156,-1.5559,-1.6772,-1.7472,-1.7472,0.0,0.0,-1.697,-1.6292,-1.6655,-1.8948,-1.9314,-1.9306,-1.9314,-1.9488,-1.9488,-1.9397,-1.9314,-1.8948,-1.777,-1.7483,-1.7196,-1.6197,-1.5825,-1.592,-1.5927,-1.5825,-1.5825,-1.5825,-1.5825,-1.5825,-1.5825,-1.4848,-1.4262,-1.5439,-1.4561,-1.3776,-1.3686,-1.2716,-1.1458,0.2324,0.282,0.2778,0.2921,0.3079,0.3024,0.3081,0.3154,0.2094,0.1606,0.1435,0.0451,0.0,0.0,0.0,0.0,0.0,0.0,0.0,0.0,-0.2123,-0.3124,-0.3202,-0.5315,-0.6949,-0.8161,-0.8917,-1.0073,-1.1401,-1.1401,-1.1278,-1.1039,-0.9189,-0.7808,-0.7027,-0.6474,-0.7219,-0.9215,-0.9271,-1.0444,-1.2706,-1.2667,-1.3184,-1.4372,-1.43,-1.4569,-1.5352,-1.5312,-1.5117,-1.4795,-1.4277,-1.3786,-1.3516,-1.2541,0.0,0.0,0.0,0.0,0.0,0.0,0.0,0.0,0.0,-1.4199,-1.3564,0.0,-1.3474,0.0,-1.3768,-1.3863,-1.4084,-1.4342,0.0,0.0,-1.4966,-1.4936,-1.5147,-1.5616,-1.5896,-1.5896,-1.6109,-1.617,-1.6094,-1.5873,-1.6015,-1.6655,-1.7498,-1.8133,-1.8141,-1.8956,-1.9139,-1.8319,-1.8141,-1.7677,-1.6567,-1.6298,-1.6204,-1.5832,-1.5825,-1.5825,-1.5825,-1.5825,-1.5825,-1.5825,-1.5825,-1.5825,-1.573,-1.4752,-1.4064,-1.4166,-1.3295,-1.2425,-1.2328,-1.1361,-1.0386,0.3912,0.4424,0.4381,0.4656,0.5072,0.4414,0.4188,0.4102,0.3404,0.2564,0.1585,0.0476,0.0,0.0,0.0,0.0,0.0,0.0,-0.0244,-0.0812,-0.2372,-0.3357,-0.3904,-0.5547,-0.6795,-0.7859,-0.8846,-0.9948,-1.1105,-1.1105,-1.0908,-1.0745,-0.9055,-0.7725,-0.6824,-0.6535,-0.7324,-0.9301,-1.0201,-1.1323,-1.2627,-1.2331,-1.2684,-1.3728,-1.3397,-1.3657,-1.4805,-1.4874,-1.4869,-1.4795,-1.4365,-1.4023,-1.3737,-1.3114,-1.291,0.0,0.0,0.0,0.0,0.0,0.0,0.0,0.0,0.0,0.0,0.0,-1.3096,-1.3493,-1.4118,-1.4609,-1.4912,-1.5255,-1.5511,-1.5649,-1.549,-1.5306,-1.5214,-1.5411,-1.5591,-1.5591,-1.5732,-1.5825,-1.5825,-1.5825,-1.5825,-1.5825,-1.6393,-1.685,-1.6943,-1.7483,-1.7576,-1.6943,-1.6857,-1.6662,-1.5927,-1.5825,-1.5825,-1.5825,-1.5825,-1.5825,-1.5825,-1.5343,-1.4949,-1.4949,-1.4465,-1.4082,-1.3986,-1.3006,-1.2226,-1.2032,-1.1068,-1.0485,-1.0877,-0.9998,-0.9118,0.4692,0.5567,0.5582,0.616,0.7027,0.5829,0.539,0.529,0.5191,0.3847,0.1761,0.0505,0.0,0.0,0.0,0.0,0.0,-0.0166,-0.0738,-0.1636,-0.2791,-0.3862,-0.4807,-0.5839,-0.678,-0.77,-0.8851,-0.9956,-1.1048,-1.097,-1.0608,-0.9932,-0.8721,-0.765,-0.6725,-0.6597,-0.7462,-0.9301,-1.1248,-1.2305,-1.2298,-1.1764,-1.1874,-1.2624,-1.2168,-1.2544,-1.3974,-1.407,-1.4241,-1.4601,-1.4311,-1.4071,-1.4061,-1.369,-1.343,0.0,-1.4055,0.0,0.0,0.0,0.0,0.0,0.0,0.0,0.0,-1.2795,-1.2676,-1.3055,-1.4629,-1.5795,-1.6174,-1.6352,-1.6485,-1.6404,-1.5896,-1.5451,-1.5458,-1.5678,-1.5825,-1.5825,-1.5825,-1.5825,-1.5825,-1.5825,-1.5825,-1.5825,-1.5825,-1.592,-1.5832,-1.592,-1.6015,-1.5825,-1.5825,-1.592,-1.5825,-1.5825,-1.5825,-1.5825,-1.5825,-1.573,-1.5534,-1.4651,-1.3872,-1.359,-1.2813,-1.2042,-1.1945,-1.097,-1.0096,-1.0194,-0.9118,-0.8528,-0.9316,-0.8924,-0.8038,0.6568,0.6747,0.677,0.6874,0.7048,0.6812,0.6641,0.6531,0.5563,0.3847,0.176,0.0504,0.0,0.0,0.0,0.0,0.0,-0.1031,-0.1542,-0.1796,-0.3839,-0.4789,-0.512,-0.6116,-0.6699,-0.7022,-0.8864,-1.0014,-1.0563,-1.0403,-1.035,-1.0394,-0.8344,-0.717,-0.6888,0.0,0.0,0.0,-1.1254,-1.2305,-1.2291,-1.1964,-1.2089,-1.2654,-1.2312,0.0,-1.3155,-1.3467,-1.3593,-1.3633,-1.3888,0.0,0.0,0.0,0.0,0.0,0.0,0.0,0.0,0.0,0.0,0.0,-1.2583,-1.2852,-1.3539,-1.3856,-1.3798,-1.327,-1.4152,-1.4787,-1.485,-1.5363,-1.567,-1.5586,-1.5665,-1.5752,-1.5752,-1.5798,-1.5825,-1.5825,-1.5825,-1.5825,-1.5825,-1.5825,-1.5825,-1.5825,-1.5825,-1.5825,-1.5825,-1.5825,-1.5825,-1.5825,-1.5825,-1.5825,-1.5825,-1.5825,-1.5825,-1.5825,-1.5825,-1.5439,-1.4555,-1.407,-1.3397,-1.2528,-1.2042,-1.1848,-1.1848,-1.0877,-0.9903,-1.0002,-0.8924,-0.8038,-0.8333,-0.8237,-0.8038,0.7139,0.7139,0.7139,0.7139,0.0,0.7139,0.7011,0.6937,0.5731,0.3976,0.1733,0.0521,0.0,0.0,0.0,0.0,0.0,-0.1221,-0.2079,-0.2594,-0.4309,-0.5352,-0.5942,-0.645,-0.6702,-0.6785,-0.8324,-0.9243,-0.9513,-0.9363,-0.9469,-0.9749,-0.8013,-0.7014,-0.7034,-0.7386,-0.8218,-0.9381,-1.0859,-1.1774,-1.2291,-1.2017,-1.2009,-1.2269,-1.1952,0.0,0.0,0.0,0.0,0.0,0.0,0.0,0.0,0.0,0.0,-1.3408,-1.3322,-1.2996,-1.2484,-1.286,-1.2961,-1.2466,-1.2771,-1.3181,-1.3397,-1.3824,-1.3932,-1.3841,-1.4396,-1.4803,-1.495,-1.5351,-1.5611,-1.5618,-1.5745,-1.5825,-1.5825,-1.5825,-1.5825,-1.5825,-1.5825,-1.5825,-1.5825,-1.5825,-1.5825,-1.5825,-1.5825,-1.5825,-1.5825,-1.5825,-1.5825,-1.5825,-1.5825,-1.5825,-1.5825,-1.5825,-1.5825,-1.573,-1.5242,-1.4657,-1.3974,-1.2807,-1.1745,-1.1068,-1.0485,-0.9998,-0.9899,-0.9414,-0.9019,-0.8924,-0.8432,-0.8038,-0.8038,-0.8038,-0.8038,0.7139,0.7139,0.7139,0.7139,0.7139,0.7139,0.6871,0.6425,0.5445,0.0,0.0,0.0539,0.0,0.0,0.0,-0.009,-0.0359,-0.1583,-0.2699,-0.374,-0.4867,-0.5924,-0.6776,-0.6776,-0.6776,-0.686,-0.7852,-0.851,-0.8734,-0.8577,-0.8652,-0.8794,-0.7665,-0.7139,-0.7129,-0.7763,-0.8542,-0.9344,-1.0313,-1.121,-1.1996,-1.1998,-1.1917,-1.187,-1.163,-1.182,-1.2451,-1.2502,-1.2617,-1.2649,-1.3004,-1.3092,-1.2892,-1.3012,-1.3267,-1.3677,-1.3878,-1.3615,-1.2628,-1.3133,-1.3148,-1.2526,-1.3193,-1.354,-1.3307,-1.3554,-1.3961,-1.4549,-1.4823,-1.5104,-1.5438,-1.5678,-1.5825,-1.5825,-1.5825,-1.5825,-1.5825,-1.5825,-1.5825,-1.5825,-1.5825,-1.5825,-1.5825,-1.5825,-1.5825,-1.5825,-1.5825,-1.5825,-1.5825,-1.5825,-1.5825,-1.5825,-1.5825,-1.5825,-1.5825,-1.5825,-1.5737,-1.5343,-1.4555,-1.3776,-1.3006,-1.1453,-1.0092,-0.9706,-0.8726,-0.8233,-0.8038,-0.8137,-0.8038,-0.8038,-0.8038,-0.8038,-0.8038,-0.8038,-0.8038,0.7139,0.7139,0.7139,0.7139,0.7139,0.7139,0.5974,0.4103,0.3926,0.3037,0.1701,0.0539,0.0,0.0,0.0,-0.0539,-0.1612,-0.285,-0.3999,-0.5156,-0.6292,-0.69,-0.7078,-0.7078,-0.7078,-0.7166,-0.8202,-0.8827,-0.8848,-0.8848,-0.8865,-0.8711,-0.7665,-0.7139,-0.7126,-0.7083,-0.758,-0.861,-1.0174,-1.1012,-1.1019,-1.181,-1.2118,-1.1884,-1.183,-1.1753,-1.1573,-1.188,-1.1982,-1.2033,-1.2687,-1.3102,-1.3058,-1.2833,-1.2796,-1.2863,-1.2465,-1.2198,-1.2029,-1.2328,-1.2675,-1.3039,-1.3434,-1.3621,-1.3601,-1.3854,-1.4269,-1.483,-1.4937,-1.519,-1.5691,-1.5798,-1.5825,-1.5825,-1.5825,-1.5825,-1.5825,-1.5825,-1.5825,-1.5825,-1.5825,-1.5825,-1.5825,-1.5825,-1.5825,-1.5825,-1.5825,-1.5825,-1.5825,-1.5825,-1.5825,-1.5825,-1.5825,-1.5825,-1.5825,-1.5825,-1.5432,-1.4364,-1.407,-1.3102,-1.1361,-1.0386,-0.9509,-0.8528,-0.8134,-0.8038,-0.8038,-0.8038,-0.8038,-0.8038,-0.8038,-0.8038,-0.8038,-0.8038,-0.8038,0.7139,0.7139,0.7139,0.7139,0.7051,0.6428,0.5174,0.357,0.2948,0.1968,0.0807,0.018,0.0,0.0,0.0,-0.0269,-0.0897,-0.2769,-0.3926,-0.4552,-0.6245,-0.7139,-0.7139,-0.7139,-0.7139,-0.7143,-0.7669,-0.7929,-0.7929,-0.7929,-0.7929,-0.7841,-0.7404,-0.7139,-0.7136,-0.7075,-0.7177,-0.7599,-0.928,-1.0418,-1.0924,-1.1851,-1.2238,-1.2111,-1.2104,-1.2044,-1.1904,-1.2037,-1.2037,-1.1877,-1.237,-1.2599,-1.2438,-1.2452,-1.2466,-1.2473,-1.2247,-1.2104,-1.2098,-1.2538,-1.2979,-1.3407,-1.3714,-1.3881,-1.3888,-1.4001,-1.4335,-1.4897,-1.506,-1.5197,-1.5758,-1.5825,-1.5825,-1.5825,-1.5825,-1.5825,-1.5825,-1.5825,-1.5825,-1.5825,-1.5825,-1.5825,-1.5825,-1.5825,-1.5825,-1.5825,-1.5825,-1.5825,-1.5825,-1.5825,-1.5825,-1.5825,-1.5825,-1.5825,-1.5825,-1.5825,-1.5534,-1.4943,-1.3686,-1.2528,-1.1072,-1.0096,-0.8726,-0.8137,-0.8038,-0.8038,-0.8038,-0.8038,-0.8038,-0.8038,-0.8038,-0.8038,-0.8038,-0.8038,-0.8038,0.7139,0.7139,0.7139,0.6962,0.6602,0.5447,0.4285,0.3126,0.1878,0.0897,0.0,0.0,0.0,0.0,0.0,-0.0269,-0.0987,-0.2769,-0.3926,-0.455,-0.6245,-0.7139,-0.7139,-0.7139,-0.7139,-0.7139,-0.7139,-0.7139,-0.7139,-0.7139,-0.7139,-0.7139,-0.7139,-0.7139,-0.7139,-0.7139,-0.7173,-0.7393,-0.8828,-0.9979,-1.0785,-1.186,-1.2398,-1.2398,-1.2338,-1.2305,-1.2305,-1.2305,-1.2198,-1.1997,-1.2184,-1.2198,-1.1997,-1.2178,-1.2305,-1.2305,-1.2305,-1.2338,-1.2432,-1.2966,-1.3407,-1.3546,-1.3921,-1.4088,-1.4088,-1.4088,-1.4329,-1.4945,-1.506,-1.5204,-1.5705,-1.5825,-1.5825,-1.5825,-1.5825,-1.5825,-1.5825,-1.5825,-1.5825,-1.5825,-1.5825,-1.5825,-1.5825,-1.5825,-1.5825,-1.5825,-1.5825,-1.5825,-1.5825,-1.5825,-1.5825,-1.5825,-1.5825,-1.5629,-1.5439,-1.5343,-1.5045,-1.4752,-1.2818,-1.1458,-1.0681,-0.9118,-0.8233,-0.8038,-0.8038,-0.8038,-0.8038,-0.8038,-0.8038,-0.8038,-0.8038,-0.8038,-0.8038,-0.8038,-0.8038,0.7139,0.7139,0.7139,0.6517,0.5534,0.4285,0.3126,0.1969,0.0718,0.0,0.0,0.0,0.0,0.0,0.0,-0.1076,-0.2948,-0.3481,-0.4639,-0.6425,-0.6959,-0.7139,-0.7139,-0.7139,-0.7139,-0.7139,-0.7139,-0.7139,-0.7139,-0.7139,-0.7139,-0.7139,-0.7139,-0.7139,-0.7139,-0.7139,-0.757,-0.8686,-0.9677,-1.012,-1.0069,-1.1821,-1.2788,-1.2782,-1.2438,-1.2305,-1.2305,-1.2305,-1.2291,-1.2265,-1.2285,-1.2291,-1.2265,-1.2291,-1.2305,-1.2305,-1.2305,-1.2412,-1.2712,-1.3267,-1.3607,-1.3579,-1.3921,-1.4088,-1.4088,-1.4088,-1.4329,-1.4823,-1.506,-1.5211,-1.5745,-1.5825,-1.5825,-1.5825,-1.5825,-1.5825,-1.5825,-1.5825,-1.5825,-1.5825,-1.5825,-1.5825,-1.5825,-1.5825,-1.5825,-1.5825,-1.5825,-1.5825,-1.5825,-1.5825,-1.5825,-1.5825,-1.5825,-1.5337,-1.4555,-1.407,-1.3488,-1.1458,-1.0489,-0.9998,-0.9217,-0.8627,-0.8038,-0.8038,-0.8038,-0.8038,-0.8038,-0.8038,-0.8038,-0.8038,-0.8038,-0.8038,-0.8038,-0.8038,-0.8038,0.7139,0.7139,0.7139,0.6428,0.5267,0.3395,0.2236,0.1701,0.0539,0.0,0.0,0.0,0.0,0.0,0.0,-0.0539,-0.1522,-0.2948,-0.4103,-0.5174,-0.6425,-0.7139,-0.7139,-0.7139,-0.7139,-0.7139,-0.7139,-0.7139,-0.7139,-0.7139,-0.7139,-0.7139,-0.7139,-0.7139,-0.7139,-0.7139,-0.7316,-0.7837,-0.8781,-0.9568,-1.0197,-1.1872,-1.2741,-1.2492,-1.2365,-1.2305,-1.2305,-1.2305,-1.2305,-1.2305,-1.2305,-1.2305,-1.2305,-1.2305,-1.2305,-1.2311,-1.2472,-1.2772,-1.3247,-1.3514,-1.3721,-1.3895,-1.4015,-1.4088,-1.4088,-1.4088,-1.4329,-1.485,-1.506,-1.5204,-1.5725,-1.5825,-1.5825,-1.5825,-1.5825,-1.5825,-1.5825,-1.5825,-1.5825,-1.5825,-1.5825,-1.5825,-1.5825,-1.5825,-1.5825,-1.5825,-1.5825,-1.5825,-1.5825,-1.5825,-1.5825,-1.5825,-1.5825,-1.5242,-1.4172,-1.3878,-1.3006,-1.1653,-1.0489,-0.9706,-0.9312,-0.8432,-0.8038,-0.8038,-0.8038,-0.8038,-0.8038,-0.8038,-0.8038,-0.8038,-0.8038,-0.8038,-0.8038,-0.8038,-0.8038,0.7177,0.7054,0.6782,0.598,0.4732,0.2683,0.1612,0.1254,0.0359,0.0,0.0,0.0,0.0,0.0,0.0,-0.0269,-0.1165,-0.2769,-0.4014,-0.4639,-0.6334,-0.7139,-0.7139,-0.7139,-0.7139,-0.7139,-0.7139,-0.7139,-0.7139,-0.7139,-0.7139,-0.7139,-0.7139,-0.7139,-0.7139,-0.7139,-0.7224,-0.7654,-0.8406,-0.9333,-1.0663,-1.1908,-1.2531,-1.2496,-1.2465,-1.2458,-1.2545,-1.2472,-1.2425,-1.2425,-1.2351,-1.2345,-1.2418,-1.2351,-1.2338,-1.2438,-1.2705,-1.31,-1.3614,-1.3721,-1.3861,-1.4055,-1.4088,-1.4088,-1.4088,-1.4088,-1.4355,-1.4877,-1.506,-1.5197,-1.5718,-1.5825,-1.5825,-1.5825,-1.5825,-1.5825,-1.5825,-1.5825,-1.5825,-1.5825,-1.5825,-1.5825,-1.5825,-1.5825,-1.5825,-1.5825,-1.5825,-1.5825,-1.5825,-1.5825,-1.5825,-1.5825,-1.5825,-1.5248,-1.4172,-1.3878,-1.3295,-1.2139,-1.0877,-1.0002,-0.9903,-0.8825,-0.8038,-0.8038,-0.8038,-0.8038,-0.8038,-0.8038,-0.8038,-0.8038,-0.8038,-0.8038,-0.8038,-0.8038,-0.8038,0.7275,0.6969,0.5894,0.4821,0.3571,0.2325,0.1165,0.0,0.0,0.0,0.0,0.0,0.0,0.0,0.0,-0.1254,-0.3126,-0.3393,-0.4639,-0.6422,-0.6959,-0.7139,-0.7139,-0.7139,-0.7139,-0.7139,-0.7139,-0.7139,-0.7139,-0.7139,-0.7139,-0.7139,-0.7139,-0.7139,-0.7139,-0.7139,-0.7665,-0.8448,-0.8682,-0.9719,-1.1394,-1.1822,-1.2239,-1.2903,-1.2879,-1.2852,-1.3073,-1.2872,-1.2802,-1.2732,-1.2485,-1.2452,-1.2735,-1.2465,-1.2438,-1.2802,-1.3026,-1.332,-1.3641,-1.3901,-1.4062,-1.4088,-1.4088,-1.4088,-1.4088,-1.4088,-1.4355,-1.491,-1.506,-1.5204,-1.5725,-1.5825,-1.5825,-1.5825,-1.5825,-1.5825,-1.5825,-1.5825,-1.5825,-1.5825,-1.5825,-1.5825,-1.5825,-1.5825,-1.5825,-1.5825,-1.5825,-1.5825,-1.5825,-1.5825,-1.5825,-1.5825,-1.573,-1.5343,-1.4268,-1.3878,-1.3301,-1.2237,-1.1072,-1.0096,-0.9608,-0.9015,-0.8528,-0.8038,-0.8038,-0.8038,-0.8038,-0.8038,-0.8038,-0.8038,-0.8038,-0.8038,-0.8038,-0.8038,-0.8038,0.7282,0.6962,0.5894,0.473,0.3482,0.2324,0.1076,0.0,0.0,0.0,0.0,0.0,0.0,0.0,0.0,-0.0449,0.0,-0.2858,-0.4105,-0.4994,-0.6422,-0.7139,-0.7139,-0.7139,-0.7139,-0.7139,-0.7139,-0.7139,-0.7139,-0.7139,-0.7139,-0.7139,-0.7139,-0.7139,-0.7139,-0.7139,-0.7316,-0.7742,-0.7657,-0.8337,-0.97,-1.0305,-1.1148,-1.23,-1.287,-1.3093,-1.3206,-1.31,-1.3046,-1.3039,-1.2939,-1.2832,-1.2822,-1.2728,-1.2812,-1.326,-1.3427,-1.3614,-1.3888,-1.4028,-1.4088,-1.4088,-1.4088,-1.4088,-1.4088,-1.4102,-1.4335,-1.4816,-1.506,-1.5224,-1.5665,-1.5825,-1.5825,-1.5825,-1.5825,-1.5825,-1.5825,-1.5825,-1.5825,-1.5825,-1.5825,-1.5825,-1.5825,-1.5825,-1.5825,-1.5825,-1.5825,-1.5825,-1.5825,-1.5825,-1.5825,-1.5825,-1.5825,-1.5635,-1.5248,-1.4364,-1.3494,-1.2425,-1.1361,-1.0779,-1.0288,-0.9801,-0.9213,-0.8333,-0.8134,-0.8038,-0.8038,-0.8038,-0.8038,-0.8038,-0.8038,-0.8038,-0.8038,-0.8038,-0.8038,0.7278,0.6972,0.5894,0.491,0.4105,0.2858,0.1701,0.0628,0.0539,0.0359,0.0,0.0,0.0,0.0,0.0,0.0,0.0,-0.2503,-0.3837,-0.4372,-0.6245,-0.7139,-0.7139,-0.7139,-0.7139,-0.7139,-0.7139,-0.7139,-0.7139,-0.7139,-0.7139,-0.7139,-0.7139,-0.7139,-0.7139,-0.7139,-0.7139,-0.7119,-0.7389,-0.8111,-0.9105,-1.0153,-1.1305,-1.2444,-1.3173,-1.3494,-1.3494,-1.3407,-1.3347,-1.334,-1.3267,-1.3113,-1.2919,-1.2986,-1.3213,-1.3506,-1.3641,-1.3774,-1.4035,-1.4088,-1.4088,-1.4088,-1.4088,-1.4088,-1.4088,-1.4088,-1.4376,-1.4796,-1.497,-1.5197,-1.5658,-1.5825,-1.5825,-1.5825,-1.5825,-1.5825,-1.5825,-1.5825,-1.5825,-1.5825,-1.5825,-1.5825,-1.5825,-1.5825,-1.5825,-1.5825,-1.5825,-1.5825,-1.5825,-1.5825,-1.5825,-1.5825,-1.5825,-1.5825,-1.5635,-1.5045,-1.4752,-1.3782,-1.2716,-1.194,-1.1258,-1.0676,-0.9899,-0.892,-0.8333,-0.8137,-0.8038,-0.8038,-0.8038,-0.8038,-0.8038,-0.8038,-0.8038,-0.8038,-0.8038,0.7285,0.6972,0.5891,0.5447,0.509,0.4107,0.2948,0.1969,0.179,0.1165,0.0,0.0,0.0,0.0,0.0,0.0,0.0,-0.2413,-0.4016,-0.5087,-0.6337,-0.7048,-0.7051,-0.7139,-0.7139,-0.7139,-0.7139,-0.7139,-0.7139,-0.7139,-0.7139,-0.7139,-0.7139,-0.7139,-0.7139,-0.7139,-0.7139,-0.7397,-0.8257,-0.93,-1.0605,-1.1503,-1.2614,-1.3704,-1.3944,-1.4015,-1.4041,-1.3788,-1.3641,-1.3614,-1.34,-1.3233,-1.3287,-1.344,-1.3621,-1.3579,-1.3667,-1.3801,-1.4041,-1.4088,-1.4088,-1.4088,-1.4088,-1.4088,-1.4088,-1.4095,-1.4335,-1.4836,-1.508,-1.5197,-1.5691,-1.5825,-1.5825,-1.5825,-1.5825,-1.5825,-1.5825,-1.5825,-1.5825,-1.5825,-1.5825,-1.5825,-1.5825,-1.5825,-1.5825,-1.5825,-1.5825,-1.5825,-1.5825,-1.5825,-1.5825,-1.5825,-1.5825,-1.5825,-1.5825,-1.5825,-1.573,-1.5534,-1.4465,-1.359,-1.2711,-1.2129,-1.0774,-0.9698,-0.8428,-0.8134,-0.8038,-0.8038,-0.8038,-0.8038,-0.8038,-0.8038,-0.8038,-0.8038,-0.8038,0.7373,0.7061,0.6694,0.6071,0.5447,0.5001,0.4196,0.3126,0.3037,0.2325,0.1433,0.1255,0.0808,0.0,0.0,0.0,0.0,-0.1701,-0.3038,-0.4196,-0.5356,-0.6337,-0.6962,-0.7051,-0.7139,-0.7139,-0.7139,-0.7139,-0.7139,-0.7139,-0.7139,-0.7139,-0.7139,-0.7139,-0.7139,-0.7139,-0.7401,-0.8281,-0.8719,-0.9497,-1.0611,-1.1724,-1.2504,-1.2857,-1.3646,-1.4088,-1.4082,-1.4001,-1.3948,-1.3941,-1.3861,-1.3814,-1.3801,-1.3707,-1.3658,-1.3921,-1.3948,-1.3975,-1.4062,-1.4088,-1.4088,-1.4088,-1.4088,-1.4088,-1.4088,-1.4088,-1.4349,-1.4863,-1.5066,-1.5197,-1.5678,-1.5825,-1.5825,-1.5825,-1.5825,-1.5825,-1.5825,-1.5825,-1.5825,-1.5825,-1.5825,-1.5825,-1.5825,-1.5825,-1.5825,-1.5825,-1.5825,-1.5825,-1.5825,-1.5825,-1.5825,-1.5825,-1.5825,-1.5825,-1.5825,-1.5825,-1.5825,-1.5825,-1.5242,-1.4657,-1.3974,-1.2807,-1.1551,-1.0092,-0.8821,-0.8134,-0.8038,-0.8038,-0.8038,-0.8038,-0.8038,-0.8038,-0.8038,-0.8038,-0.8038,0.737,0.7146,0.7139,0.6694,0.6071,0.6071,0.5356,0.4374,0.4285,0.3571,0.2592,0.1969,0.1433,0.0718,0.018,0.0,0.0,-0.0807,-0.179,-0.2948,-0.4196,-0.5176,-0.5885,-0.6337,-0.6425,-0.6605,-0.6871,-0.7139,-0.7139,-0.7139,-0.7139,-0.7139,-0.7139,-0.7139,-0.7139,-0.7139,-0.7665,-0.8803,-0.9323,-1.0091,-1.1209,-1.2328,-1.2942,-1.3112,-1.373,-1.4082,-1.4088,-1.4088,-1.4088,-1.4088,-1.4088,-1.4088,-1.4068,-1.3915,-1.3895,-1.4028,-1.4082,-1.4082,-1.4088,-1.4088,-1.4088,-1.4088,-1.4088,-1.4088,-1.4088,-1.4088,-1.4349,-1.4843,-1.506,-1.5204,-1.5691,-1.5825,-1.5825,-1.5825,-1.5825,-1.5825,-1.5825,-1.5825,-1.5825,-1.5825,-1.5825,-1.5825,-1.5825,-1.5825,-1.5825,-1.5825,-1.5825,-1.5825,-1.5825,-1.5825,-1.5825,-1.5825,-1.5825,-1.5825,-1.5825,-1.5825,-1.5825,-1.5825,-1.573,-1.5337,-1.4854,-1.3204,-1.175,-0.9797,-0.8233,-0.8137,-0.8038,-0.8038,-0.8038,-0.8038,-0.8038,-0.8038,-0.8038,-0.8038,-0.8038,0.7282,0.7146,0.7139,0.7051,0.7051,0.7051,0.6428,0.5625,0.5447,0.4821,0.3659,0.2593,0.1879,0.1522,0.0539,0.0,0.0,-0.009,-0.0718,-0.1701,-0.2771,-0.3571,-0.4372,-0.5265,-0.5714,-0.5983,-0.6694,-0.7051,-0.7139,-0.7139,-0.7139,-0.7139,-0.7139,-0.7228,-0.7316,-0.7228,-0.8013,-0.9405,-1.0269,-1.1209,-1.2334,-1.3385,-1.3997,-1.3997,-1.4088,-1.4088,-1.4088,-1.4088,-1.4088,-1.4088,-1.4088,-1.4088,-1.4088,-1.4088,-1.4068,-1.4088,-1.4088,-1.4088,-1.4088,-1.4088,-1.4088,-1.4088,-1.4088,-1.4088,-1.4088,-1.4102,-1.4335,-1.4883,-1.506,-1.5197,-1.5678,-1.5825,-1.5825,-1.5825,-1.5825,-1.5825,-1.5825,-1.5825,-1.5825,-1.5825,-1.5825,-1.5825,-1.5825,-1.5825,-1.5825,-1.5825,-1.5825,-1.5825,-1.5825,-1.5825,-1.5825,-1.5825,-1.5825,-1.5825,-1.5825,-1.514,-1.514,-1.4949,-1.4949,-1.4657,-1.4561,-1.3011,-1.1653,-0.9702,-0.8134,-0.8038,-0.8038,-0.8038,-0.8038,-0.8038,-0.8038,-0.8038,-0.8038,-0.8038,-0.8038,0.7282,0.7143,0.7139,0.7139,0.7139,0.7139,0.6962,0.6694,0.6605,0.598,0.4819,0.366,0.2592,0.17,0.0,0.0,0.0,0.0,-0.009,-0.0449,-0.0718,-0.2593,-0.4465,-0.5179,-0.5805,-0.6514,-0.6874,-0.7139,-0.7139,-0.7139,-0.7139,-0.7139,-0.7139,-0.7577,-0.8277,-0.8368,-0.9488,-1.1123,-1.1638,-1.2419,-1.3385,-1.3822,-1.4082,-1.4088,-1.4088,-1.4088,-1.4088,-1.4088,-1.4088,-1.4088,-1.4088,-1.4088,-1.4088,-1.4088,-1.4088,-1.4088,-1.4088,-1.4088,-1.4088,-1.4088,-1.4088,-1.4088,-1.4088,-1.4088,-1.4088,-1.4088,-1.4382,-1.4816,-1.4977,-1.519,-1.5678,-1.5825,-1.5825,-1.5825,-1.5825,-1.5825,-1.5825,-1.5825,-1.5825,-1.5825,-1.5825,-1.5825,-1.5825,-1.5825,-1.5825,-1.5825,-1.5825,-1.5825,-1.5825,-1.5825,-1.5825,-1.5825,-1.5825,-1.5825,-1.5534,-1.4848,-1.4364,-1.4076,-1.3686,-1.3204,-1.2909,-1.2037,-1.097,-0.9604,-0.8428,-0.8038,-0.8038,-0.8038,-0.8038,-0.8038,-0.8038,-0.8038,-0.8038,-0.8038,-0.8038,0.7278,0.7139,0.7139,0.7139,0.7139,0.7139,0.7139,0.7139,0.7051,0.6782,0.58,0.4283,0.3213,0.2413,0.0,0.0,0.0,0.0,0.0,0.0,-0.0628,-0.197,-0.3575,-0.4287,-0.5267,-0.6337,-0.6874,-0.7051,-0.7139,-0.7139,-0.7139,-0.7139,-0.7139,-0.7753,-0.8803,-0.8978,-1.0009,-1.1815,-1.2328,-1.2857,-1.3997,-1.4088,-1.4088,-1.4088,-1.4088,-1.4088,-1.4088,-1.4088,-1.4088,-1.4088,-1.4088,-1.4088,-1.4088,-1.4088,-1.4088,-1.4088,-1.4088,-1.4088,-1.4088,-1.4088,-1.4088,-1.4088,-1.4088,-1.4088,-1.4088,-1.4095,-1.4329,-1.4863,-1.485,-1.5144,-1.5658,-1.5825,-1.5825,-1.5825,-1.5825,-1.5825,-1.5825,-1.5825,-1.5825,-1.5825,-1.5825,-1.5825,-1.5825,-1.5825,-1.5825,-1.5825,-1.5825,-1.5825,-1.5825,-1.5825,-1.5825,-1.5825,-1.5629,-1.5439,-1.4949,-1.4172,-1.3102,-1.2813,-1.2134,-1.1648,-1.1356,-1.0872,-1.019,-0.9213,-0.8428,-0.8038,-0.8038,-0.8038,-0.8038,-0.8038,-0.8038,-0.8038,-0.8038,-0.8038,-0.8038,0.7265,0.7139,0.7139,0.7139,0.7139,0.7139,0.7139,0.7139,0.7139,0.7051,0.6514,0.455,0.357,0.3481,0.0,0.0,0.0,0.0,0.0,-0.0628,-0.1344,-0.2415,-0.304,-0.3929,-0.4821,-0.5891,-0.6694,-0.7051,-0.7139,-0.7139,-0.7139,-0.7228,-0.7228,-0.8017,-0.9148,-0.9405,-1.0524,-1.2248,-1.2681,-1.3118,-1.3906,-1.4088,-1.4088,-1.4088,-1.4088,-1.4088,-1.4088,-1.4088,-1.4088,-1.4088,-1.4088,-1.4088,-1.4088,-1.4088,-1.4088,-1.4088,-1.4088,-1.4088,-1.4088,-1.4088,-1.4088,-1.4088,-1.4088,-1.4088,-1.4088,-1.4095,-1.4309,-1.4816,-1.4669,-1.4977,-1.5551,-1.5765,-1.5792,-1.5805,-1.5825,-1.5825,-1.5825,-1.5825,-1.5825,-1.5825,-1.5825,-1.5825,-1.5825,-1.5825,-1.5825,-1.5825,-1.5825,-1.5825,-1.5825,-1.5825,-1.5825,-1.5825,-1.5439,-1.5051,-1.4364,-1.3584,-1.2328,-1.1453,-1.048,-0.9993,-0.9998,-0.9509,-0.9118,-0.8531,-0.8137,-0.8038,-0.8038,-0.8038,-0.8038,-0.8038,-0.8038,-0.8038,-0.8038,-0.8038,-0.8038,0.7173,0.7139,0.7139,0.7139,0.7139,0.7139,0.7139,0.7139,0.7051,0.7051,0.6514,0.4639,0.357,0.3392,0.0,0.0,0.0,0.0,0.0,-0.1522,-0.2681,-0.3751,-0.4376,-0.491,-0.5622,-0.6517,-0.6962,-0.7139,-0.7139,-0.7139,-0.7139,-0.7228,-0.8013,-0.9061,-1.0096,-1.095,-1.2248,-1.347,-1.3646,-1.373,-1.3906,-1.4088,-1.4088,-1.4088,-1.4088,-1.4088,-1.4088,-1.4088,-1.4088,-1.4088,-1.4088,-1.4088,-1.4088,-1.4088,-1.4088,-1.4088,-1.4088,-1.4088,-1.4088,-1.4088,-1.4088,-1.4088,-1.4088,-1.4088,-1.4088,-1.4088,-1.4255,-1.4536,-1.4576,-1.4796,-1.5331,-1.5478,-1.5591,-1.5725,-1.5798,-1.5812,-1.5825,-1.5825,-1.5825,-1.5825,-1.5825,-1.5825,-1.5825,-1.5825,-1.5825,-1.5825,-1.5825,-1.5825,-1.5825,-1.5825,-1.5825,-1.5825,-1.5045,-1.4465,-1.3494,-1.2619,-1.1453,-1.0872,-1.0092,-0.9604,-0.9608,-0.9217,-0.9118,-0.8627,-0.8038,-0.8038,-0.8038,-0.8038,-0.8038,-0.8038,-0.8038,-0.8038,-0.8038,-0.8038,-0.8038,0.7207,0.7143,0.7139,0.7139,0.7139,0.7139,0.7139,0.6962,0.6517,0.6337,0.5802,0.3838,0.2771,0.2592,0.0897,0.0,-0.0897,-0.1523,-0.2326,-0.3395,-0.4285,-0.5087,-0.598,-0.6248,-0.6605,-0.7051,-0.7139,-0.7139,-0.7139,-0.7139,-0.7139,-0.7228,-0.8277,-0.9405,-1.0611,-1.1729,-1.2851,-1.3822,-1.4088,-1.4088,-1.4088,-1.4088,-1.4088,-1.4088,-1.4088,-1.4088,-1.4088,-1.4088,-1.4088,-1.4088,-1.4088,-1.4088,-1.4088,-1.4088,-1.4088,-1.4088,-1.4088,-1.4088,-1.4088,-1.4088,-1.4088,-1.4088,-1.4088,-1.4088,-1.4088,-1.4088,-1.4229,-1.4402,-1.4442,-1.4509,-1.493,-1.515,-1.5324,-1.5551,-1.5631,-1.5678,-1.5785,-1.5825,-1.5825,-1.5825,-1.5825,-1.5825,-1.5825,-1.5825,-1.5825,-1.5825,-1.5825,-1.5825,-1.5825,-1.5825,-1.5825,-1.5534,-1.4561,-1.3686,-1.2716,-1.1648,-1.0485,-1.0386,-1.0583,-1.0485,-1.0681,-1.019,-0.9604,-0.9015,-0.8428,-0.8038,-0.8038,-0.8038,-0.8038,-0.8038,-0.8038,-0.8038,-0.8038,-0.8038,-0.8038,0.7261,0.7139,0.7139,0.7139,0.7139,0.7139,0.6962,0.6694,0.5805,0.5356,0.4734,0.2683,0.1968,0.1522,0.0269,-0.0986,-0.2147,-0.3217,-0.4196,-0.4912,-0.5445,-0.6068,-0.6786,-0.6962,-0.6962,-0.7139,-0.7139,-0.7139,-0.7139,-0.7139,-0.7316,-0.7577,-0.8623,-0.9923,-1.095,-1.1992,-1.3118,-1.3997,-1.4088,-1.4088,-1.4088,-1.4088,-1.4088,-1.4088,-1.4088,-1.4088,-1.4088,-1.4088,-1.4088,-1.4088,-1.4088,-1.4088,-1.4088,-1.4088,-1.4088,-1.4088,-1.4088,-1.4088,-1.4088,-1.4088,-1.4088,-1.4088,-1.4088,-1.4088,-1.4088,-1.4095,-1.4195,-1.4262,-1.4295,-1.4255,-1.4502,-1.475,-1.503,-1.5264,-1.5364,-1.5518,-1.5698,-1.5792,-1.5825,-1.5825,-1.5825,-1.5825,-1.5825,-1.5825,-1.5825,-1.5825,-1.5825,-1.5825,-1.5825,-1.5825,-1.5825,-1.5146,-1.4172,-1.2716,-1.1648,-1.1551,-1.0194,-1.0681,-1.1165,-1.1361,-1.1653,-1.1165,-1.0386,-0.9505,-0.8916,-0.8627,-0.8333,-0.8233,-0.8237,-0.8137,-0.8137,-0.8137,-0.8134,-0.8134,-0.8038,0.7166,0.7139,0.7139,0.7139,0.7139,0.7139,0.6514,0.5714,0.5447,0.4821,0.3749,0.2413,0.17,0.1163,-0.0626,-0.2147,-0.3304,-0.4552,-0.5267,-0.5714,-0.6248,-0.6962,-0.7051,-0.7139,-0.7139,-0.7139,-0.7139,-0.7139,-0.7139,-0.7139,-0.758,-0.854,-0.9662,-1.0783,-1.1906,-1.3118,-1.373,-1.3997,-1.4088,-1.4088,-1.4088,-1.4088,-1.4088,-1.4088,-1.4088,-1.4088,-1.4088,-1.4088,-1.4088,-1.4088,-1.4088,-1.4088,-1.4088,-1.4088,-1.4088,-1.4088,-1.4088,-1.4088,-1.4088,-1.4088,-1.4088,-1.4088,-1.4088,-1.4088,-1.4088,-1.4088,-1.4135,-1.4142,-1.4168,-1.4202,-1.4489,-1.4563,-1.473,-1.4983,-1.5204,-1.5384,-1.5504,-1.5651,-1.5798,-1.5818,-1.5825,-1.5825,-1.5825,-1.5825,-1.5825,-1.5825,-1.5825,-1.5825,-1.5825,-1.5825,-1.5825,-1.4854,-1.359,-1.2037,-1.0485,-1.0779,-1.0587,-1.1556,-1.2037,-1.2237,-1.2334,-1.1945,-1.1361,-1.1161,-1.0382,-0.9801,-0.941,-0.892,-0.9019,-0.941,-0.9019,-0.8428,-0.8627,-0.8726,-0.8038,0.7139,0.7139,0.7139,0.7139,0.6962,0.6428,0.5891,0.5267,0.4109,0.3218,0.2415,0.1433,0.0448,-0.0268,-0.1073,-0.2771,-0.4465,-0.5714,-0.6248,-0.6517,-0.6871,-0.7139,-0.7139,-0.7139,-0.7139,-0.7139,-0.7139,-0.7139,-0.7139,-0.7139,-0.7841,-0.8886,-1.0005,-1.1123,-1.2328,-1.3379,-1.3997,-1.4088,-1.4088,-1.4088,-1.4088,-1.4088,-1.4088,-1.4088,-1.4088,-1.4088,-1.4088,-1.4088,-1.4088,-1.4088,-1.4088,-1.4088,-1.4088,-1.4088,-1.4088,-1.4088,-1.4088,-1.4088,-1.4088,-1.4088,-1.4088,-1.4088,-1.4088,-1.4088,-1.4088,-1.4088,-1.4088,-1.4088,-1.4088,-1.4135,-1.4275,-1.4309,-1.4442,-1.4676,-1.489,-1.5097,-1.5337,-1.5518,-1.5665,-1.5792,-1.5818,-1.5825,-1.5825,-1.5825,-1.5825,-1.5825,-1.5825,-1.5825,-1.5825,-1.5825,-1.5825,-1.4949,-1.3884,-1.2716,-1.1453,-1.1453,-1.1653,-1.2522,-1.3204,-1.3403,-1.3596,-1.3494,-1.3788,-1.3884,-1.2915,-1.1361,-1.0877,-1.0583,-1.0681,-1.0685,-0.9998,-0.9509,-0.941,-0.9213,-0.8726,0.7139,0.7139,0.7139,0.7139,0.6962,0.5891,0.5267,0.4643,0.2772,0.1701,0.1343,0.0449,-0.0628,-0.1701,-0.2504,-0.3753,-0.5716,-0.6694,-0.6962,-0.6962,-0.7051,-0.7139,-0.7143,-0.7404,-0.7577,-0.7749,-0.8097,-0.7485,-0.7139,-0.7139,-0.7925,-0.9139,-1.0265,-1.1386,-1.2687,-1.3646,-1.3997,-1.4088,-1.4088,-1.4088,-1.4088,-1.4088,-1.4088,-1.4088,-1.4088,-1.4088,-1.4088,-1.4088,-1.4088,-1.4088,-1.4088,-1.4088,-1.4088,-1.4088,-1.4088,-1.4088,-1.4088,-1.4088,-1.4088,-1.4088,-1.4088,-1.4088,-1.4088,-1.4088,-1.4088,-1.4088,-1.4088,-1.4088,-1.4088,-1.4088,-1.4128,-1.4102,-1.4208,-1.4376,-1.4529,-1.471,-1.5124,-1.5398,-1.5591,-1.5705,-1.5785,-1.5825,-1.5825,-1.5825,-1.5825,-1.5825,-1.5825,-1.5825,-1.5825,-1.5825,-1.5635,-1.5146,-1.4268,-1.3488,-1.2904,-1.3006,-1.3295,-1.3974,-1.4561,-1.4854,-1.5146,-1.5343,-1.5439,-1.5146,-1.4465,-1.3108,-1.2721,-1.2139,-1.1848,-1.1458,-1.0877,-1.0877,-1.1161,-1.0676,-0.9899,0.7139,0.7139,0.7139,0.7139,0.6962,0.5805,0.473,0.3748,0.2324,0.1165,0.0359,0.0,-0.0807,-0.2237,-0.4198,-0.5625,-0.6605,-0.6962,-0.7139,-0.7139,-0.7139,-0.7228,-0.7316,-0.8277,-0.8536,-0.8707,-0.9575,-0.8877,-0.7921,-0.7489,-0.8444,-1.0091,-1.0697,-1.1649,-1.3476,-1.3913,-1.4088,-1.4088,-1.4088,-1.4088,-1.4088,-1.4088,-1.4088,-1.4088,-1.4088,-1.4088,-1.4088,-1.4088,-1.4088,-1.4088,-1.4088,-1.4088,-1.4088,-1.4088,-1.4088,-1.4088,-1.4088,-1.4088,-1.4088,-1.4088,-1.4088,-1.4088,-1.4088,-1.4088,-1.4088,-1.4088,-1.4088,-1.4088,-1.4088,-1.4088,-1.4088,-1.4088,-1.4115,-1.4208,-1.4362,-1.4609,-1.4957,-1.5104,-1.5317,-1.5618,-1.5698,-1.5778,-1.5818,-1.5818,-1.5825,-1.5825,-1.5818,-1.5798,-1.5738,-1.5671,-1.5631,-1.5038,-1.4861,-1.4183,-1.3974,-1.4166,-1.4459,-1.514,-1.5439,-1.5825,-1.5825,-1.5825,-1.5825,-1.5439,-1.4949,-1.4561,-1.3884,-1.3397,-1.2915,-1.2624,-1.2328,-1.2716,-1.3295,-1.2425,-1.0974,0.7139,0.7139,0.7139,0.7139,0.6871,0.5174,0.4105,0.3303,0.1612,0.0539,-0.009,-0.0807,-0.2059,-0.3842,-0.5714,-0.6605,-0.7051,-0.7139,-0.7139,-0.7139,-0.7139,-0.7492,-0.8101,-0.8715,-0.9061,-0.9923,-1.0265,-1.0178,-0.9222,-0.9222,-1.0,-1.1203,-1.1638,-1.2339,-1.3997,-1.4088,-1.4088,-1.4088,-1.4088,-1.4088,-1.4088,-1.4088,-1.4088,-1.4088,-1.4088,-1.4088,-1.4088,-1.4088,-1.4088,-1.4088,-1.4088,-1.4088,-1.4088,-1.4088,-1.4088,-1.4088,-1.4088,-1.4088,-1.4088,-1.4088,-1.4088,-1.4088,-1.4088,-1.4088,-1.4088,-1.4088,-1.4088,-1.4088,-1.4088,-1.4088,-1.4088,-1.4088,-1.4088,-1.4142,-1.4235,-1.4442,-1.4669,-1.4776,-1.497,-1.5304,-1.5591,-1.5625,-1.5678,-1.5705,-1.5671,-1.5618,-1.5571,-1.5504,-1.5391,-1.5257,-1.518,-1.5058,-1.4997,-1.4935,-1.4968,-1.514,-1.514,-1.5534,-1.5534,-1.5825,-1.5825,-1.5825,-1.5825,-1.5825,-1.5534,-1.5146,-1.4854,-1.4657,-1.437,-1.4172,-1.3884,-1.407,-1.407,-1.2909,-1.175,0.7139,0.7139,0.7139,0.7139,0.6871,0.4641,0.357,0.3303,0.1075,0.0,0.0,-0.1522,-0.3484,-0.5267,-0.6425,-0.7051,-0.7139,-0.7139,-0.7139,-0.7139,-0.7228,-0.7841,-0.8627,-0.9148,-1.0009,-1.1042,-1.1649,-1.1563,-1.1558,-1.1472,-1.1815,-1.2322,-1.2151,-1.2942,-1.3737,-1.4088,-1.4088,-1.4088,-1.4088,-1.4088,-1.4088,-1.4088,-1.4088,-1.4088,-1.4088,-1.4088,-1.4088,-1.4088,-1.4088,-1.4088,-1.4088,-1.4088,-1.4088,-1.4088,-1.4088,-1.4088,-1.4088,-1.4088,-1.4088,-1.4088,-1.4088,-1.4088,-1.4088,-1.4088,-1.4088,-1.4088,-1.4088,-1.4088,-1.4088,-1.4088,-1.4088,-1.4088,-1.4088,-1.4088,-1.4115,-1.4282,-1.4442,-1.4576,-1.4756,-1.5077,-1.5311,-1.5371,-1.5431,-1.5524,-1.5511,-1.5431,-1.5337,-1.5224,-1.509,-1.4937,-1.4973,-1.4996,-1.5133,-1.5186,-1.5304,-1.5516,-1.5752,-1.5805,-1.5805,-1.5812,-1.5805,-1.5818,-1.5825,-1.5825,-1.5825,-1.5635,-1.5337,-1.5629,-1.573,-1.5242,-1.4758,-1.4561,-1.4172,-1.3204,-1.2915,0.7139,0.7139,0.7139,0.7139,0.6959,0.4639,0.357,0.3392,0.1076,0.0,0.0,-0.2325,-0.4105,-0.5445,-0.6514,-0.7139,-0.7139,-0.7139,-0.7139,-0.7139,-0.7228,-0.7841,-0.8798,-0.984,-1.0956,-1.2072,-1.2772,-1.3385,-1.3646,-1.3215,-1.2948,-1.2504,-1.2589,-1.3203,-1.3737,-1.4088,-1.4088,-1.4088,-1.4088,-1.4088,-1.4088,-1.4088,-1.4088,-1.4088,-1.4088,-1.4088,-1.4088,-1.4088,-1.4088,-1.4088,-1.4088,-1.4088,-1.4088,-1.4088,-1.4088,-1.4088,-1.4088,-1.4088,-1.4088,-1.4088,-1.4088,-1.4088,-1.4088,-1.4088,-1.4088,-1.4088,-1.4088,-1.4088,-1.4088,-1.4088,-1.4088,-1.4088,-1.4088,-1.4088,-1.4102,-1.4202,-1.4335,-1.4416,-1.4609,-1.4883,-1.5023,-1.5077,-1.517,-1.5264,-1.5224,-1.5137,-1.501,-1.4897,-1.4863,-1.4763,-1.4856,-1.4927,-1.5133,-1.5239,-1.5319,-1.5511,-1.5618,-1.5691,-1.5718,-1.5752,-1.5772,-1.5792,-1.5825,-1.5825,-1.5825,-1.5825,-1.5825,-1.5825,-1.5825,-1.5825,-1.5629,-1.5242,-1.5146,-1.4657,-1.4663,0.7139,0.7139,0.7139,0.7139,0.6959,0.4639,0.357,0.3213,0.1076,-0.0897,-0.2236,-0.3304,-0.4639,-0.6157,-0.6782,-0.7139,-0.7139,-0.7139,-0.7139,-0.7139,-0.7228,-0.7841,-0.8886,-1.0009,-1.1214,-1.2334,-1.347,-1.4088,-1.3997,-1.4088,-1.3913,-1.347,-1.3294,-1.3639,-1.3997,-1.4088,-1.4088,-1.4088,-1.4088,-1.4088,-1.4088,-1.4088,-1.4088,-1.4088,-1.4088,-1.4088,-1.4088,-1.4088,-1.4088,-1.4088,-1.4088,-1.4088,-1.4088,-1.4088,-1.4088,-1.4088,-1.4088,-1.4088,-1.4088,-1.4088,-1.4088,-1.4088,-1.4088,-1.4088,-1.4088,-1.4088,-1.4088,-1.4088,-1.4088,-1.4088,-1.4088,-1.4088,-1.4088,-1.4088,-1.4115,-1.4175,-1.4229,-1.4295,-1.4396,-1.4636,-1.473,-1.479,-1.4897,-1.5003,-1.4923,-1.483,-1.4696,-1.4589,-1.4556,-1.4543,-1.4603,-1.4703,-1.4897,-1.5044,-1.5124,-1.5297,-1.5484,-1.5545,-1.5591,-1.5598,-1.5611,-1.5792,-1.5818,-1.5825,-1.5798,-1.5778,-1.5778,-1.5812,-1.5825,-1.5825,-1.5825,-1.573,-1.573,-1.5825,-1.5825,0.7139,0.7051,0.6694,0.6605,0.6337,0.4461,0.3392,0.2771,0.0896,-0.1344,-0.357,-0.3659,-0.4905,-0.6602,-0.7139,-0.7139,-0.7139,-0.7139,-0.7139,-0.7139,-0.7228,-0.7841,-0.8798,-0.9749,-1.0697,-1.2072,-1.3027,-1.3555,-1.4088,-1.4088,-1.3997,-1.3997,-1.4088,-1.4082,-1.4082,-1.4088,-1.4088,-1.4088,-1.4088,-1.4088,-1.4088,-1.4088,-1.4088,-1.4088,-1.4088,-1.4088,-1.4088,-1.4088,-1.4088,-1.4088,-1.4088,-1.4088,-1.4088,-1.4088,-1.4088,-1.4088,-1.4088,-1.4088,-1.4082,-1.4088,-1.4088,-1.4088,-1.4088,-1.4088,-1.4088,-1.4088,-1.4088,-1.4088,-1.4088,-1.4088,-1.4088,-1.4088,-1.4088,-1.4088,-1.4088,-1.4128,-1.4128,-1.4175,-1.4249,-1.4369,-1.4422,-1.4462,-1.4502,-1.4603,-1.4663,-1.4569,-1.4456,-1.4349,-1.4289,-1.4275,-1.4282,-1.4396,-1.4543,-1.4676,-1.4796,-1.5023,-1.5224,-1.5231,-1.5277,-1.5317,-1.5384,-1.5558,-1.5598,-1.5464,-1.5484,-1.5645,-1.5718,-1.5732,-1.5778,-1.5825,-1.5825,-1.5825,-1.5825,-1.5825,-1.5825,0.7136,0.6962,0.5977,0.5442,0.526,0.4105,0.2948,0.1878,0.0448,-0.1433,-0.3481,-0.3749,-0.4994,-0.6691,-0.7139,-0.7139,-0.7139,-0.7139,-0.7139,-0.7139,-0.7139,-0.7841,-0.8452,-0.9231,-1.0178,-1.1809,-1.2589,-1.3203,-1.4088,-1.4088,-1.4088,-1.4088,-1.4088,-1.4088,-1.4088,-1.4088,-1.4088,-1.4088,-1.4088,-1.4088,-1.4088,-1.4088,-1.4088,-1.4088,-1.4088,-1.4088,-1.4088,-1.4088,-1.4088,-1.4088,-1.4088,-1.4088,-1.4088,-1.4088,-1.4088,-1.4088,-1.4088,-1.4082,-1.4068,-1.4068,-1.4028,-1.4068,-1.4088,-1.4088,-1.4088,-1.4088,-1.4088,-1.4088,-1.4088,-1.4088,-1.4088,-1.4088,-1.4088,-1.4088,-1.4088,-1.4088,-1.4088,-1.4088,-1.4168,-1.4215,-1.4148,-1.4115,-1.4122,-1.4175,-1.4322,-1.4309,-1.4202,-1.4128,-1.4095,-1.4102,-1.4128,-1.4188,-1.4322,-1.4396,-1.4549,-1.4796,-1.495,-1.495,-1.4997,-1.5064,-1.5084,-1.515,-1.5144,-1.507,-1.5302,-1.549,-1.5624,-1.5725,-1.6376,-1.6929,-1.6008,-1.5825,-1.5825,-1.6015,-1.6197,0.7085,0.6914,0.586,0.4812,0.3946,0.2843,0.2147,0.1521,-0.0269,-0.2147,-0.3571,-0.4374,-0.5531,-0.6694,-0.7132,-0.7132,-0.7139,-0.7139,-0.7139,-0.7139,-0.7139,-0.7312,-0.7837,-0.8623,-0.9662,-1.1037,-1.1815,-1.2857,-1.4088,-1.4088,-1.4088,-1.4088,-1.4088,-1.4088,-1.4088,-1.4088,-1.4088,-1.4088,-1.4088,-1.4088,-1.4088,-1.4088,-1.4088,-1.4088,-1.4088,-1.4088,-1.4088,-1.4088,-1.4088,-1.4088,-1.4088,-1.4088,-1.4088,-1.4088,-1.4088,-1.4088,-1.4082,-1.3981,-1.3801,-1.3681,-1.3721,-1.3901,-1.4055,-1.4055,-1.4088,-1.4088,-1.4088,-1.4088,-1.4088,-1.4088,-1.4088,-1.4082,-1.4082,-1.4088,-1.4088,-1.4088,-1.4088,-1.4088,-1.4115,-1.4122,-1.4088,-1.4088,-1.4088,-1.4088,-1.4188,-1.4215,-1.4135,-1.4115,-1.4088,-1.4088,-1.4102,-1.4108,-1.4168,-1.4195,-1.4309,-1.4536,-1.4576,-1.4522,-1.4689,-1.489,-1.4883,-1.4803,-1.5034,-1.515,-1.5197,-1.5429,-1.6183,-1.7026,-1.7934,-1.8126,-1.7296,-1.7117,-1.7569,-1.749,-1.7225,0.644,0.6236,0.4758,0.3617,0.2753,0.2105,0.1421,0.0447,-0.1163,-0.2683,-0.4107,-0.5087,-0.5983,-0.6773,-0.7092,-0.7115,-0.7126,-0.7512,-0.7207,-0.7298,-0.7577,-0.7577,-0.7665,-0.8006,-0.9139,-1.0341,-1.1375,-1.2419,-1.3997,-1.4088,-1.4088,-1.4088,-1.4088,-1.4088,-1.4088,-1.4088,-1.4088,-1.4088,-1.4088,-1.4088,-1.4088,-1.4088,-1.4088,-1.4088,-1.4088,-1.4088,-1.4088,-1.4088,-1.4088,-1.4088,-1.4088,-1.4082,-1.4082,-1.4082,-1.4082,-1.4088,-1.3955,-1.3794,-1.352,-1.338,-1.3474,-1.3674,-1.3854,-1.3981,-1.4055,-1.4088,-1.4088,-1.4088,-1.4088,-1.4412,-1.4573,-1.4489,-1.465,-1.465,-1.465,-1.4734,-1.4334,-1.4334,-1.4334,-1.425,-1.4334,-1.425,-1.4166,-1.4088,-1.4115,-1.4108,-1.4088,-1.4166,-1.4166,-1.4088,-1.4088,-1.4088,-1.4095,-1.4128,-1.4168,-1.4255,-1.4249,-1.4108,-1.4329,-1.4616,-1.4543,-1.4442,-1.4831,-1.5203,-1.5535,-1.622,-1.7415,-1.8398,-1.9085,-1.9133,-1.858,-1.8764,-1.9405,-1.9047,-1.8411,0.538,0.5023,0.277,0.1881,0.1772,0.1546,0.0263,-0.1693,-0.1871,-0.3203,-0.5336,-0.532,-0.6101,-0.6896,-0.6976,-0.6983,-0.7131,-0.7975,-0.7673,-0.757,-0.7993,-0.7676,-0.7421,-0.7592,-0.8927,-1.0005,-1.1048,-1.2169,-1.386,-1.4088,-1.4088,-1.4088,-1.4088,-1.4088,-1.4088,-1.4088,-1.4088,-1.4088,-1.4088,-1.4088,-1.4088,-1.4088,-1.4088,-1.4088,-1.4088,-1.4088,-1.4088,-1.4088,-1.4088,-1.4088,-1.4088,-1.4075,-1.4062,-1.4062,-1.4068,-1.3961,-1.3734,-1.3447,-1.324,-1.3126,-1.3133,-1.3273,-1.3447,-1.3721,-1.3935,-1.4001,-1.4015,-1.4223,-1.4328,-1.4894,-1.5379,-1.5538,-1.5703,-1.5786,-1.5786,-1.5379,-1.4734,-1.4657,-1.4664,-1.4657,-1.4741,-1.4657,-1.4573,-1.4489,-1.4901,-1.5068,-1.5068,-1.4817,-1.4657,-1.4166,-1.4173,-1.4088,-1.4088,-1.4088,-1.4122,-1.4247,-1.4148,-1.4088,-1.4173,-1.4354,-1.4168,-1.4578,-1.5198,-1.5731,-1.6122,-1.6939,-1.8275,-1.9163,-1.9909,-1.9869,-1.9923,-2.0215,-2.0863,-2.0124,-1.9579,0.4854,0.3804,0.2385,0.177,0.1427,0.0,-0.1019,-0.1708,-0.2477,-0.3757,-0.5122,-0.5975,-0.6515,-0.6817,-0.6783,-0.68,-0.6972,-0.7042,-0.7038,-0.733,-0.7966,-0.7594,-0.759,-0.8106,-0.9239,-1.0068,-1.1007,-1.2017,-1.3444,-1.3928,-1.4068,-1.4088,-1.4075,-1.4082,-1.4088,-1.4088,-1.4088,-1.4088,-1.4088,-1.4088,-1.4166,-1.4166,-1.4166,-1.4088,-1.425,-1.4166,-1.4082,-1.4088,-1.4082,-1.4068,-1.4075,-1.4021,-1.3774,-1.3761,-1.3721,-1.3447,-1.3193,-1.2946,-1.2859,-1.2685,-1.2665,-1.2846,-1.2986,-1.33,-1.3581,-1.3808,-1.3881,-1.4169,-1.4566,-1.5137,-1.5869,-1.6273,-1.6593,-1.6838,-1.6838,-1.6519,-1.5959,-1.5801,-1.5801,-1.5801,-1.5794,-1.5628,-1.547,-1.5794,-1.6206,-1.6288,-1.6206,-1.5794,-1.5311,-1.4741,-1.4166,-1.4166,-1.4412,-1.4496,-1.4334,-1.4368,-1.4186,-1.4088,-1.4412,-1.4734,-1.5166,-1.5499,-1.5884,-1.6531,-1.7433,-1.8203,-1.9134,-1.9951,-2.0734,-2.1593,-2.1867,-2.2017,-2.1952,-2.1212,-2.0755,0.3485,0.256,0.1085,0.0412,0.0082,-0.1061,-0.1795,-0.2371,-0.3406,-0.4522,-0.5613,-0.6373,-0.6698,-0.6702,-0.6654,-0.6647,-0.6791,-0.7301,-0.7297,-0.7051,-0.7823,-0.7454,-0.7683,-0.8315,-0.9159,-1.0019,-1.1003,-1.2103,-1.3183,-1.3741,-1.3901,-1.3908,-1.3988,-1.4068,-1.4088,-1.4088,-1.4088,-1.4088,-1.4088,-1.4088,-1.425,-1.4496,-1.4489,-1.4328,-1.4405,-1.4489,-1.4166,-1.4166,-1.4035,-1.3941,-1.3908,-1.3768,-1.3534,-1.3467,-1.3333,-1.3086,-1.2919,-1.2726,-1.2592,-1.2438,-1.2445,-1.2512,-1.2599,-1.2919,-1.33,-1.3601,-1.3821,-1.4092,-1.4706,-1.5304,-1.6116,-1.6927,-1.7415,-1.79,-1.7819,-1.7738,-1.7496,-1.7261,-1.718,-1.718,-1.7017,-1.6764,-1.6846,-1.718,-1.7261,-1.7017,-1.6854,-1.669,-1.6124,-1.5553,-1.4741,-1.4166,-1.4573,-1.4901,-1.4817,-1.4901,-1.5228,-1.547,-1.5711,-1.6034,-1.6273,-1.6519,-1.6927,-1.7878,-1.8959,-1.9578,-2.0024,-2.086,-2.1611,-2.2408,-2.2867,-2.2688,-2.2572,-2.2403,-2.2031,0.1708,0.1339,-0.0819,-0.1605,-0.1728,-0.1886,-0.2433,-0.3295,-0.4491,-0.5576,-0.648,-0.6654,-0.663,-0.658,-0.6508,-0.6525,-0.6785,-0.7217,-0.7144,-0.674,-0.8044,-0.7955,-0.7566,-0.8106,-0.9687,-1.0317,-1.1067,-1.2211,-1.2969,-1.344,-1.3614,-1.3546,-1.3814,-1.3921,-1.3968,-1.3975,-1.4001,-1.4075,-1.4273,-1.4406,-1.4636,-1.4977,-1.5379,-1.481,-1.5054,-1.5296,-1.4489,-1.4112,-1.3948,-1.3754,-1.3614,-1.352,-1.328,-1.3093,-1.2926,-1.2826,-1.2672,-1.2559,-1.2432,-1.2331,-1.2318,-1.2331,-1.2325,-1.2659,-1.3039,-1.3394,-1.3641,-1.4149,-1.4727,-1.5379,-1.6198,-1.6927,-1.7585,-1.8149,-1.847,-1.855,-1.8621,-1.8381,-1.823,-1.8301,-1.8301,-1.806,-1.7819,-1.8069,-1.863,-1.806,-1.79,-1.79,-1.7261,-1.6601,-1.5876,-1.4985,-1.5304,-1.5876,-1.5959,-1.6206,-1.669,-1.7017,-1.709,-1.7253,-1.7407,-1.7658,-1.798,-1.8922,-1.9869,-2.0327,-2.0866,-2.1348,-2.1853,-2.2639,-2.2978,-2.3057,-2.314,-2.3365,-2.3357,0.0758,-0.092,-0.2207,-0.2715,-0.2818,-0.3595,-0.4062,-0.4377,-0.5454,-0.606,-0.6366,-0.6373,-0.638,-0.6386,-0.6359,-0.6369,-0.6516,-0.677,-0.6577,-0.7081,-0.8108,-0.8225,-0.8242,-0.9529,-1.0642,-1.0971,-1.1532,-1.2298,-1.2809,-1.3126,-1.3313,-1.332,-1.3474,-1.3574,-1.3741,-1.3754,-1.3821,-1.3941,-1.4324,-1.4817,-1.5262,-1.5508,-1.5786,-1.5861,-1.6265,-1.5696,-1.5047,-1.4461,-1.4054,-1.3707,-1.3661,-1.3367,-1.2906,-1.2672,-1.2518,-1.2425,-1.2445,-1.2385,-1.2351,-1.2305,-1.2305,-1.2305,-1.2351,-1.2545,-1.2812,-1.3126,-1.3548,-1.409,-1.4734,-1.5379,-1.6198,-1.6935,-1.7747,-1.8479,-1.9045,-1.9274,-1.9511,-1.9432,-1.9274,-1.9353,-1.9432,-1.9186,-1.8868,-1.9116,-1.9599,-1.9835,-1.9835,-1.9678,-1.8877,-1.8221,-1.7738,-1.7009,-1.669,-1.6927,-1.709,-1.7415,-1.79,-1.79,-1.7738,-1.806,-1.847,-1.8868,-1.9274,-1.9844,-2.0537,-2.0732,-2.0859,-2.1074,-2.1688,-2.2605,-2.3453,-2.365,-2.4628,-2.5112,-2.4883,0.0,-0.1649,-0.2655,-0.3399,-0.391,-0.4453,-0.4688,-0.4924,-0.5867,-0.6261,-0.6261,-0.6261,-0.6261,-0.6261,-0.6261,-0.6261,-0.6261,-0.6261,-0.6359,-0.688,-0.7706,-0.803,-0.9064,-1.0496,-1.0749,-1.1093,-1.1855,-1.2445,-1.2605,-1.2826,-1.2999,-1.3026,-1.31,-1.3267,-1.344,-1.3467,-1.3534,-1.3661,-1.4153,-1.4823,-1.5797,-1.6429,-1.6589,-1.6934,-1.6652,-1.6137,-1.5306,-1.4615,-1.3872,-1.34,-1.3173,-1.2926,-1.2579,-1.2438,-1.2345,-1.2325,-1.2325,-1.2305,-1.2305,-1.2305,-1.2305,-1.2305,-1.2311,-1.2472,-1.2775,-1.3013,-1.3273,-1.3804,-1.4266,-1.4887,-1.6034,-1.6927,-1.8221,-1.9107,-1.9195,-1.9274,-1.9756,-2.0079,-2.0001,-2.0001,-2.0079,-2.0079,-1.9835,-1.9844,-2.0245,-2.0245,-2.0566,-2.0566,-1.9923,-1.952,-1.9116,-1.8789,-1.831,-1.8069,-1.8141,-1.8541,-1.9107,-1.8948,-1.855,-1.9036,-1.9599,-2.0079,-2.0566,-2.0566,-2.0566,-2.0586,-2.0732,-2.1115,-2.1708,-2.2628,-2.3536,-2.4339,-2.5529,-2.6531,-2.63,-0.097,-0.2094,-0.3153,-0.4062,-0.4844,-0.4921,-0.4921,-0.5079,-0.5864,-0.6261,-0.6261,-0.6261,-0.6261,-0.6261,-0.6261,-0.6261,-0.6261,-0.6261,-0.6261,-0.6641,-0.7629,-0.8161,-0.9064,-1.0115,-1.0864,-1.1465,-1.2003,-1.2231,-1.2371,-1.2579,-1.2705,-1.2752,-1.2906,-1.3106,-1.314,-1.316,-1.3213,-1.3353,-1.3759,-1.4455,-1.5806,-1.7414,-1.7458,-1.7324,-1.7103,-1.679,-1.5718,-1.4575,-1.3655,-1.31,-1.2726,-1.2518,-1.2405,-1.2331,-1.2325,-1.2305,-1.2305,-1.2305,-1.2305,-1.2305,-1.2305,-1.2305,-1.2305,-1.2412,-1.2708,-1.3006,-1.3192,-1.3661,-1.4125,-1.4775,-1.5913,-1.6846,-1.8132,-1.9423,-1.9353,-1.9441,-2.0089,-2.0576,-2.0566,-2.0489,-2.0566,-2.0566,-2.0566,-2.0566,-2.0576,-2.0576,-2.0576,-2.0576,-2.0489,-2.0245,-1.9923,-1.9678,-1.9441,-1.9274,-1.9274,-1.9432,-1.9923,-1.9923,-1.9678,-2.0245,-2.0576,-2.0576,-2.0576,-2.0576,-2.0576,-2.0644,-2.0934,-2.1332,-2.202,-2.291,-2.3985,-2.5077,-2.6082,-2.702,-2.7257,-0.2443,-0.4169,-0.5246,-0.5786,-0.5944,-0.5944,-0.6022,-0.6025,-0.618,-0.6261,-0.6261,-0.6261,-0.6261,-0.6261,-0.6261,-0.6261,-0.6261,-0.6335,-0.6257,-0.649,-0.8084,-0.8689,-0.9518,-1.0795,-1.1774,-1.2077,-1.215,-1.2231,-1.2305,-1.2371,-1.2405,-1.2438,-1.2432,-1.2619,-1.2903,-1.2936,-1.2919,-1.3121,-1.3537,-1.4199,-1.4752,-1.631,-1.8032,-1.8108,-1.7933,-1.7317,-1.6237,-1.4624,-1.3632,-1.2906,-1.2532,-1.2358,-1.2305,-1.2305,-1.2305,-1.2305,-1.2305,-1.2305,-1.2305,-1.2305,-1.2305,-1.2305,-1.2378,-1.2532,-1.2798,-1.301,-1.3509,-1.4265,-1.4721,-1.4981,-1.5792,-1.6078,-1.7163,-1.8859,-1.952,-1.9923,-2.0489,-2.0576,-2.0566,-2.0566,-2.0566,-2.0566,-2.0566,-2.0576,-2.0576,-2.0576,-2.0576,-2.0576,-2.0576,-2.0576,-2.0566,-2.0489,-2.0255,-2.0411,-2.0245,-2.0089,-2.0401,-2.0566,-2.0576,-2.0576,-2.0576,-2.0576,-2.0576,-2.0576,-2.0644,-2.0644,-2.1001,-2.1659,-2.2692,-2.3654,-2.4774,-2.5882,-2.6759,-2.7323,-2.7421]},{"header":{"parameterUnit":"m.s-1","parameterCategory":1,"la1":31.0,"la2":29.5877,"lo1":-88.7671,"lo2":-86.6584,"dy":0.0162,"dx":0.0185,"nx":115,"ny":88,"refTime":"2024-07-01T18:00:00:Z","depth":0,"parameterNumber":3,"parameterNumberName":"V-component_of_WINDS"},"data":[0.0,0.0,0.0,0.0,0.0,0.0,0.0,0.0,0.0,0.0,0.0,0.0,0.0,0.0,0.0,0.0,0.0,0.0,0.0,0.0,0.0,0.0,0.0,0.0,0.0,0.0,0.0,0.0,0.0,0.0,0.0,0.0,0.0,0.0,0.0,0.0,0.0,0.0,0.0,0.0,0.0,0.0,0.0,0.0,0.0,0.0,0.0,0.0,0.0,0.0,0.0,0.0,0.0,0.0,0.0,0.0,0.0,0.0,0.0,0.0,0.0,0.0,0.0,0.0,0.0,0.0,0.0,0.0,0.0,0.0,0.0,0.0,0.0,0.0,0.0,0.0,0.0,0.0,0.0,0.0,0.0,0.0,0.0,0.0,0.0,0.0,0.0,0.0,0.0,0.0,0.0,0.0,0.0,0.0,0.0,0.0,0.0,0.0,0.0,0.0,0.0,0.0,0.0,0.0,0.0,0.0,0.0,0.0,0.0,0.0,0.0,0.0,0.0,0.0,0.0,0.0,0.0,0.0,0.0,0.0,0.0,0.0,0.0,0.0,0.0,0.0,0.0,0.0,0.0,0.0,0.0,0.0,0.0,0.0,0.0,0.0,0.0,0.0,0.0,0.0,0.0,0.0,0.0,0.0,0.0,0.0,0.0,0.0,0.0,0.0,0.0,0.0,0.0,0.0,0.0,0.0,0.0,0.0,0.0,0.0,0.0,0.0,0.0,0.0,0.0,0.0,0.0,0.0,0.0,0.0,0.0,0.0,0.0,0.0,0.0,0.0,0.0,0.0,0.0,0.0,0.0,0.0,0.0,0.0,0.0,0.0,0.0,0.0,0.0,0.0,0.0,0.0,0.0,0.0,0.0,0.0,0.0,0.0,0.0,0.0,0.0,0.0,0.0,0.0,0.0,0.0,0.0,0.0,0.0,0.0,0.0,0.0,0.0,0.0,0.0,0.0,0.0,0.0,0.0,0.0,0.0,0.0,0.0,0.0,0.0,0.0,0.0,0.0,0.0,0.0,0.0,0.0,0.0,0.0,0.0,0.0,0.0,0.0,0.0,0.0,0.0,0.0,0.0,0.0,0.0,0.0,0.0,0.0,0.0,0.0,0.0,0.0,0.0,0.0,0.0,0.0,0.0,0.0,0.0,0.0,0.0,0.0,0.0,0.0,0.0,0.0,0.0,0.0,0.0,0.0,0.0,0.0,0.0,0.0,0.0,0.0,0.0,0.0,0.0,0.0,0.0,0.0,0.0,0.0,0.0,0.0,0.0,0.0,0.0,0.0,0.0,0.0,0.0,0.0,0.0,0.0,0.0,0.0,0.0,0.0,0.0,0.0,0.0,0.0,0.0,0.0,0.0,0.0,0.0,0.0,0.0,0.0,0.0,0.0,0.0,0.0,0.0,0.0,0.0,0.0,0.0,0.0,0.0,0.0,0.0,0.0,0.0,0.0,0.0,0.0,0.0,0.0,0.0,0.0,0.0,0.0,0.0,0.0,0.0,0.0,0.0,0.0,0.0,0.0,0.0,0.0,0.0,0.0,0.0,0.0,0.0,0.0,0.0,0.0,0.0,0.0,0.0,0.0,0.0,0.0,0.0,0.0,0.0,0.0,0.0,0.0,0.0,0.0,0.0,0.0,0.0,0.0,0.0,0.0,0.0,0.0,0.0,0.0,0.0,0.0,0.0,0.0,0.0,0.0,0.0,0.0,0.0,0.0,0.0,0.0,0.0,0.0,0.0,0.0,0.0,0.0,0.0,0.0,0.0,0.0,0.0,0.0,0.0,0.0,0.0,0.0,0.0,0.0,0.0,0.0,0.0,0.0,0.0,0.0,0.0,0.0,0.0,0.0,0.0,0.0,0.0,0.0,0.0,0.0,0.0,0.0,0.0,0.0,0.0,0.0,0.0,0.0,0.0,0.0,0.0,0.0,0.0,0.0,0.0,0.0,0.0,0.0,0.0,0.0,0.0,0.0,0.0,0.0,0.0,0.0,0.0,0.0,0.0,0.0,0.0,0.0,0.0,0.0,0.0,0.0,0.0,0.0,0.0,0.0,0.0,0.0,0.0,0.0,0.0,0.0,0.0,0.0,0.0,0.0,0.0,0.0,0.0,0.0,0.0,0.0,0.0,0.0,0.0,0.0,0.0,0.0,0.0,0.0,0.0,0.0,0.0,0.0,0.0,0.0,0.0,0.0,0.0,0.0,0.0,0.0,0.0,0.0,0.0,0.0,0.0,0.0,0.0,0.0,0.0,0.0,0.0,0.0,0.0,0.0,0.0,0.0,0.0,0.0,0.0,0.0,0.0,0.0,0.0,0.0,0.0,0.0,0.0,0.0,0.0,0.0,0.0,0.0,0.0,0.0,0.0,0.0,0.0,0.0,0.0,0.0,0.0,0.0,0.0,0.0,0.0,0.0,0.0,0.0,0.0,0.0,0.0,0.0,0.0,0.0,0.0,0.0,0.0,0.0,0.0,0.0,0.0,0.0,0.0,0.0,0.0,0.0,0.0,0.0,0.0,0.0,0.0,0.0,0.0,0.0,0.0,0.0,0.0,0.0,0.0,0.0,0.0,0.0,0.0,0.0,0.0,0.0,0.0,0.0,0.0,0.0,0.0,0.0,0.0,0.0,0.0,0.0,0.0,0.0,0.0,0.0,0.0,0.0,0.0,0.0,0.0,0.0,0.0,0.0,0.0,0.0,0.0,0.0,0.0,0.0,0.0,0.0,0.0,0.0,0.0,0.0,0.0,0.0,0.0,0.0,0.0,0.0,0.0,0.0,0.0,0.0,0.0,0.0,0.0,0.0,0.0,0.0,0.0,0.0,0.0,0.0,0.0,0.0,0.0,0.0,0.0,0.0,0.0,0.0,0.0,0.0,0.0,0.0,0.0,0.0,0.0,0.0,0.0,0.0,0.0,0.0,0.0,0.0,0.0,0.0,0.0,0.0,0.0,0.0,0.0,0.0,0.0,0.0,0.0,0.0,0.0,0.0,0.0,0.0,0.0,0.0,0.0,0.0,0.0,0.0,0.0,0.0,0.0,0.0,0.0,0.0,0.0,0.0,0.0,0.0,0.0,0.0,0.0,0.0,0.0,0.0,0.0,0.0,0.0,0.0,0.0,0.0,0.0,0.0,0.0,0.0,0.0,0.0,0.0,0.0,0.0,0.0,0.0,0.0,0.0,0.0,0.0,0.0,0.0,0.0,0.0,0.0,0.0,0.0,0.0,0.0,0.0,0.0,0.0,0.0,0.0,0.0,0.0,0.0,0.0,0.0,0.0,0.0,0.0,0.0,0.0,0.0,0.0,0.0,0.0,0.0,0.0,0.0,0.0,0.0,0.0,0.0,0.0,0.0,0.0,0.0,0.0,0.0,0.0,0.0,0.0,0.0,0.0,0.0,0.0,0.0,0.0,0.0,0.0,0.0,0.0,0.0,0.0,0.0,0.0,0.0,0.0,0.0,0.0,0.0,0.0,0.0,0.0,0.0,0.0,0.0,0.0,0.0,0.0,0.0,0.0,0.0,0.0,0.0,0.0,0.0,0.0,0.0,0.0,0.0,0.0,0.0,0.0,0.0,0.0,0.0,0.0,0.0,0.0,0.0,0.0,0.0,0.0,0.0,0.0,0.0,0.0,0.0,0.0,0.0,0.0,0.0,0.0,0.0,0.0,0.0,0.0,0.0,0.0,0.0,0.0,0.0,0.0,0.0,0.0,0.0,0.0,0.0,0.0,0.0,0.0,0.0,0.0,0.0,0.0,0.0,0.0,0.0,0.0,0.0,0.0,0.0,0.0,0.0,0.0,0.0,0.0,0.0,0.0,0.0,0.0,0.0,0.0,0.0,0.0,0.0,0.0,0.0,0.0,0.0,0.0,0.0,0.0,0.0,0.0,0.0,0.0,0.0,0.0,0.0,0.0,0.0,0.0,0.0,0.0,0.0,0.0,0.0,0.0,0.0,0.0,0.0,0.0,0.0,0.0,0.0,0.0,0.0,0.0,0.0,0.0,0.0,0.0,0.0,0.0,0.0,0.0,0.0,0.0,0.0,0.0,0.0,0.0,0.0,0.0,0.0,0.0,0.0,0.0,0.0,0.0,0.0,0.0,0.0,0.0,0.0,0.0,0.0,0.0,0.0,0.0,0.0,0.0,0.0,0.0,0.0,0.0,0.0,0.0,0.0,0.0,0.0,0.0,0.0,0.0,0.0,0.0,0.0,0.0,0.0,0.0,0.0,0.0,0.0,0.0,0.0,0.0,0.0,0.0,0.0,0.0,0.0,2.5284,0.0,0.0,0.0,0.0,0.0,0.0,0.0,0.0,0.0,0.0,0.0,0.0,0.0,0.0,0.0,0.0,0.0,0.0,0.0,0.0,0.0,0.0,0.0,0.0,0.0,0.0,0.0,0.0,0.0,0.0,0.0,0.0,0.0,0.0,0.0,0.0,0.0,0.0,0.0,0.0,0.0,0.0,0.0,0.0,0.0,0.0,0.0,0.0,0.0,0.0,0.0,0.0,0.0,0.0,0.0,0.0,0.0,0.0,0.0,0.0,0.0,0.0,0.0,0.0,0.0,0.0,0.0,0.0,0.0,0.0,0.0,0.0,0.0,0.0,0.0,0.0,0.0,0.0,0.0,0.0,0.0,0.0,0.0,0.0,0.0,0.0,0.0,0.0,0.0,0.0,0.0,0.0,0.0,0.0,0.0,0.0,0.0,0.0,0.0,0.0,0.0,0.0,0.0,0.0,0.0,0.0,0.0,0.0,0.0,0.0,2.5313,2.5313,2.5313,2.5313,2.5303,0.0,0.0,0.0,0.0,0.0,0.0,0.0,0.0,0.0,0.0,0.0,0.0,0.0,0.0,0.0,0.0,0.0,0.0,0.0,0.0,0.0,0.0,0.0,0.0,0.0,0.0,0.0,0.0,0.0,0.0,0.0,0.0,0.0,0.0,0.0,0.0,0.0,0.0,0.0,0.0,0.0,0.0,0.0,0.0,0.0,0.0,0.0,0.0,0.0,0.0,0.0,0.0,0.0,0.0,0.0,0.0,0.0,0.0,0.0,0.0,0.0,0.0,0.0,0.0,0.0,0.0,0.0,0.0,0.0,0.0,0.0,0.0,0.0,0.0,0.0,0.0,0.0,0.0,0.0,0.0,0.0,0.0,0.0,0.0,0.0,0.0,0.0,0.0,0.0,0.0,0.0,0.0,0.0,0.0,0.0,0.0,0.0,0.0,0.0,0.0,0.0,0.0,0.0,0.0,0.0,0.0,0.0,0.0,0.0,0.0,0.0,0.0,2.5601,2.5562,2.5531,0.0,0.0,0.0,0.0,0.0,0.0,0.0,0.0,0.0,0.0,0.0,0.0,0.0,0.0,0.0,0.0,0.0,0.0,0.0,0.0,0.0,0.0,0.0,0.0,0.0,0.0,0.0,0.0,0.0,0.0,0.0,0.0,0.0,0.0,0.0,0.0,0.0,0.0,0.0,0.0,0.0,0.0,0.0,0.0,0.0,0.0,0.0,0.0,0.0,0.0,0.0,0.0,0.0,0.0,0.0,0.0,0.0,0.0,0.0,0.0,0.0,0.0,0.0,0.0,0.0,0.0,0.0,0.0,0.0,0.0,0.0,0.0,0.0,0.0,0.0,0.0,0.0,0.0,0.0,0.0,0.0,0.0,0.0,0.0,0.0,0.0,0.0,0.0,0.0,0.0,0.0,0.0,0.0,0.0,0.0,0.0,0.0,0.0,0.0,0.0,0.0,0.0,0.0,0.0,0.0,0.0,0.0,0.0,0.0,0.0,2.5687,2.6467,2.6467,0.0,2.6192,0.0,0.0,0.0,0.0,0.0,0.0,0.0,0.0,0.0,0.0,0.0,0.0,0.0,0.0,0.0,0.0,0.0,0.0,0.0,0.0,0.0,0.0,0.0,0.0,0.0,0.0,0.0,0.0,0.0,0.0,0.0,0.0,0.0,0.0,0.0,0.0,0.0,0.0,0.0,0.0,0.0,0.0,0.0,0.0,0.0,0.0,0.0,0.0,0.0,0.0,0.0,0.0,0.0,0.0,0.0,0.0,0.0,0.0,0.0,0.0,0.0,0.0,0.0,0.0,0.0,0.0,0.0,0.0,0.0,0.0,0.0,0.0,0.0,0.0,0.0,0.0,0.0,0.0,0.0,0.0,0.0,0.0,0.0,0.0,0.0,0.0,0.0,0.0,0.0,0.0,0.0,0.0,0.0,0.0,0.0,0.0,0.0,0.0,0.0,0.0,0.0,0.0,0.0,0.0,0.0,0.0,0.0,0.0,0.0,0.0,2.6005,2.5822,2.5822,2.5782,0.0,0.0,0.0,0.0,0.0,0.0,0.0,0.0,0.0,0.0,0.0,0.0,0.0,0.0,0.0,0.0,0.0,0.0,0.0,0.0,0.0,0.0,0.0,0.0,0.0,0.0,0.0,0.0,0.0,0.0,0.0,0.0,0.0,0.0,0.0,0.0,0.0,0.0,0.0,0.0,0.0,0.0,0.0,0.0,0.0,0.0,0.0,0.0,0.0,0.0,0.0,0.0,0.0,0.0,0.0,0.0,0.0,0.0,0.0,0.0,0.0,0.0,0.0,0.0,0.0,0.0,0.0,0.0,0.0,0.0,0.0,0.0,0.0,0.0,0.0,0.0,0.0,0.0,0.0,0.0,0.0,0.0,0.0,0.0,0.0,0.0,0.0,0.0,0.0,0.0,0.0,0.0,0.0,0.0,0.0,0.0,0.0,0.0,0.0,0.0,0.0,0.0,0.0,0.0,0.0,0.0,0.0,0.0,0.0,0.0,2.6178,2.6063,2.5678,2.5418,2.5313,2.5313,0.0,0.0,0.0,0.0,0.0,0.0,0.0,0.0,0.0,0.0,0.0,0.0,0.0,0.0,0.0,0.0,0.0,0.0,0.0,0.0,0.0,0.0,0.0,0.0,0.0,0.0,0.0,0.0,0.0,0.0,0.0,0.0,0.0,0.0,0.0,0.0,0.0,0.0,0.0,0.0,0.0,0.0,0.0,0.0,0.0,0.0,0.0,0.0,0.0,0.0,0.0,0.0,0.0,0.0,0.0,0.0,0.0,0.0,0.0,0.0,0.0,0.0,0.0,0.0,0.0,0.0,0.0,0.0,0.0,0.0,0.0,0.0,0.0,0.0,0.0,0.0,0.0,0.0,0.0,0.0,0.0,0.0,0.0,0.0,0.0,0.0,0.0,0.0,0.0,0.0,0.0,0.0,0.0,0.0,0.0,0.0,0.0,0.0,0.0,0.0,0.0,0.0,0.0,0.0,0.0,0.0,0.0,0.0,2.7601,2.6197,2.5745,2.6486,2.5745,2.5313,0.0,0.0,0.0,0.0,0.0,0.0,0.0,0.0,0.0,0.0,0.0,0.0,0.0,0.0,0.0,0.0,0.0,0.0,0.0,0.0,0.0,0.0,0.0,0.0,0.0,0.0,0.0,0.0,0.0,0.0,0.0,0.0,0.0,0.0,0.0,0.0,0.0,0.0,0.0,0.0,0.0,0.0,0.0,0.0,0.0,0.0,0.0,0.0,0.0,0.0,0.0,0.0,0.0,0.0,0.0,0.0,0.0,0.0,0.0,0.0,0.0,0.0,0.0,0.0,0.0,0.0,0.0,0.0,0.0,0.0,0.0,0.0,0.0,0.0,0.0,0.0,0.0,0.0,0.0,0.0,0.0,0.0,0.0,0.0,0.0,0.0,0.0,0.0,0.0,0.0,0.0,0.0,0.0,0.0,0.0,0.0,0.0,0.0,0.0,0.0,0.0,0.0,0.0,0.0,0.0,0.0,0.0,0.0,0.0,2.6159,2.563,2.5726,2.6524,2.5755,2.5063,0.0,0.0,0.0,0.0,0.0,0.0,0.0,0.0,0.0,0.0,0.0,0.0,0.0,0.0,0.0,0.0,0.0,0.0,0.0,0.0,0.0,0.0,0.0,0.0,0.0,0.0,0.0,0.0,0.0,0.0,0.0,0.0,0.0,0.0,0.0,0.0,0.0,0.0,0.0,0.0,0.0,0.0,0.0,0.0,0.0,0.0,0.0,0.0,0.0,0.0,0.0,0.0,0.0,0.0,0.0,0.0,0.0,0.0,0.0,0.0,0.0,0.0,0.0,0.0,0.0,0.0,0.0,0.0,0.0,0.0,0.0,0.0,0.0,0.0,0.0,0.0,0.0,0.0,0.0,0.0,0.0,0.0,0.0,0.0,0.0,0.0,0.0,0.0,0.0,0.0,0.0,0.0,0.0,0.0,0.0,0.0,0.0,0.0,0.0,0.0,0.0,0.0,0.0,0.0,0.0,0.0,0.0,0.0,0.0,2.5313,0.0,2.589,2.614,2.561,2.4928,0.0,0.0,0.0,0.0,0.0,0.0,0.0,0.0,0.0,0.0,0.0,0.0,0.0,0.0,0.0,0.0,0.0,0.0,0.0,0.0,0.0,0.0,0.0,0.0,0.0,0.0,0.0,0.0,0.0,0.0,0.0,0.0,0.0,0.0,0.0,0.0,0.0,0.0,0.0,0.0,0.0,0.0,0.0,0.0,0.0,0.0,0.0,0.0,0.0,0.0,0.0,0.0,0.0,0.0,0.0,0.0,0.0,0.0,0.0,0.0,0.0,0.0,0.0,0.0,0.0,0.0,0.0,0.0,0.0,0.0,0.0,0.0,0.0,0.0,0.0,0.0,0.0,0.0,0.0,0.0,0.0,0.0,0.0,0.0,0.0,0.0,0.0,0.0,0.0,0.0,0.0,0.0,0.0,0.0,0.0,0.0,0.0,0.0,0.0,0.0,0.0,0.0,0.0,0.0,0.0,0.0,0.0,0.0,2.5303,2.5322,2.6091,2.613,2.5341,2.5312,2.4937,0.0,0.0,0.0,0.0,0.0,0.0,0.0,0.0,0.0,0.0,0.0,0.0,0.0,0.0,0.0,0.0,0.0,0.0,0.0,0.0,0.0,0.0,0.0,0.0,0.0,0.0,0.0,0.0,0.0,0.0,0.0,0.0,0.0,0.0,0.0,0.0,0.0,0.0,0.0,0.0,0.0,0.0,0.0,0.0,0.0,0.0,0.0,0.0,0.0,0.0,0.0,0.0,0.0,0.0,0.0,0.0,0.0,0.0,0.0,0.0,0.0,0.0,0.0,0.0,0.0,0.0,0.0,0.0,0.0,0.0,0.0,0.0,0.0,0.0,0.0,0.0,0.0,0.0,0.0,0.0,0.0,0.0,0.0,0.0,0.0,0.0,0.0,0.0,0.0,0.0,0.0,0.0,0.0,0.0,0.0,0.0,0.0,0.0,0.0,0.0,0.0,0.0,0.0,0.0,0.0,0.0,0.0,0.0,0.0,2.5099,2.5348,2.5643,2.5948,2.5394,2.5028,0.0,0.0,0.0,0.0,0.0,0.0,0.0,0.0,0.0,0.0,0.0,0.0,0.0,0.0,0.0,0.0,0.0,0.0,0.0,0.0,0.0,0.0,0.0,0.0,0.0,0.0,0.0,0.0,0.0,0.0,0.0,0.0,0.0,0.0,0.0,0.0,0.0,0.0,0.0,0.0,0.0,0.0,0.0,0.0,0.0,0.0,0.0,0.0,0.0,0.0,0.0,0.0,0.0,0.0,0.0,0.0,0.0,0.0,0.0,0.0,0.0,0.0,0.0,0.0,0.0,0.0,0.0,0.0,0.0,0.0,0.0,0.0,0.0,0.0,0.0,0.0,0.0,0.0,0.0,0.0,0.0,0.0,0.0,0.0,0.0,0.0,0.0,0.0,0.0,0.0,0.0,0.0,0.0,0.0,0.0,0.0,0.0,0.0,0.0,0.0,0.0,0.0,0.0,0.0,0.0,0.0,0.0,0.0,0.0,2.5487,2.5475,2.5685,2.617,2.5704,2.5359,2.5173,0.0,0.0,0.0,0.0,0.0,0.0,0.0,0.0,0.0,0.0,0.0,0.0,0.0,0.0,0.0,0.0,0.0,0.0,0.0,0.0,0.0,0.0,0.0,0.0,0.0,0.0,0.0,0.0,0.0,0.0,0.0,0.0,0.0,0.0,0.0,0.0,0.0,0.0,0.0,0.0,0.0,0.0,0.0,0.0,0.0,0.0,0.0,0.0,0.0,0.0,0.0,0.0,0.0,0.0,0.0,0.0,0.0,0.0,0.0,0.0,0.0,0.0,0.0,0.0,0.0,0.0,0.0,0.0,0.0,0.0,0.0,0.0,0.0,0.0,0.0,0.0,0.0,0.0,0.0,0.0,0.0,0.0,0.0,0.0,0.0,0.0,0.0,0.0,0.0,0.0,0.0,0.0,0.0,0.0,0.0,0.0,0.0,0.0,0.0,0.0,0.0,0.0,0.0,0.0,0.0,0.0,0.0,0.0,2.6384,2.6346,2.6289,2.6189,2.6148,2.5844,0.0,0.0,0.0,0.0,0.0,0.0,0.0,0.0,0.0,0.0,0.0,0.0,0.0,0.0,0.0,0.0,0.0,0.0,0.0,0.0,0.0,0.0,0.0,0.0,0.0,0.0,0.0,0.0,0.0,0.0,0.0,0.0,0.0,0.0,0.0,0.0,0.0,0.0,0.0,0.0,0.0,0.0,0.0,0.0,0.0,0.0,0.0,0.0,0.0,0.0,0.0,0.0,0.0,0.0,0.0,0.0,0.0,0.0,0.0,0.0,0.0,0.0,0.0,0.0,0.0,0.0,0.0,0.0,0.0,0.0,0.0,0.0,0.0,0.0,0.0,0.0,0.0,0.0,0.0,0.0,0.0,0.0,0.0,0.0,0.0,0.0,0.0,0.0,0.0,0.0,0.0,0.0,0.0,0.0,0.0,0.0,0.0,0.0,0.0,0.0,0.0,0.0,0.0,0.0,0.0,0.0,0.0,0.0,0.0,2.7172,2.7788,2.8027,2.7824,2.6526,2.6155,0.0,0.0,0.0,0.0,0.0,0.0,0.0,0.0,0.0,0.0,0.0,0.0,0.0,0.0,0.0,0.0,0.0,0.0,0.0,0.0,0.0,0.0,0.0,0.0,0.0,0.0,0.0,0.0,0.0,0.0,0.0,0.0,0.0,0.0,0.0,0.0,0.0,0.0,0.0,0.0,0.0,0.0,0.0,0.0,0.0,0.0,0.0,0.0,0.0,0.0,0.0,0.0,0.0,0.0,0.0,0.0,0.0,0.0,0.0,0.0,0.0,0.0,0.0,0.0,0.0,0.0,0.0,0.0,0.0,0.0,0.0,0.0,0.0,0.0,0.0,0.0,0.0,0.0,0.0,0.0,0.0,0.0,0.0,0.0,0.0,0.0,0.0,0.0,0.0,0.0,0.0,0.0,0.0,0.0,0.0,0.0,0.0,0.0,0.0,0.0,0.0,0.0,0.0,0.0,0.0,0.0,0.0,0.0,2.7589,2.8203,2.8976,2.9298,2.914,2.773,2.6956,0.0,0.0,0.0,0.0,0.0,0.0,0.0,0.0,0.0,0.0,0.0,0.0,0.0,0.0,0.0,0.0,0.0,0.0,0.0,0.0,0.0,0.0,0.0,0.0,0.0,0.0,0.0,0.0,0.0,0.0,0.0,0.0,0.0,0.0,0.0,0.0,0.0,0.0,0.0,0.0,0.0,0.0,0.0,0.0,0.0,0.0,0.0,0.0,0.0,0.0,0.0,0.0,0.0,0.0,0.0,0.0,0.0,0.0,0.0,0.0,0.0,0.0,0.0,0.0,0.0,0.0,0.0,0.0,0.0,0.0,0.0,0.0,0.0,0.0,0.0,0.0,0.0,0.0,0.0,0.0,0.0,0.0,0.0,0.0,0.0,0.0,0.0,0.0,0.0,0.0,0.0,0.0,0.0,0.0,0.0,0.0,0.0,0.0,0.0,0.0,0.0,0.0,0.0,0.0,0.0,0.0,0.0,0.0,2.8553,2.919,2.9872,3.0157,2.9975,2.9217,2.797,0.0,0.0,0.0,0.0,0.0,0.0,0.0,0.0,0.0,0.0,0.0,0.0,0.0,0.0,0.0,0.0,0.0,0.0,0.0,0.0,0.0,0.0,0.0,0.0,0.0,0.0,0.0,0.0,0.0,0.0,0.0,0.0,0.0,0.0,0.0,0.0,0.0,0.0,0.0,0.0,0.0,0.0,0.0,0.0,0.0,0.0,0.0,0.0,0.0,0.0,0.0,0.0,0.0,0.0,0.0,0.0,0.0,0.0,0.0,0.0,0.0,0.0,0.0,0.0,0.0,0.0,0.0,0.0,0.0,0.0,0.0,0.0,0.0,0.0,0.0,0.0,0.0,0.0,0.0,0.0,0.0,0.0,0.0,0.0,0.0,0.0,0.0,0.0,0.0,0.0,0.0,0.0,0.0,0.0,0.0,0.0,0.0,0.0,0.0,0.0,0.0,0.0,0.0,0.0,0.0,0.0,0.0,0.0,2.9187,2.9229,3.0016,3.0301,3.0013,2.9061,2.8123,0.0,0.0,0.0,0.0,0.0,0.0,0.0,0.0,0.0,0.0,0.0,0.0,0.0,0.0,0.0,0.0,0.0,0.0,0.0,0.0,0.0,0.0,0.0,0.0,0.0,0.0,0.0,0.0,0.0,0.0,0.0,0.0,0.0,0.0,0.0,0.0,0.0,0.0,0.0,0.0,0.0,0.0,0.0,0.0,0.0,0.0,0.0,0.0,2.9813,0.0,0.0,0.0,0.0,0.0,0.0,0.0,0.0,0.0,0.0,0.0,0.0,0.0,0.0,0.0,0.0,0.0,0.0,0.0,0.0,0.0,0.0,0.0,0.0,0.0,0.0,0.0,0.0,0.0,0.0,0.0,0.0,0.0,0.0,0.0,0.0,0.0,0.0,0.0,0.0,0.0,0.0,0.0,0.0,0.0,0.0,0.0,0.0,0.0,0.0,0.0,0.0,0.0,0.0,0.0,0.0,0.0,0.0,0.0,2.9647,2.9848,3.0319,3.0424,3.0171,2.9674,2.8798,0.0,0.0,0.0,0.0,0.0,0.0,0.0,0.0,0.0,0.0,0.0,0.0,0.0,0.0,0.0,0.0,0.0,0.0,0.0,0.0,0.0,0.0,0.0,0.0,0.0,0.0,0.0,0.0,0.0,0.0,0.0,0.0,0.0,0.0,0.0,0.0,0.0,0.0,0.0,0.0,0.0,0.0,0.0,0.0,0.0,0.0,0.0,0.0,0.0,0.0,0.0,0.0,0.0,0.0,0.0,0.0,0.0,0.0,0.0,0.0,0.0,0.0,0.0,0.0,0.0,0.0,0.0,0.0,0.0,0.0,0.0,0.0,0.0,0.0,0.0,0.0,0.0,0.0,0.0,0.0,0.0,0.0,0.0,0.0,0.0,0.0,0.0,0.0,0.0,0.0,0.0,0.0,0.0,0.0,0.0,0.0,0.0,0.0,0.0,0.0,0.0,0.0,0.0,0.0,0.0,0.0,0.0,2.9198,2.9904,3.0555,3.0587,3.0521,3.039,3.0398,2.948,2.763,0.0,0.0,0.0,0.0,0.0,0.0,0.0,0.0,0.0,0.0,0.0,0.0,0.0,0.0,0.0,0.0,0.0,0.0,0.0,0.0,0.0,0.0,0.0,0.0,0.0,0.0,0.0,0.0,0.0,0.0,0.0,0.0,0.0,0.0,0.0,0.0,0.0,0.0,2.7666,2.9107,0.0,0.0,0.0,0.0,0.0,0.0,0.0,0.0,3.0577,0.0,0.0,0.0,0.0,0.0,0.0,0.0,0.0,0.0,0.0,0.0,0.0,0.0,0.0,0.0,0.0,0.0,0.0,0.0,0.0,0.0,0.0,0.0,0.0,0.0,0.0,0.0,0.0,0.0,0.0,0.0,0.0,0.0,0.0,0.0,0.0,0.0,0.0,0.0,0.0,0.0,0.0,0.0,0.0,0.0,0.0,0.0,0.0,0.0,0.0,0.0,0.0,0.0,0.0,0.0,0.0,2.9114,2.9396,2.9838,3.0494,3.0524,3.0482,3.039,3.0398,2.9512,2.7746,0.0,0.0,0.0,0.0,0.0,0.0,0.0,0.0,0.0,0.0,0.0,0.0,0.0,0.0,0.0,0.0,0.0,0.0,0.0,0.0,0.0,0.0,0.0,0.0,0.0,0.0,0.0,0.0,0.0,0.0,0.0,0.0,0.0,0.0,0.0,0.0,0.0,0.0,0.0,2.9902,3.0548,0.0,0.0,0.0,0.0,0.0,0.0,0.0,0.0,3.0606,0.0,0.0,0.0,0.0,0.0,0.0,0.0,0.0,0.0,0.0,0.0,0.0,0.0,0.0,0.0,0.0,0.0,0.0,0.0,0.0,0.0,0.0,0.0,0.0,0.0,0.0,0.0,0.0,0.0,0.0,0.0,0.0,0.0,0.0,0.0,0.0,0.0,0.0,0.0,0.0,0.0,0.0,0.0,0.0,0.0,0.0,0.0,0.0,0.0,0.0,0.0,0.0,0.0,0.0,0.0,2.8723,2.9647,3.0253,3.0468,3.0479,3.0482,3.039,2.9876,2.8957,0.0,0.0,0.0,0.0,0.0,0.0,0.0,0.0,0.0,0.0,0.0,0.0,0.0,0.0,0.0,0.0,0.0,0.0,0.0,0.0,0.0,0.0,0.0,0.0,0.0,0.0,0.0,0.0,0.0,0.0,0.0,0.0,0.0,0.0,0.0,0.0,0.0,0.0,0.0,0.0,2.9559,2.9911,3.0875,0.0,0.0,0.0,0.0,0.0,0.0,3.0999,3.1191,0.0,0.0,0.0,0.0,0.0,0.0,0.0,0.0,0.0,0.0,0.0,0.0,0.0,0.0,0.0,0.0,0.0,0.0,0.0,0.0,0.0,0.0,0.0,0.0,0.0,0.0,0.0,0.0,0.0,0.0,0.0,0.0,0.0,0.0,0.0,0.0,0.0,0.0,0.0,0.0,0.0,0.0,0.0,0.0,0.0,0.0,0.0,0.0,0.0,0.0,0.0,0.0,0.0,0.0,0.0,2.8216,2.9636,3.0411,3.0472,3.0434,3.0392,3.0304,2.944,2.8522,0.0,0.0,0.0,0.0,0.0,0.0,0.0,0.0,0.0,0.0,0.0,0.0,0.0,0.0,0.0,0.0,0.0,0.0,0.0,0.0,0.0,0.0,0.0,0.0,0.0,0.0,0.0,0.0,0.0,0.0,0.0,0.0,0.0,0.0,0.0,0.0,0.0,0.0,0.0,0.0,0.0,2.9896,3.0441,3.0692,0.0,0.0,0.0,0.0,3.1444,3.172,0.0,0.0,0.0,0.0,0.0,0.0,0.0,0.0,0.0,0.0,0.0,0.0,0.0,0.0,0.0,0.0,0.0,0.0,0.0,0.0,0.0,0.0,0.0,0.0,0.0,0.0,0.0,0.0,0.0,0.0,0.0,0.0,0.0,0.0,0.0,0.0,0.0,0.0,0.0,0.0,0.0,0.0,0.0,0.0,0.0,0.0,0.0,0.0,0.0,0.0,0.0,0.0,0.0,0.0,0.0,0.0,2.8104,2.8934,2.9708,3.0356,3.0171,3.0037,3.0028,2.975,2.8757,0.0,0.0,0.0,0.0,0.0,0.0,0.0,0.0,0.0,0.0,0.0,0.0,0.0,0.0,0.0,0.0,0.0,0.0,0.0,0.0,0.0,0.0,0.0,0.0,0.0,0.0,0.0,0.0,0.0,0.0,0.0,0.0,0.0,0.0,0.0,0.0,0.0,0.0,0.0,0.0,0.0,3.183,3.1374,3.1275,3.1646,0.0,0.0,3.2123,3.2162,3.3085,0.0,0.0,0.0,0.0,0.0,0.0,0.0,0.0,0.0,0.0,0.0,0.0,0.0,0.0,0.0,0.0,0.0,0.0,0.0,0.0,0.0,0.0,0.0,0.0,0.0,0.0,0.0,0.0,0.0,0.0,0.0,0.0,0.0,0.0,0.0,0.0,0.0,0.0,0.0,0.0,0.0,0.0,0.0,0.0,0.0,0.0,0.0,0.0,0.0,0.0,0.0,0.0,0.0,0.0,0.0,2.777,2.8112,2.9311,3.0007,3.0177,3.0042,2.9954,2.981,2.8721,2.7735,0.0,0.0,0.0,0.0,0.0,0.0,0.0,0.0,0.0,0.0,0.0,0.0,0.0,0.0,0.0,0.0,0.0,0.0,0.0,0.0,0.0,0.0,0.0,0.0,0.0,0.0,0.0,0.0,0.0,0.0,0.0,0.0,0.0,0.0,0.0,0.0,0.0,0.0,0.0,0.0,0.0,0.0,3.1426,3.1406,0.0,0.0,0.0,3.1929,3.2314,0.0,0.0,0.0,0.0,0.0,0.0,0.0,0.0,0.0,0.0,0.0,0.0,0.0,0.0,0.0,0.0,0.0,0.0,0.0,0.0,0.0,0.0,0.0,0.0,0.0,0.0,0.0,0.0,0.0,0.0,0.0,0.0,0.0,0.0,0.0,0.0,0.0,0.0,0.0,0.0,0.0,0.0,0.0,0.0,0.0,0.0,0.0,0.0,0.0,0.0,0.0,0.0,0.0,0.0,0.0,0.0,0.0,2.8107,2.9646,3.0321,3.0013,2.987,2.967,2.9458,2.7768,0.0,0.0,0.0,0.0,0.0,0.0,0.0,0.0,0.0,0.0,0.0,0.0,0.0,0.0,0.0,0.0,0.0,0.0,0.0,0.0,0.0,0.0,0.0,0.0,0.0,0.0,0.0,2.3135,0.0,0.0,0.0,0.0,0.0,0.0,0.0,0.0,0.0,0.0,0.0,0.0,0.0,0.0,3.1276,3.195,3.1826,3.1777,0.0,0.0,3.1871,3.2346,3.2514,3.2521,0.0,0.0,0.0,0.0,0.0,0.0,0.0,0.0,0.0,0.0,0.0,0.0,0.0,0.0,0.0,0.0,0.0,0.0,0.0,0.0,0.0,0.0,0.0,0.0,0.0,0.0,0.0,0.0,0.0,0.0,0.0,0.0,0.0,0.0,0.0,0.0,0.0,0.0,0.0,0.0,0.0,0.0,0.0,0.0,0.0,0.0,0.0,0.0,0.0,0.0,0.0,0.0,0.0,0.0,2.8068,2.807,2.9601,3.0279,2.9999,2.9456,2.9052,2.8846,2.7547,2.6419,0.0,0.0,0.0,0.0,0.0,0.0,0.0,0.0,0.0,0.0,0.0,0.0,0.0,0.0,0.0,0.0,0.0,0.0,0.0,0.0,0.0,0.0,0.0,0.0,0.0,0.0,0.0,0.0,0.0,0.0,0.0,0.0,0.0,0.0,0.0,0.0,0.0,0.0,0.0,0.0,0.0,3.3343,3.3439,3.2854,3.2866,0.0,3.3275,3.2444,3.2494,3.3567,3.3591,3.1254,0.0,0.0,0.0,0.0,0.0,0.0,0.0,0.0,0.0,0.0,0.0,0.0,0.0,0.0,0.0,0.0,0.0,0.0,0.0,0.0,0.0,0.0,0.0,0.0,0.0,0.0,0.0,0.0,0.0,0.0,0.0,0.0,0.0,0.0,0.0,0.0,0.0,0.0,0.0,0.0,0.0,0.0,0.0,0.0,0.0,0.0,0.0,0.0,0.0,0.0,0.0,0.0,0.0,2.8074,2.8023,2.9591,3.0215,2.9829,2.9345,2.8923,2.8567,2.6887,2.5844,0.0,0.0,0.0,0.0,0.0,0.0,0.0,0.0,0.0,0.0,0.0,0.0,0.0,0.0,0.0,0.0,0.0,0.0,0.0,0.0,0.0,0.0,0.0,0.0,0.0,0.0,0.0,0.0,2.266,2.2989,2.3724,0.0,0.0,0.0,0.0,0.0,0.0,0.0,0.0,0.0,0.0,3.3686,3.4162,3.3632,0.0,0.0,3.3896,3.3848,3.3795,3.3842,3.3591,3.2547,3.2684,0.0,0.0,0.0,0.0,0.0,0.0,0.0,0.0,0.0,0.0,0.0,0.0,0.0,0.0,0.0,0.0,0.0,0.0,0.0,0.0,0.0,0.0,0.0,0.0,0.0,0.0,0.0,0.0,0.0,0.0,0.0,0.0,0.0,0.0,0.0,0.0,0.0,0.0,0.0,0.0,0.0,0.0,0.0,0.0,0.0,0.0,0.0,0.0,0.0,0.0,0.0,0.0,2.84,2.8347,2.9871,3.0496,3.0108,2.9262,2.8654,2.821,2.6325,2.5212,0.0,0.0,0.0,0.0,0.0,0.0,0.0,0.0,0.0,0.0,0.0,0.0,0.0,0.0,0.0,0.0,0.0,0.0,0.0,0.0,0.0,0.0,0.0,0.0,0.0,0.0,0.0,0.0,2.2678,2.3128,2.3838,0.0,0.0,0.0,0.0,0.0,0.0,0.0,0.0,0.0,0.0,3.408,3.4778,3.435,3.3951,3.4228,3.4314,3.443,3.461,3.4349,3.4074,3.3801,0.0,0.0,0.0,0.0,0.0,0.0,0.0,0.0,0.0,0.0,0.0,0.0,0.0,0.0,0.0,0.0,0.0,0.0,0.0,0.0,0.0,0.0,0.0,0.0,0.0,0.0,0.0,2.501,0.0,0.0,2.5003,0.0,0.0,0.0,0.0,0.0,0.0,0.0,0.0,0.0,0.0,0.0,0.0,0.0,0.0,0.0,0.0,0.0,0.0,0.0,0.0,0.0,0.0,2.9139,2.9094,3.0527,3.1156,3.092,2.9173,2.8128,2.7908,2.591,2.4529,2.3951,0.0,0.0,0.0,0.0,0.0,0.0,0.0,0.0,0.0,0.0,0.0,0.0,0.0,0.0,0.0,0.0,0.0,0.0,0.0,0.0,0.0,0.0,0.0,0.0,0.0,0.0,2.266,2.2996,2.3397,0.0,0.0,0.0,0.0,0.0,0.0,0.0,0.0,0.0,3.3818,3.4269,3.4776,3.5476,3.5005,3.4889,3.5548,3.4556,3.3922,3.4647,3.5279,3.5399,0.0,0.0,0.0,0.0,0.0,0.0,0.0,0.0,0.0,0.0,0.0,0.0,0.0,0.0,0.0,0.0,0.0,0.0,0.0,0.0,0.0,0.0,0.0,0.0,0.0,0.0,0.0,2.5799,2.6036,0.0,0.0,0.0,0.0,0.0,0.0,0.0,0.0,0.0,0.0,0.0,2.7625,2.8221,0.0,0.0,0.0,0.0,0.0,0.0,0.0,0.0,0.0,0.0,0.0,0.0,2.9168,2.9159,3.0552,3.1197,3.0958,2.9407,2.8388,2.7908,2.6493,2.4917,2.3158,0.0,0.0,0.0,0.0,0.0,0.0,0.0,0.0,0.0,0.0,0.0,0.0,0.0,0.0,0.0,0.0,0.0,0.0,0.0,0.0,0.0,0.0,0.0,0.0,0.0,2.2599,0.0,0.0,0.0,0.0,0.0,0.0,0.0,0.0,0.0,0.0,3.2943,3.3955,3.4942,3.6051,3.6671,3.6417,3.6619,3.6894,0.0,0.0,0.0,0.0,0.0,0.0,0.0,0.0,0.0,0.0,0.0,0.0,0.0,0.0,3.8659,3.5063,3.427,3.4383,3.5047,0.0,0.0,0.0,0.0,0.0,0.0,0.0,0.0,0.0,0.0,0.0,0.0,0.0,0.0,2.699,2.7381,2.7003,0.0,0.0,0.0,0.0,0.0,0.0,0.0,0.0,2.8641,2.9101,2.9347,2.9908,2.9699,0.0,2.9555,2.888,0.0,0.0,0.0,0.0,0.0,0.0,0.0,0.0,2.9696,2.9909,3.131,3.18,3.1261,2.9843,2.8714,2.7926,2.6511,2.5036,2.3489,2.204,2.1541,0.0,0.0,0.0,0.0,0.0,0.0,0.0,0.0,0.0,0.0,0.0,0.0,0.0,0.0,0.0,0.0,0.0,0.0,0.0,0.0,0.0,0.0,0.0,2.2893,0.0,0.0,0.0,0.0,0.0,0.0,0.0,0.0,0.0,3.3493,3.4685,3.5786,3.6315,3.728,3.7719,3.7246,0.0,0.0,0.0,0.0,0.0,0.0,0.0,3.79,3.8092,3.7947,3.7958,3.8569,4.0017,4.0985,4.076,0.0,0.0,3.7492,3.6781,3.6863,3.7566,3.8692,3.946,3.9221,3.9588,3.9968,0.0,0.0,0.0,0.0,0.0,0.0,0.0,0.0,2.8146,2.8533,0.0,2.8241,0.0,0.0,0.0,0.0,2.7227,2.9605,0.0,0.0,3.1877,3.2617,3.1882,3.254,3.2344,3.1413,3.2083,3.1476,2.9607,2.8153,0.0,0.0,0.0,0.0,0.0,0.0,3.0752,3.1337,3.2654,3.288,3.184,3.0362,2.9035,2.7869,2.5993,2.4926,2.474,2.3424,2.2587,2.2321,2.1841,0.0,0.0,0.0,0.0,0.0,0.0,0.0,0.0,0.0,0.0,0.0,0.0,0.0,0.0,0.0,0.0,0.0,0.0,0.0,0.0,2.2884,0.0,0.0,0.0,0.0,0.0,0.0,0.0,0.0,0.0,3.6139,3.4959,3.65,3.7759,3.7946,0.0,0.0,0.0,0.0,3.8227,3.8969,3.8478,3.8431,3.9697,3.9839,3.9983,4.0618,0.0,0.0,4.0866,4.1363,4.1629,4.0943,4.144,4.1835,4.1789,4.0796,4.0473,4.1197,4.1229,4.1445,4.2103,4.2154,4.2341,3.0835,0.0,0.0,0.0,0.0,3.0094,3.0555,3.1591,3.104,3.0586,3.0192,2.9965,0.0,0.0,0.0,0.0,0.0,0.0,3.1008,3.1301,3.196,3.2415,3.2744,3.3275,3.2991,3.1993,3.254,3.22,3.0905,3.0431,2.925,2.7369,0.0,0.0,0.0,0.0,3.2185,3.221,3.2976,3.3161,3.2657,3.0655,2.8925,2.7517,2.5848,2.4993,2.4942,2.405,2.3256,2.2621,2.276,0.0,0.0,0.0,0.0,0.0,0.0,0.0,0.0,0.0,0.0,0.0,0.0,0.0,0.0,0.0,0.0,0.0,0.0,0.0,2.3038,2.3443,2.4388,0.0,0.0,0.0,0.0,0.0,0.0,0.0,0.0,0.0,3.8948,3.9441,3.9834,0.0,0.0,3.9829,3.9313,3.9364,3.9693,4.0281,4.0156,0.0,4.1078,4.0785,4.0694,4.1386,4.2019,4.235,4.2192,4.2645,4.2941,4.2705,4.2869,4.3032,4.2977,4.2464,4.2248,4.274,4.286,4.2873,4.3128,4.3328,4.3509,3.4105,3.2984,3.2048,3.1955,3.2411,3.1948,3.2284,3.3167,3.2674,3.2372,3.2225,3.1909,3.1178,3.0206,3.0456,0.0,0.0,0.0,3.2635,3.3075,3.3298,3.3672,3.4135,3.4385,3.4023,3.3222,3.3513,3.3227,3.2339,3.2357,3.1238,2.9139,0.0,3.0098,2.9627,3.1795,3.2872,3.2876,3.3545,3.3569,3.2821,3.0706,2.9096,2.8045,2.6629,2.5832,2.5664,2.4963,2.4346,2.3879,2.356,2.3289,0.0,0.0,0.0,0.0,0.0,0.0,0.0,0.0,0.0,0.0,0.0,2.3207,2.2784,0.0,0.0,0.0,2.3274,2.39,2.4628,2.5708,0.0,0.0,0.0,0.0,0.0,0.0,0.0,3.766,3.9662,4.0998,4.1035,4.1489,4.1647,4.1168,4.1174,4.1093,4.0639,0.0,4.0891,4.1223,4.1268,4.1446,4.2062,4.177,4.1729,4.2354,4.2734,4.3014,4.3014,4.3286,4.3479,4.3479,4.3479,4.3479,4.3479,4.332,4.3266,4.3479,4.3631,4.3693,4.3712,4.4004,4.4261,3.7103,3.6891,3.4724,3.3758,3.3684,3.3626,3.3561,3.3492,3.3516,3.3913,3.4527,3.3826,3.3496,3.3457,3.2812,0.0,3.2676,3.4199,3.4902,3.4922,3.5441,3.5703,3.5696,3.5543,3.5223,3.4715,3.4694,3.4435,3.396,3.3952,3.3333,3.2213,3.1693,3.1801,3.2496,3.2894,3.3234,3.3505,3.4278,3.4005,3.2588,3.0685,2.9484,2.9042,2.7901,2.7115,2.6708,2.6048,2.5676,2.5558,2.4239,2.346,2.3359,0.0,0.0,0.0,0.0,0.0,0.0,0.0,0.0,0.0,0.0,0.0,0.0,0.0,0.0,2.3765,2.5077,0.0,2.6927,2.9071,0.0,0.0,0.0,3.4176,3.5361,3.7451,3.8785,3.8785,0.0,0.0,4.1741,4.2721,4.3105,4.2062,4.1895,4.1877,4.1895,4.1793,4.1793,4.1835,4.1895,4.2062,4.2637,4.2734,4.2829,4.3321,4.3479,4.3444,4.3463,4.3479,4.3479,4.3479,4.3479,4.3479,4.3479,4.374,4.3893,4.3597,4.3836,4.4028,4.4076,4.4346,4.4707,3.7995,3.7942,3.7377,3.7112,3.706,3.6398,3.6119,3.6054,3.5505,3.5022,3.4599,3.445,3.4394,3.4414,3.4883,3.5449,3.6113,3.6504,3.668,3.6641,3.5992,3.5703,3.5696,3.5562,3.5339,3.4999,3.4793,3.4843,3.5089,3.5089,3.5231,3.5552,3.5853,3.4859,3.2711,3.4098,3.4706,3.4392,3.46,3.3896,3.2256,3.1156,2.9962,2.8669,2.7764,2.7115,2.6725,2.6522,2.6184,2.5625,2.4729,2.3998,2.341,2.2055,0.0,0.0,0.0,0.0,0.0,0.0,0.0,0.0,0.0,2.4594,2.3494,0.0,2.5883,0.0,2.8228,2.9395,2.9528,3.1111,0.0,0.0,3.6356,3.7675,3.9458,4.068,4.1409,4.1409,4.2519,4.3248,4.3047,4.3316,4.341,4.3105,4.277,4.2462,4.248,4.208,4.1997,4.2382,4.248,4.2675,4.316,4.3304,4.3339,4.3497,4.3479,4.3479,4.3479,4.3479,4.3479,4.3479,4.3479,4.3479,4.3513,4.3772,4.3937,4.3924,4.4175,4.4428,4.4455,4.4732,4.4988,3.8846,3.8831,3.9209,3.9335,3.9185,3.8006,3.7482,3.7452,3.7051,3.6668,3.6313,3.6384,3.6426,3.6484,3.6953,3.7422,3.7832,3.748,3.7284,3.7198,3.6192,3.5682,3.5646,3.5526,3.5369,3.5088,3.4832,3.498,3.5491,3.5491,3.596,3.6864,3.7356,3.6736,3.5105,3.5696,3.5602,3.4713,3.4439,3.384,3.2894,3.171,3.0621,2.9609,2.8405,2.7542,2.6987,2.6971,2.655,2.5625,2.4881,2.4289,2.3913,2.2829,2.2361,0.0,0.0,0.0,0.0,0.0,0.0,0.0,0.0,0.0,0.0,0.0,2.8244,2.9438,3.1342,3.262,3.2912,3.4876,3.6764,3.8251,3.9325,4.0401,4.1519,4.2341,4.2837,4.2837,4.3222,4.3479,4.3479,4.3479,4.3479,4.3479,4.3268,4.305,4.3014,4.2734,4.2696,4.3014,4.3069,4.3124,4.3463,4.3479,4.3479,4.3479,4.3479,4.3479,4.3479,4.3631,4.3726,4.3726,4.3868,4.3992,4.4023,4.4261,4.4463,4.4516,4.4806,4.4966,4.4872,4.5096,4.5322,3.9645,3.9611,4.0358,4.061,4.0369,3.9,3.8353,3.8249,3.8144,3.8205,3.8417,3.8551,3.8613,3.8613,3.873,3.8769,3.8711,3.7968,3.7571,3.7464,3.6475,3.5985,3.591,3.5856,3.571,3.5463,3.5173,3.5302,3.5856,3.588,3.6396,3.7395,3.7776,3.8027,3.8142,3.7411,3.6272,3.4713,3.4111,3.3807,3.3788,3.232,3.1342,3.0857,2.9376,2.8174,2.7426,2.7465,2.7068,2.6073,2.5295,2.487,2.4853,2.4075,2.3616,0.0,2.4968,0.0,0.0,0.0,0.0,0.0,0.0,0.0,0.0,2.996,3.0984,3.2516,3.4465,3.5897,3.6541,3.8995,4.0546,4.06,4.1681,4.2451,4.247,4.3075,4.3479,4.3479,4.3479,4.3479,4.3479,4.3479,4.3479,4.3479,4.3479,4.3444,4.3497,4.3444,4.341,4.3479,4.3479,4.3444,4.3479,4.3479,4.3479,4.3479,4.3479,4.3513,4.3563,4.3786,4.3998,4.4106,4.4318,4.4553,4.458,4.483,4.5074,4.5052,4.5322,4.5457,4.5282,4.5381,4.5586,4.0328,4.0318,4.0453,4.0534,4.0485,4.0169,3.9682,3.9028,3.8368,3.8205,3.8397,3.8532,3.8613,3.8652,3.9336,3.9648,3.9629,3.9361,3.9247,3.9178,3.8127,3.7646,3.7622,3.7552,3.7512,3.7433,3.692,3.7049,3.7769,3.7834,3.8294,3.9131,3.9679,3.965,3.9065,0.0,0.0,0.0,3.413,3.3807,3.377,3.2871,3.1908,3.093,2.9909,0.0,2.7893,2.8394,2.8659,2.8423,2.7404,0.0,0.0,0.0,0.0,0.0,0.0,0.0,0.0,0.0,0.0,0.0,3.0007,2.9914,3.0232,3.2841,3.4806,3.5491,3.7601,3.9031,3.9195,4.0818,4.1912,4.1965,4.2748,4.3277,4.3277,4.3406,4.3479,4.3479,4.3479,4.3479,4.3479,4.3479,4.3479,4.3479,4.3479,4.3479,4.3479,4.3479,4.3479,4.3479,4.3479,4.3479,4.3479,4.3479,4.3479,4.3479,4.3479,4.3597,4.3818,4.3955,4.4165,4.4419,4.4553,4.4606,4.4606,4.4872,4.5137,4.5115,4.5381,4.5586,4.5513,4.555,4.5586,4.0489,4.0489,4.0489,4.0489,0.0,4.0489,4.0273,3.985,3.9528,3.9488,3.9689,3.9821,3.9883,3.9902,4.0351,4.0527,4.0508,3.9962,3.9672,3.9583,3.8569,3.8083,3.8054,3.8031,3.8007,3.7993,3.7545,3.7772,3.851,3.8627,3.9064,3.984,4.0285,4.0292,3.9892,3.9372,3.7849,3.5318,3.4442,3.3954,3.377,3.3018,3.2334,3.1755,3.0935,0.0,0.0,0.0,0.0,0.0,0.0,0.0,0.0,0.0,0.0,2.7643,2.857,2.902,2.8882,2.9932,3.1099,3.2265,3.3487,3.3894,3.3368,3.5321,3.7016,3.8028,3.9551,4.0671,4.1075,4.2176,4.2892,4.291,4.3259,4.3479,4.3479,4.3479,4.3479,4.3479,4.3479,4.3479,4.3479,4.3479,4.3479,4.3479,4.3479,4.3479,4.3479,4.3479,4.3479,4.3479,4.3479,4.3479,4.3479,4.3479,4.3479,4.3513,4.3646,4.3804,4.3986,4.4299,4.4612,4.4806,4.4966,4.5096,4.5118,4.5262,4.5342,4.5381,4.5495,4.5586,4.5586,4.5586,4.5586,4.0489,4.0489,4.0489,4.0489,4.0489,4.0489,4.0515,4.0568,4.0672,0.0,0.0,4.1149,4.1191,4.1191,4.1191,4.1191,4.1112,4.0281,3.985,3.9746,3.8935,3.8492,3.843,3.843,3.843,3.8416,3.8165,3.8384,3.8995,3.909,3.9433,4.0082,4.0372,4.0489,4.0431,3.9478,3.8137,3.6458,3.5098,3.4247,3.3876,3.3191,3.2742,3.2614,3.1953,3.1404,3.1012,3.1139,3.0459,2.8917,2.938,2.9405,2.8788,2.9226,2.9797,3.0362,3.1171,3.15,3.1256,3.2506,3.3593,3.4183,3.6248,3.7202,3.656,3.7239,3.8358,3.9974,4.0726,4.1497,4.2415,4.3075,4.3479,4.3479,4.3479,4.3479,4.3479,4.3479,4.3479,4.3479,4.3479,4.3479,4.3479,4.3479,4.3479,4.3479,4.3479,4.3479,4.3479,4.3479,4.3479,4.3479,4.3479,4.3479,4.3479,4.3479,4.3532,4.3631,4.3818,4.4028,4.4261,4.4688,4.5055,4.518,4.5419,4.5531,4.5586,4.5568,4.5586,4.5586,4.5586,4.5586,4.5586,4.5586,4.5586,4.0489,4.0489,4.0489,4.0489,4.0489,4.0489,4.0578,4.0751,4.0768,4.0864,4.1019,4.1149,4.1191,4.1191,4.1191,4.1149,4.1023,4.076,4.0604,4.0533,4.0293,4.0154,4.0142,4.0142,4.0142,4.0127,3.9868,3.9814,3.991,3.991,3.9986,4.012,4.0372,4.0489,4.0412,3.9665,3.8997,3.8442,3.6377,3.4926,3.4165,3.3817,3.3293,3.2651,3.2504,3.2074,3.1371,3.1986,3.2261,3.1971,3.1801,3.1632,3.1524,3.0982,3.0702,3.0864,3.1847,3.2409,3.2389,3.3195,3.4358,3.5826,3.6909,3.7422,3.7367,3.8065,3.9203,4.0744,4.1038,4.1735,4.3112,4.3406,4.3479,4.3479,4.3479,4.3479,4.3479,4.3479,4.3479,4.3479,4.3479,4.3479,4.3479,4.3479,4.3479,4.3479,4.3479,4.3479,4.3479,4.3479,4.3479,4.3479,4.3479,4.3479,4.3479,4.3479,4.3579,4.3881,4.3955,4.4233,4.4732,4.4988,4.5222,4.5457,4.5549,4.5586,4.5586,4.5586,4.5586,4.5586,4.5586,4.5586,4.5586,4.5586,4.5586,4.0489,4.0489,4.0489,4.0489,4.0504,4.0588,4.0668,4.0801,4.087,4.0968,4.1105,4.1171,4.1191,4.1191,4.1191,4.1171,4.1103,4.0883,4.0768,4.0742,4.0577,4.0489,4.0489,4.0489,4.0489,4.0508,4.0392,4.0321,4.0321,4.0321,4.0321,4.0339,4.0441,4.0489,4.0469,4.0123,3.9688,3.9092,3.6878,3.5454,3.4913,3.4175,3.3623,3.3275,3.3256,3.3091,3.2706,3.3073,3.3073,3.2632,3.2866,3.2821,3.2402,3.2438,3.2475,3.2493,3.2975,3.3256,3.3238,3.4449,3.5661,3.6835,3.7679,3.8138,3.8157,3.8469,3.9386,4.0928,4.1097,4.1754,4.3296,4.3479,4.3479,4.3479,4.3479,4.3479,4.3479,4.3479,4.3479,4.3479,4.3479,4.3479,4.3479,4.3479,4.3479,4.3479,4.3479,4.3479,4.3479,4.3479,4.3479,4.3479,4.3479,4.3479,4.3479,4.3479,4.3563,4.3707,4.4076,4.4419,4.4825,4.5074,4.5419,4.5568,4.5586,4.5586,4.5586,4.5586,4.5586,4.5586,4.5586,4.5586,4.5586,4.5586,4.5586,4.0489,4.0489,4.0489,4.0519,4.054,4.0692,4.0771,4.0857,4.0972,4.1103,4.1191,4.1191,4.1191,4.1191,4.1191,4.1151,4.1101,4.0883,4.0768,4.0723,4.0577,4.0489,4.0489,4.0489,4.0489,4.0489,4.0489,4.0489,4.0489,4.0489,4.0489,4.0489,4.0489,4.0489,4.0489,4.0489,4.0165,3.941,3.749,3.629,3.5834,3.4689,3.4064,3.4064,3.3899,3.3807,3.3807,3.3807,3.3513,3.2963,3.3476,3.3513,3.2963,3.3458,3.3807,3.3807,3.3807,3.3899,3.4156,3.5624,3.6835,3.747,3.8248,3.8707,3.8707,3.8707,3.9368,4.0785,4.1097,4.1772,4.3149,4.3479,4.3479,4.3479,4.3479,4.3479,4.3479,4.3479,4.3479,4.3479,4.3479,4.3479,4.3479,4.3479,4.3479,4.3479,4.3479,4.3479,4.3479,4.3479,4.3479,4.3479,4.3479,4.3529,4.3597,4.3631,4.3693,4.3772,4.4337,4.4707,4.4919,4.5322,4.5531,4.5586,4.5586,4.5586,4.5586,4.5586,4.5586,4.5586,4.5586,4.5586,4.5586,4.5586,4.5586,4.0489,4.0489,4.0489,4.0574,4.066,4.0771,4.0857,4.0988,4.1126,4.1191,4.1191,4.1191,4.1191,4.1191,4.1191,4.108,4.087,4.0809,4.0713,4.0568,4.05,4.0489,4.0489,4.0489,4.0489,4.0489,4.0489,4.0489,4.0489,4.0489,4.0489,4.0489,4.0489,4.0489,4.0489,4.0489,4.0351,4.0005,3.8812,3.7769,3.6933,3.5588,3.4899,3.488,3.4174,3.3807,3.3807,3.3807,3.377,3.3697,3.3752,3.377,3.3697,3.377,3.3807,3.3807,3.3807,3.41,3.4926,3.645,3.7386,3.7562,3.8248,3.8707,3.8707,3.8707,3.9368,4.0726,4.1097,4.1791,4.3259,4.3479,4.3479,4.3479,4.3479,4.3479,4.3479,4.3479,4.3479,4.3479,4.3479,4.3479,4.3479,4.3479,4.3479,4.3479,4.3479,4.3479,4.3479,4.3479,4.3479,4.3479,4.3479,4.3612,4.3818,4.3955,4.4117,4.4707,4.4985,4.5096,4.5302,4.5438,4.5586,4.5586,4.5586,4.5586,4.5586,4.5586,4.5586,4.5586,4.5586,4.5586,4.5586,4.5586,4.5586,4.0489,4.0489,4.0489,4.0588,4.0696,4.0855,4.0955,4.1019,4.1149,4.1191,4.1191,4.1191,4.1191,4.1191,4.1191,4.1149,4.1026,4.087,4.0751,4.0668,4.0568,4.0489,4.0489,4.0489,4.0489,4.0489,4.0489,4.0489,4.0489,4.0489,4.0489,4.0489,4.0489,4.0489,4.0489,4.0489,4.0457,4.0319,3.9204,3.8376,3.7728,3.6003,3.477,3.4321,3.3972,3.3807,3.3807,3.3807,3.3807,3.3807,3.3807,3.3807,3.3807,3.3807,3.3807,3.3825,3.4266,3.5092,3.6395,3.7129,3.7698,3.8175,3.8505,3.8707,3.8707,3.8707,3.9368,4.0799,4.1097,4.1772,4.3204,4.3479,4.3479,4.3479,4.3479,4.3479,4.3479,4.3479,4.3479,4.3479,4.3479,4.3479,4.3479,4.3479,4.3479,4.3479,4.3479,4.3479,4.3479,4.3479,4.3479,4.3479,4.3479,4.3646,4.3943,4.4016,4.4261,4.4657,4.4985,4.518,4.5263,4.5495,4.5586,4.5586,4.5586,4.5586,4.5586,4.5586,4.5586,4.5586,4.5586,4.5586,4.5586,4.5586,4.5586,4.07,4.0523,4.053,4.0617,4.0742,4.0928,4.1023,4.1055,4.1151,4.1191,4.1191,4.1191,4.1191,4.1191,4.1191,4.1171,4.1058,4.0883,4.076,4.0713,4.0563,4.0489,4.0489,4.0489,4.0489,4.0489,4.0489,4.0489,4.0489,4.0489,4.0489,4.0489,4.0489,4.0489,4.0489,4.0489,4.0454,4.0315,3.9546,3.8876,3.8127,3.6649,3.5386,3.4568,3.4247,3.4229,3.4468,3.4266,3.4137,3.4137,3.3935,3.3917,3.4119,3.3935,3.3899,3.4174,3.4908,3.5991,3.7404,3.7698,3.8083,3.8615,3.8707,3.8707,3.8707,3.8707,3.9441,4.0873,4.1097,4.1754,4.3185,4.3479,4.3479,4.3479,4.3479,4.3479,4.3479,4.3479,4.3479,4.3479,4.3479,4.3479,4.3479,4.3479,4.3479,4.3479,4.3479,4.3479,4.3479,4.3479,4.3479,4.3479,4.3479,4.3664,4.3943,4.4016,4.4175,4.4527,4.4872,4.5115,4.5137,4.54,4.5586,4.5586,4.5586,4.5586,4.5586,4.5586,4.5586,4.5586,4.5586,4.5586,4.5586,4.5586,4.5586,4.1258,4.0558,4.0649,4.0731,4.0821,4.095,4.1077,4.1172,4.1191,4.1191,4.1191,4.1191,4.1191,4.1191,4.1191,4.1055,4.0857,4.0836,4.0713,4.0549,4.05,4.0489,4.0489,4.0489,4.0489,4.0489,4.0489,4.0489,4.0489,4.0489,4.0489,4.0489,4.0489,4.0489,4.0489,4.0489,4.0372,4.0176,3.9986,3.9345,3.8159,3.7783,3.7116,3.6186,3.5385,3.5312,3.5917,3.5367,3.4935,3.4981,3.4302,3.4211,3.4752,3.4247,3.4174,3.4935,3.5789,3.6597,3.7477,3.8193,3.8634,3.8707,3.8707,3.8707,3.8707,3.8707,3.9441,4.0965,4.1097,4.1772,4.3204,4.3479,4.3479,4.3479,4.3479,4.3479,4.3479,4.3479,4.3479,4.3479,4.3479,4.3479,4.3479,4.3479,4.3479,4.3479,4.3479,4.3479,4.3479,4.3479,4.3479,4.3479,4.3513,4.3631,4.3912,4.4016,4.4194,4.4501,4.4825,4.5074,4.5201,4.5323,4.5457,4.5586,4.5586,4.5586,4.5586,4.5586,4.5586,4.5586,4.5586,4.5586,4.5586,4.5586,4.5586,4.1296,4.0519,4.0649,4.0722,4.0828,4.093,4.108,4.1191,4.1191,4.1191,4.1191,4.1191,4.1191,4.1191,4.1191,4.115,4.1055,4.0877,4.077,4.0671,4.0549,4.0489,4.0489,4.0489,4.0489,4.0489,4.0489,4.0489,4.0489,4.0489,4.0489,4.0489,4.0489,4.0489,4.0489,4.0489,4.0457,4.0298,3.9857,3.9221,3.8544,3.78,3.7336,3.7302,3.6343,3.5973,3.6285,3.5991,3.5844,3.5826,3.555,3.5257,3.499,3.4734,3.5202,3.6431,3.689,3.7404,3.8157,3.8542,3.8707,3.8707,3.8707,3.8707,3.8707,3.8744,3.9386,4.0708,4.1097,4.1827,4.3039,4.3479,4.3479,4.3479,4.3479,4.3479,4.3479,4.3479,4.3479,4.3479,4.3479,4.3479,4.3479,4.3479,4.3479,4.3479,4.3479,4.3479,4.3479,4.3479,4.3479,4.3479,4.3479,4.3548,4.3664,4.3881,4.4136,4.4428,4.4732,4.4896,4.5011,4.514,4.5283,4.5513,4.5549,4.5586,4.5586,4.5586,4.5586,4.5586,4.5586,4.5586,4.5586,4.5586,4.5586,4.1277,4.0577,4.0649,4.0721,4.077,4.0877,4.1019,4.1128,4.1149,4.1151,4.1191,4.1191,4.1191,4.1191,4.1191,4.1191,4.1172,4.092,4.0777,4.0743,4.0577,4.0489,4.0489,4.0489,4.0489,4.0489,4.0489,4.0489,4.0489,4.0489,4.0489,4.0489,4.0489,4.0489,4.0489,4.0489,4.0489,4.0373,3.9868,3.9428,3.905,3.8225,3.786,3.8015,3.7458,3.7074,3.7074,3.6835,3.667,3.6652,3.645,3.6028,3.5495,3.5679,3.6303,3.736,3.7477,3.7845,3.856,3.8707,3.8707,3.8707,3.8707,3.8707,3.8707,3.8707,3.9496,4.0653,4.113,4.1754,4.302,4.3479,4.3479,4.3479,4.3479,4.3479,4.3479,4.3479,4.3479,4.3479,4.3479,4.3479,4.3479,4.3479,4.3479,4.3479,4.3479,4.3479,4.3479,4.3479,4.3479,4.3479,4.3479,4.3479,4.3548,4.3693,4.3772,4.4046,4.4346,4.4561,4.4738,4.49,4.5118,4.5362,4.5513,4.5568,4.5586,4.5586,4.5586,4.5586,4.5586,4.5586,4.5586,4.5586,4.5586,4.1316,4.0577,4.063,4.0692,4.0718,4.079,4.087,4.0988,4.0996,4.1058,4.1172,4.1191,4.1191,4.1191,4.1191,4.1191,4.1152,4.0925,4.0779,4.0699,4.0582,4.0485,4.0504,4.0489,4.0489,4.0489,4.0489,4.0489,4.0489,4.0489,4.0489,4.0489,4.0489,4.0489,4.0489,4.0489,4.0489,4.0403,4.0136,3.9887,3.958,3.9146,3.8822,3.87,3.8573,3.8505,3.8579,3.7881,3.7477,3.7404,3.6817,3.6358,3.6505,3.6927,3.7422,3.7562,3.7551,3.7918,3.8579,3.8707,3.8707,3.8707,3.8707,3.8707,3.8707,3.8726,3.9386,4.0763,4.1152,4.1754,4.3112,4.3479,4.3479,4.3479,4.3479,4.3479,4.3479,4.3479,4.3479,4.3479,4.3479,4.3479,4.3479,4.3479,4.3479,4.3479,4.3479,4.3479,4.3479,4.3479,4.3479,4.3479,4.3479,4.3479,4.3479,4.3479,4.3513,4.3563,4.3868,4.4106,4.4327,4.4489,4.4877,4.5142,4.5475,4.5549,4.5586,4.5586,4.5586,4.5586,4.5586,4.5586,4.5586,4.5586,4.5586,4.1816,4.0562,4.0545,4.0623,4.0692,4.0729,4.0781,4.0857,4.0864,4.095,4.1049,4.1074,4.1125,4.1172,4.1191,4.1191,4.1172,4.1019,4.0883,4.0781,4.0684,4.0582,4.0519,4.0504,4.0489,4.0489,4.0489,4.0489,4.0489,4.0489,4.0489,4.0489,4.0489,4.0489,4.0489,4.0489,4.0422,4.0251,4.0158,3.9941,3.9599,3.9264,3.9063,3.899,3.8803,3.8707,3.8689,3.8469,3.8322,3.8303,3.8083,3.7955,3.7918,3.7661,3.7783,3.8248,3.8322,3.8395,3.8634,3.8707,3.8707,3.8707,3.8707,3.8707,3.8707,3.8707,3.9423,4.0836,4.1115,4.1754,4.3075,4.3479,4.3479,4.3479,4.3479,4.3479,4.3479,4.3479,4.3479,4.3479,4.3479,4.3479,4.3479,4.3479,4.3479,4.3479,4.3479,4.3479,4.3479,4.3479,4.3479,4.3479,4.3479,4.3479,4.3479,4.3479,4.3479,4.3479,4.3646,4.3804,4.3986,4.4299,4.4663,4.5055,4.5381,4.5549,4.5586,4.5586,4.5586,4.5586,4.5586,4.5586,4.5586,4.5586,4.5586,4.1797,4.0527,4.0489,4.0545,4.0623,4.0623,4.0684,4.0762,4.0771,4.0821,4.0914,4.0988,4.1049,4.1107,4.1171,4.1191,4.1191,4.1105,4.0996,4.087,4.0781,4.0688,4.0591,4.0582,4.0568,4.0559,4.0515,4.0489,4.0489,4.0489,4.0489,4.0489,4.0489,4.0489,4.0489,4.0489,4.0372,4.012,3.9982,3.9735,3.9414,3.9099,3.8961,3.8905,3.8773,3.8689,3.8707,3.8707,3.8707,3.8707,3.8707,3.8707,3.8652,3.823,3.8175,3.8542,3.8689,3.8689,3.8707,3.8707,3.8707,3.8707,3.8707,3.8707,3.8707,3.8707,3.9423,4.0781,4.1097,4.1772,4.3112,4.3479,4.3479,4.3479,4.3479,4.3479,4.3479,4.3479,4.3479,4.3479,4.3479,4.3479,4.3479,4.3479,4.3479,4.3479,4.3479,4.3479,4.3479,4.3479,4.3479,4.3479,4.3479,4.3479,4.3479,4.3479,4.3479,4.3479,4.3513,4.3612,4.3758,4.4223,4.4631,4.512,4.5531,4.5568,4.5586,4.5586,4.5586,4.5586,4.5586,4.5586,4.5586,4.5586,4.5586,4.1296,4.0527,4.0489,4.0504,4.0504,4.0504,4.0588,4.0667,4.0692,4.0731,4.0793,4.0933,4.0992,4.1026,4.1149,4.1191,4.1191,4.1191,4.1126,4.1019,4.0902,4.0821,4.0743,4.0676,4.0655,4.0636,4.0545,4.0504,4.0489,4.0489,4.0489,4.0489,4.0489,4.0473,4.0457,4.0473,4.0285,3.9943,3.9709,3.9414,3.9117,3.8873,3.8719,3.8719,3.8707,3.8707,3.8707,3.8707,3.8707,3.8707,3.8707,3.8707,3.8707,3.8707,3.8652,3.8707,3.8707,3.8707,3.8707,3.8707,3.8707,3.8707,3.8707,3.8707,3.8707,3.8744,3.9386,4.0891,4.1097,4.1754,4.3075,4.3479,4.3479,4.3479,4.3479,4.3479,4.3479,4.3479,4.3479,4.3479,4.3479,4.3479,4.3479,4.3479,4.3479,4.3479,4.3479,4.3479,4.3479,4.3479,4.3479,4.3479,4.3479,4.3479,4.3479,4.366,4.366,4.3726,4.3726,4.3804,4.3836,4.428,4.4657,4.5161,4.5549,4.5586,4.5586,4.5586,4.5586,4.5586,4.5586,4.5586,4.5586,4.5586,4.5586,4.1296,4.0508,4.0489,4.0489,4.0489,4.0489,4.0519,4.0545,4.0559,4.0617,4.0712,4.0813,4.0914,4.1,4.1152,4.1191,4.1191,4.1191,4.1191,4.113,4.1107,4.0933,4.0772,4.0707,4.0662,4.0554,4.0534,4.0489,4.0489,4.0489,4.0489,4.0489,4.0489,4.0389,4.0232,4.0233,3.9903,3.9438,3.9289,3.909,3.8873,3.8762,3.8689,3.8707,3.8707,3.8707,3.8707,3.8707,3.8707,3.8707,3.8707,3.8707,3.8707,3.8707,3.8707,3.8707,3.8707,3.8707,3.8707,3.8707,3.8707,3.8707,3.8707,3.8707,3.8707,3.8707,3.9515,4.0708,4.1148,4.1735,4.3075,4.3479,4.3479,4.3479,4.3479,4.3479,4.3479,4.3479,4.3479,4.3479,4.3479,4.3479,4.3479,4.3479,4.3479,4.3479,4.3479,4.3479,4.3479,4.3479,4.3479,4.3479,4.3479,4.3479,4.3563,4.374,4.3881,4.3974,4.4076,4.4223,4.429,4.4535,4.483,4.5182,4.5475,4.5586,4.5586,4.5586,4.5586,4.5586,4.5586,4.5586,4.5586,4.5586,4.5586,4.1277,4.0489,4.0489,4.0489,4.0489,4.0489,4.0489,4.0489,4.0504,4.053,4.0623,4.0752,4.0831,4.0925,4.1113,4.1191,4.1191,4.1191,4.1191,4.1191,4.1147,4.1007,4.0859,4.0791,4.0696,4.0582,4.0534,4.0504,4.0489,4.0489,4.0489,4.0489,4.0489,4.0356,4.012,4.0081,3.9775,3.9257,3.9099,3.899,3.8719,3.8707,3.8707,3.8707,3.8707,3.8707,3.8707,3.8707,3.8707,3.8707,3.8707,3.8707,3.8707,3.8707,3.8707,3.8707,3.8707,3.8707,3.8707,3.8707,3.8707,3.8707,3.8707,3.8707,3.8707,3.8726,3.9368,4.0836,4.0799,4.1607,4.302,4.3479,4.3479,4.3479,4.3479,4.3479,4.3479,4.3479,4.3479,4.3479,4.3479,4.3479,4.3479,4.3479,4.3479,4.3479,4.3479,4.3479,4.3479,4.3479,4.3479,4.3479,4.3529,4.3597,4.3726,4.3943,4.4233,4.4318,4.4508,4.4638,4.4713,4.4853,4.5033,4.5283,4.5475,4.5586,4.5586,4.5586,4.5586,4.5586,4.5586,4.5586,4.5586,4.5586,4.5586,4.12,4.0489,4.0489,4.0489,4.0489,4.0489,4.0489,4.0489,4.0489,4.0504,4.0554,4.0723,4.0801,4.0809,4.1094,4.1191,4.1191,4.1191,4.1172,4.1128,4.1052,4.0944,4.0903,4.0807,4.0731,4.063,4.0545,4.0504,4.0489,4.0489,4.0489,4.0473,4.0473,4.0304,4.0022,3.9943,3.9622,3.9144,3.9027,3.8923,3.8732,3.8707,3.8707,3.8707,3.8707,3.8707,3.8707,3.8707,3.8707,3.8707,3.8707,3.8707,3.8707,3.8707,3.8707,3.8707,3.8707,3.8707,3.8707,3.8707,3.8707,3.8707,3.8707,3.8707,3.8707,3.8726,3.9313,4.0708,4.0304,4.1148,4.2727,4.3314,4.3387,4.3424,4.3479,4.3479,4.3479,4.3479,4.3479,4.3479,4.3479,4.3479,4.3479,4.3479,4.3479,4.3479,4.3479,4.3479,4.3479,4.3479,4.3479,4.3479,4.3597,4.3712,4.3881,4.4087,4.4455,4.4688,4.4947,4.5077,4.5096,4.5222,4.5322,4.5476,4.5568,4.5586,4.5586,4.5586,4.5586,4.5586,4.5586,4.5586,4.5586,4.5586,4.5586,4.0681,4.0489,4.0489,4.0489,4.0489,4.0489,4.0489,4.0489,4.0504,4.0504,4.0554,4.0713,4.0801,4.0816,4.1074,4.1191,4.1191,4.1172,4.1152,4.1026,4.0908,4.0824,4.0781,4.0721,4.0648,4.0574,4.0519,4.0489,4.0489,4.0489,4.0489,4.0473,4.0285,4.0042,3.9754,3.9486,3.9144,3.8844,3.8803,3.8773,3.8732,3.8707,3.8707,3.8707,3.8707,3.8707,3.8707,3.8707,3.8707,3.8707,3.8707,3.8707,3.8707,3.8707,3.8707,3.8707,3.8707,3.8707,3.8707,3.8707,3.8707,3.8707,3.8707,3.8707,3.8707,3.8707,3.9166,3.9937,4.0047,4.0653,4.2121,4.2525,4.2837,4.3204,4.3406,4.3442,4.3479,4.3479,4.3479,4.3479,4.3479,4.3479,4.3479,4.3479,4.3479,4.3479,4.3479,4.3479,4.3479,4.3479,4.3479,4.3479,4.3693,4.3868,4.4136,4.4373,4.4688,4.4853,4.5055,4.5182,4.5201,4.5302,4.5322,4.5438,4.5586,4.5586,4.5586,4.5586,4.5586,4.5586,4.5586,4.5586,4.5586,4.5586,4.5586,4.0873,4.0508,4.0489,4.0489,4.0489,4.0489,4.0489,4.0519,4.0574,4.0582,4.0642,4.0796,4.0902,4.0914,4.1103,4.1172,4.1103,4.1046,4.0969,4.0855,4.0771,4.0699,4.0617,4.0596,4.0559,4.0504,4.0489,4.0489,4.0489,4.0489,4.0489,4.0473,4.0232,3.9943,3.9599,3.9282,3.8971,3.8762,3.8707,3.8707,3.8707,3.8707,3.8707,3.8707,3.8707,3.8707,3.8707,3.8707,3.8707,3.8707,3.8707,3.8707,3.8707,3.8707,3.8707,3.8707,3.8707,3.8707,3.8707,3.8707,3.8707,3.8707,3.8707,3.8707,3.8707,3.8707,3.9093,3.957,3.968,3.9863,4.102,4.1625,4.2103,4.2727,4.2947,4.3075,4.3369,4.3479,4.3479,4.3479,4.3479,4.3479,4.3479,4.3479,4.3479,4.3479,4.3479,4.3479,4.3479,4.3479,4.3479,4.3563,4.3836,4.4076,4.4346,4.4638,4.4966,4.4988,4.4943,4.4966,4.4919,4.5033,4.5182,4.5323,4.5475,4.5586,4.5586,4.5586,4.5586,4.5586,4.5586,4.5586,4.5586,4.5586,4.5586,4.1181,4.0489,4.0489,4.0489,4.0489,4.0489,4.0519,4.0545,4.0662,4.0684,4.0761,4.0928,4.0968,4.1007,4.1112,4.1082,4.0959,4.087,4.0781,4.074,4.0672,4.0604,4.0549,4.0519,4.0519,4.0489,4.0489,4.0489,4.0489,4.0489,4.0457,4.0389,4.0139,3.9797,3.9486,3.9223,3.8923,3.8719,3.8707,3.8707,3.8707,3.8707,3.8707,3.8707,3.8707,3.8707,3.8707,3.8707,3.8707,3.8707,3.8707,3.8707,3.8707,3.8707,3.8707,3.8707,3.8707,3.8707,3.8707,3.8707,3.8707,3.8707,3.8707,3.8707,3.8707,3.8726,3.9001,3.9184,3.9276,3.9166,3.9845,4.0524,4.1295,4.1937,4.2213,4.2635,4.313,4.3387,4.3479,4.3479,4.3479,4.3479,4.3479,4.3479,4.3479,4.3479,4.3479,4.3479,4.3479,4.3479,4.3479,4.3679,4.3943,4.4346,4.4638,4.4663,4.5052,4.4919,4.4781,4.4732,4.4657,4.4781,4.4988,4.5203,4.5342,4.5438,4.5513,4.5531,4.555,4.5568,4.5568,4.5568,4.5549,4.5549,4.5586,4.0642,4.0489,4.0489,4.0489,4.0489,4.0489,4.0554,4.0655,4.0692,4.0731,4.0805,4.0925,4.1,4.0999,4.1011,4.0959,4.0843,4.0742,4.0696,4.0655,4.0596,4.0519,4.0504,4.0489,4.0489,4.0489,4.0489,4.0489,4.0489,4.0489,4.0408,4.0177,3.9861,3.9552,3.9249,3.8923,3.8773,3.8719,3.8707,3.8707,3.8707,3.8707,3.8707,3.8707,3.8707,3.8707,3.8707,3.8707,3.8707,3.8707,3.8707,3.8707,3.8707,3.8707,3.8707,3.8707,3.8707,3.8707,3.8707,3.8707,3.8707,3.8707,3.8707,3.8707,3.8707,3.8707,3.8836,3.8854,3.8927,3.9019,3.9808,4.001,4.0469,4.1167,4.1772,4.2268,4.2598,4.3002,4.3406,4.3461,4.3479,4.3479,4.3479,4.3479,4.3479,4.3479,4.3479,4.3479,4.3479,4.3479,4.3479,4.3758,4.4106,4.4535,4.4966,4.4896,4.4962,4.4682,4.4535,4.4501,4.4474,4.458,4.4732,4.4762,4.4969,4.514,4.5243,4.5362,4.5342,4.5243,4.5342,4.5475,4.5438,4.5419,4.5586,4.0489,4.0489,4.0489,4.0489,4.0519,4.0588,4.063,4.0696,4.0809,4.0889,4.0944,4.103,4.1072,4.1015,4.0982,4.0902,4.0772,4.0655,4.0596,4.0574,4.0515,4.0489,4.0489,4.0489,4.0489,4.0489,4.0489,4.0489,4.0489,4.0489,4.0339,4.0081,3.9757,3.9438,3.9099,3.8855,3.8719,3.8707,3.8707,3.8707,3.8707,3.8707,3.8707,3.8707,3.8707,3.8707,3.8707,3.8707,3.8707,3.8707,3.8707,3.8707,3.8707,3.8707,3.8707,3.8707,3.8707,3.8707,3.8707,3.8707,3.8707,3.8707,3.8707,3.8707,3.8707,3.8707,3.8707,3.8707,3.8707,3.8836,3.9221,3.9313,3.968,4.0322,4.091,4.1479,4.2139,4.2635,4.3039,4.3387,4.3461,4.3479,4.3479,4.3479,4.3479,4.3479,4.3479,4.3479,4.3479,4.3479,4.3479,4.3726,4.4035,4.4346,4.4688,4.4688,4.4657,4.4401,4.4223,4.4184,4.4125,4.4136,4.4065,4.4035,4.4308,4.4732,4.4872,4.4943,4.4919,4.4938,4.5096,4.5222,4.5243,4.5283,4.5419,4.0489,4.0489,4.0489,4.0489,4.0519,4.063,4.0696,4.0752,4.0922,4.1019,4.1033,4.113,4.1128,4.1019,4.0939,4.0843,4.0674,4.0545,4.0519,4.0519,4.0504,4.0489,4.0508,4.0441,4.0389,4.0336,4.0248,4.0386,4.0489,4.0489,4.0302,3.9984,3.969,3.9383,3.9045,3.8803,3.8719,3.8707,3.8707,3.8707,3.8707,3.8707,3.8707,3.8707,3.8707,3.8707,3.8707,3.8707,3.8707,3.8707,3.8707,3.8707,3.8707,3.8707,3.8707,3.8707,3.8707,3.8707,3.8707,3.8707,3.8707,3.8707,3.8707,3.8707,3.8707,3.8707,3.8707,3.8707,3.8707,3.8707,3.8817,3.8744,3.9038,3.9496,3.9918,4.0414,4.1552,4.2304,4.2837,4.3149,4.3369,4.3479,4.3479,4.3479,4.3479,4.3479,4.3479,4.3479,4.3479,4.3479,4.3548,4.3679,4.3912,4.4117,4.4271,4.4261,4.4175,4.3986,4.3836,4.3758,4.3679,4.3631,4.3597,4.3679,4.3868,4.4252,4.4364,4.4527,4.4606,4.4707,4.4872,4.4872,4.4762,4.49,4.5118,4.0489,4.0489,4.0489,4.0489,4.0519,4.0662,4.0722,4.0785,4.093,4.1077,4.1151,4.1172,4.1105,4.0974,4.08,4.0667,4.0559,4.0519,4.0489,4.0489,4.0489,4.0473,4.0457,4.0232,4.0157,4.0101,3.9882,4.0043,4.0283,4.0406,4.0157,3.9735,3.9576,3.9327,3.8862,3.875,3.8707,3.8707,3.8707,3.8707,3.8707,3.8707,3.8707,3.8707,3.8707,3.8707,3.8707,3.8707,3.8707,3.8707,3.8707,3.8707,3.8707,3.8707,3.8707,3.8707,3.8707,3.8707,3.8707,3.8707,3.8707,3.8707,3.8707,3.8707,3.8707,3.8707,3.8707,3.8707,3.8707,3.8707,3.8707,3.8707,3.8781,3.9038,3.946,4.0139,4.1093,4.1497,4.2084,4.291,4.313,4.3351,4.3461,4.3461,4.3479,4.3479,4.3461,4.3406,4.324,4.3057,4.3238,4.3365,4.3467,4.3652,4.3986,4.3924,4.3849,4.366,4.3597,4.3479,4.3479,4.3479,4.3479,4.3597,4.3726,4.3836,4.4035,4.4165,4.4308,4.4392,4.4455,4.4346,4.4175,4.4428,4.4849,4.0489,4.0489,4.0489,4.0489,4.0515,4.0668,4.077,4.0824,4.1023,4.1149,4.1172,4.1105,4.1003,4.0835,4.0655,4.0559,4.0504,4.0489,4.0489,4.0489,4.0489,4.0425,4.0267,4.0139,4.0042,3.9797,3.969,3.9712,3.9945,3.9945,3.9738,3.9395,3.9289,3.9136,3.8719,3.8707,3.8707,3.8707,3.8707,3.8707,3.8707,3.8707,3.8707,3.8707,3.8707,3.8707,3.8707,3.8707,3.8707,3.8707,3.8707,3.8707,3.8707,3.8707,3.8707,3.8707,3.8707,3.8707,3.8707,3.8707,3.8707,3.8707,3.8707,3.8707,3.8707,3.8707,3.8707,3.8707,3.8707,3.8707,3.8707,3.8707,3.8707,3.8854,3.9111,3.968,4.0304,4.0598,4.113,4.2047,4.2837,4.2928,4.3075,4.3149,4.3057,4.291,4.2782,4.2598,4.2286,4.1919,4.2279,4.282,4.2945,4.307,4.3472,4.366,4.366,4.3563,4.3563,4.3479,4.3479,4.3479,4.3479,4.3479,4.3563,4.3679,4.3758,4.3804,4.3899,4.3943,4.4035,4.3955,4.3955,4.429,4.4631,4.0489,4.0489,4.0489,4.0489,4.0515,4.0732,4.0801,4.0824,4.106,4.1191,4.1152,4.1026,4.0848,4.0696,4.0568,4.0504,4.0489,4.0489,4.0489,4.0489,4.0473,4.0339,4.0158,4.0022,3.9775,3.9481,3.9327,3.9352,3.9333,3.9358,3.9257,3.908,3.9133,3.8961,3.8792,3.8707,3.8707,3.8707,3.8707,3.8707,3.8707,3.8707,3.8707,3.8707,3.8707,3.8707,3.8707,3.8707,3.8707,3.8707,3.8707,3.8707,3.8707,3.8707,3.8707,3.8707,3.8707,3.8707,3.8707,3.8707,3.8707,3.8707,3.8707,3.8707,3.8707,3.8707,3.8707,3.8707,3.8707,3.8707,3.8707,3.8707,3.8707,3.8707,3.8781,3.9239,3.968,4.0047,4.0543,4.1423,4.2066,4.2231,4.2396,4.2653,4.2616,4.2396,4.2139,4.1827,4.146,4.1038,4.142,4.2055,4.2441,4.2588,4.2919,4.3217,4.3277,4.3424,4.3424,4.3442,4.3424,4.3461,4.3479,4.3479,4.3479,4.3548,4.3612,4.3529,4.3513,4.3646,4.3791,4.3836,4.3943,4.4223,4.4308,4.0489,4.0489,4.0489,4.0489,4.05,4.0713,4.0801,4.0816,4.1099,4.1172,4.1133,4.095,4.077,4.0672,4.0554,4.0489,4.0489,4.0489,4.0489,4.0489,4.0473,4.0339,4.0101,3.9838,3.9505,3.9178,3.9017,3.8873,3.8803,3.8931,3.898,3.9063,3.9036,3.8894,3.8792,3.8707,3.8707,3.8707,3.8707,3.8707,3.8707,3.8707,3.8707,3.8707,3.8707,3.8707,3.8707,3.8707,3.8707,3.8707,3.8707,3.8707,3.8707,3.8707,3.8707,3.8707,3.8707,3.8707,3.8707,3.8707,3.8707,3.8707,3.8707,3.8707,3.8707,3.8707,3.8707,3.8707,3.8707,3.8707,3.8707,3.8707,3.8707,3.8707,3.8744,3.9019,3.9386,3.9606,4.0139,4.0891,4.1277,4.1423,4.168,4.1937,4.1827,4.1589,4.124,4.0928,4.0836,4.0561,4.0818,4.1291,4.186,4.2154,4.2375,4.2616,4.291,4.3112,4.3185,4.3277,4.3332,4.3387,4.3479,4.3479,4.3479,4.3479,4.3479,4.3479,4.3479,4.3479,4.3529,4.3646,4.3679,4.3804,4.3823,4.0489,4.0489,4.0489,4.0489,4.05,4.0713,4.0801,4.0831,4.108,4.1103,4.0955,4.0843,4.0713,4.059,4.053,4.0489,4.0489,4.0489,4.0489,4.0489,4.0473,4.0339,4.0081,3.9775,3.9432,3.9117,3.8844,3.8707,3.8719,3.8707,3.875,3.8844,3.8884,3.8785,3.8719,3.8707,3.8707,3.8707,3.8707,3.8707,3.8707,3.8707,3.8707,3.8707,3.8707,3.8707,3.8707,3.8707,3.8707,3.8707,3.8707,3.8707,3.8707,3.8707,3.8707,3.8707,3.8707,3.8707,3.8707,3.8707,3.8707,3.8707,3.8707,3.8707,3.8707,3.8707,3.8707,3.8707,3.8707,3.8707,3.8707,3.8707,3.8707,3.8707,3.8781,3.8946,3.9093,3.9276,3.9551,4.0212,4.0469,4.0634,4.0928,4.1222,4.1001,4.0744,4.0377,4.0084,3.9992,3.9955,4.012,4.0396,4.0928,4.1332,4.1552,4.2029,4.2543,4.2708,4.2837,4.2855,4.2892,4.3387,4.3461,4.3479,4.3406,4.3351,4.3351,4.3442,4.3479,4.3479,4.3479,4.3513,4.3513,4.3479,4.3479,4.0489,4.0504,4.0545,4.0559,4.0582,4.0733,4.0816,4.0902,4.1084,4.1052,4.0801,4.0793,4.0682,4.054,4.0489,4.0489,4.0489,4.0489,4.0489,4.0489,4.0473,4.0339,4.0101,3.984,3.9576,3.9178,3.8933,3.8815,3.8707,3.8707,3.8719,3.8719,3.8707,3.8689,3.8689,3.8707,3.8707,3.8707,3.8707,3.8707,3.8707,3.8707,3.8707,3.8707,3.8707,3.8707,3.8707,3.8707,3.8707,3.8707,3.8707,3.8707,3.8707,3.8707,3.8707,3.8707,3.8707,3.8707,3.8689,3.8707,3.8707,3.8707,3.8707,3.8707,3.8707,3.8707,3.8707,3.8707,3.8707,3.8707,3.8707,3.8707,3.8707,3.8707,3.8707,3.8817,3.8817,3.8946,3.9148,3.9478,3.9625,3.9735,3.9845,4.012,4.0286,4.0029,3.9717,3.9423,3.9258,3.9221,3.9239,3.9551,3.9955,4.0322,4.0653,4.1277,4.1827,4.1846,4.1974,4.2084,4.2268,4.2745,4.2855,4.2488,4.2543,4.2983,4.3185,4.3222,4.3351,4.3479,4.3479,4.3479,4.3479,4.3479,4.3479,4.0469,4.0519,4.0597,4.0653,4.0637,4.077,4.087,4.0972,4.1111,4.1049,4.0809,4.0805,4.0671,4.0526,4.0489,4.0489,4.0489,4.0489,4.0489,4.0489,4.0489,4.0339,4.0195,3.9983,3.9712,3.9238,3.9036,3.8894,3.8707,3.8707,3.8707,3.8707,3.8707,3.8707,3.8707,3.8707,3.8707,3.8707,3.8707,3.8707,3.8707,3.8707,3.8707,3.8707,3.8707,3.8707,3.8707,3.8707,3.8707,3.8707,3.8707,3.8707,3.8707,3.8707,3.8707,3.8707,3.8707,3.8689,3.8652,3.8652,3.8542,3.8652,3.8707,3.8707,3.8707,3.8707,3.8707,3.8707,3.8707,3.8707,3.8707,3.8707,3.8707,3.8707,3.8707,3.8707,3.8707,3.8707,3.8927,3.9056,3.8872,3.8781,3.8799,3.8946,3.935,3.9313,3.9019,3.8817,3.8726,3.8744,3.8817,3.8982,3.935,3.9551,3.9974,4.0653,4.1075,4.1075,4.1203,4.1387,4.1442,4.1625,4.1607,4.1405,4.1757,4.2271,4.2638,4.2913,4.294,4.2977,4.3391,4.3479,4.3479,4.341,4.3321,4.0181,3.9715,3.9805,3.9906,4.006,4.0662,4.0959,4.0987,4.1034,4.0959,4.0821,4.0762,4.0641,4.0545,4.045,4.045,4.0489,4.0489,4.0489,4.0489,4.0489,4.0438,4.0319,4.0139,3.9861,3.9462,3.9257,3.899,3.8707,3.8707,3.8707,3.8707,3.8707,3.8707,3.8707,3.8707,3.8707,3.8707,3.8707,3.8707,3.8707,3.8707,3.8707,3.8707,3.8707,3.8707,3.8707,3.8707,3.8707,3.8707,3.8707,3.8707,3.8707,3.8707,3.8707,3.8707,3.8689,3.8414,3.7918,3.7588,3.7698,3.8193,3.8615,3.8615,3.8707,3.8707,3.8707,3.8707,3.8707,3.8707,3.8707,3.8689,3.8689,3.8707,3.8707,3.8707,3.8707,3.8707,3.8781,3.8799,3.8707,3.8707,3.8707,3.8707,3.8982,3.9056,3.8836,3.8781,3.8707,3.8707,3.8744,3.8762,3.8927,3.9001,3.9313,3.9937,4.0047,3.99,4.0359,4.091,4.0891,4.0671,4.0753,4.0793,4.1192,4.1544,4.1885,4.214,4.225,4.2444,4.281,4.2903,4.2678,4.2752,4.2902,4.0092,3.9372,3.946,3.9365,3.9376,4.016,4.0698,4.0935,4.098,4.0928,4.079,4.0699,4.0636,4.0472,4.0219,4.0354,4.0412,4.0044,4.0358,4.0361,4.0389,4.0389,4.0372,4.0247,3.9984,3.963,3.9346,3.909,3.8719,3.8707,3.8707,3.8707,3.8707,3.8707,3.8707,3.8707,3.8707,3.8707,3.8707,3.8707,3.8707,3.8707,3.8707,3.8707,3.8707,3.8707,3.8707,3.8707,3.8707,3.8707,3.8707,3.8689,3.8689,3.8689,3.8689,3.8707,3.834,3.79,3.7147,3.6762,3.7019,3.7569,3.8065,3.8414,3.8615,3.8707,3.8707,3.8707,3.8707,3.8546,3.8465,3.8496,3.8415,3.8415,3.8415,3.8382,3.8596,3.8596,3.8596,3.8627,3.8596,3.8627,3.8658,3.8707,3.8781,3.8762,3.8707,3.8658,3.8658,3.8707,3.8707,3.8707,3.8726,3.8817,3.8927,3.9166,3.9148,3.8762,3.9368,4.0157,3.9955,3.968,3.9932,4.0127,4.0209,4.04,4.1027,4.1324,4.1398,4.1742,4.2226,4.2144,4.1853,4.2038,4.2342,4.0188,3.9486,3.961,3.9154,3.8651,3.9345,4.0116,4.0824,4.0816,4.0694,4.0529,4.0413,4.0223,4.0134,3.9565,3.9604,3.9935,3.9197,3.9476,3.9874,3.9731,3.9953,4.0041,3.9989,3.9452,3.9394,3.9175,3.8596,3.8603,3.8707,3.8707,3.8707,3.8707,3.8707,3.8707,3.8707,3.8707,3.8707,3.8707,3.8707,3.8707,3.8707,3.8707,3.8707,3.8707,3.8707,3.8707,3.8707,3.8707,3.8707,3.8707,3.867,3.8634,3.8634,3.8652,3.8358,3.7734,3.6945,3.6376,3.6064,3.6083,3.6468,3.6945,3.7698,3.8285,3.8469,3.8505,3.8554,3.8578,3.83,3.8065,3.798,3.7911,3.7877,3.7877,3.8065,3.8382,3.8433,3.8451,3.8433,3.8401,3.8433,3.8465,3.8496,3.8318,3.8252,3.8252,3.835,3.8433,3.8658,3.8676,3.8707,3.8707,3.8707,3.8799,3.8878,3.8872,3.8707,3.8676,3.9171,3.8927,3.8734,3.8831,3.8934,3.8922,3.9191,3.9642,4.0176,4.0595,4.0963,4.1305,4.1446,4.1168,4.149,4.175,4.0255,3.9505,3.899,3.8612,3.847,3.8652,3.8912,3.9123,3.9101,3.9019,3.8903,3.882,3.8931,3.8661,3.8469,3.8565,3.8554,3.8462,3.8443,3.8607,3.872,3.8616,3.8597,3.8551,3.8115,3.7904,3.7764,3.7824,3.7963,3.8267,3.8652,3.8707,3.867,3.8689,3.8707,3.8707,3.8707,3.8707,3.8707,3.8707,3.8658,3.8658,3.8658,3.8707,3.8627,3.8658,3.8689,3.8707,3.8689,3.8652,3.867,3.8524,3.7845,3.7808,3.7698,3.6945,3.6248,3.5569,3.533,3.4853,3.4798,3.5293,3.5679,3.6541,3.7312,3.7936,3.8138,3.8407,3.8446,3.8183,3.7843,3.7649,3.7488,3.7379,3.7379,3.7542,3.7826,3.7913,3.7913,3.7913,3.7895,3.7964,3.805,3.7895,3.7721,3.7685,3.7721,3.7895,3.8135,3.8401,3.8658,3.8658,3.8546,3.8515,3.8596,3.8687,3.8713,3.8707,3.8546,3.8382,3.8256,3.8122,3.7879,3.7793,3.7816,3.795,3.8168,3.8738,3.941,3.977,4.0065,4.034,4.0642,4.0967,4.1178,3.9828,3.9057,3.8246,3.7732,3.7441,3.7407,3.7379,3.7425,3.7972,3.821,3.8124,3.8084,3.7988,3.8007,3.7738,3.77,3.8031,3.7559,3.7539,3.8043,3.7613,3.7907,3.7761,3.7507,3.7431,3.7068,3.6849,3.6976,3.7227,3.7753,3.8193,3.8212,3.8432,3.8652,3.8707,3.8707,3.8707,3.8707,3.8707,3.8707,3.8627,3.8515,3.8496,3.8578,3.8528,3.8496,3.8658,3.8658,3.856,3.8303,3.8212,3.7826,3.7184,3.7,3.6633,3.5954,3.5495,3.4963,3.4596,3.4174,3.4192,3.4376,3.4614,3.5495,3.6541,3.7367,3.7973,3.8456,3.831,3.8117,3.7738,3.736,3.7135,3.6904,3.6943,3.6981,3.7097,3.7228,3.7266,3.7266,3.734,3.7433,3.7396,3.7266,3.7228,3.734,3.7414,3.7487,3.7756,3.8016,3.8401,3.8658,3.8465,3.8318,3.835,3.8318,3.8168,3.805,3.7929,3.7773,3.7649,3.7542,3.736,3.7066,3.6811,3.7016,3.7266,3.7632,3.8197,3.8618,3.921,3.9696,4.0099,4.0417,4.0577,3.9123,3.8355,3.753,3.6762,3.5974,3.5986,3.5914,3.5864,3.725,3.7873,3.7709,3.7738,3.7603,3.7315,3.6911,3.7007,3.706,3.6699,3.6753,3.7743,3.7047,3.7026,3.7187,3.7333,3.647,3.6581,3.6483,3.5972,3.637,3.6927,3.7404,3.747,3.7955,3.8248,3.8377,3.8395,3.8469,3.867,3.8431,3.8277,3.8378,3.8267,3.8065,3.8332,3.8216,3.8099,3.8496,3.8511,3.8322,3.779,3.7404,3.7147,3.6486,3.5973,3.5514,3.5238,3.4816,3.4504,3.4156,3.388,3.3844,3.388,3.3862,3.478,3.5826,3.6798,3.7477,3.8352,3.8364,3.8065,3.7703,3.736,3.7076,3.6803,3.6643,3.6603,3.6545,3.6666,3.6764,3.6706,3.6706,3.6825,3.6943,3.6843,3.6563,3.6825,3.6904,3.6904,3.7228,3.7506,3.7861,3.8285,3.8117,3.7861,3.7826,3.7721,3.7487,3.734,3.7285,3.721,3.7117,3.702,3.6865,3.6544,3.6216,3.6297,3.6508,3.6975,3.7472,3.8052,3.8623,3.9143,3.948,3.9665,3.9851,3.8586,3.8309,3.7415,3.654,3.5807,3.5698,3.5648,3.565,3.5956,3.6215,3.6103,3.6142,3.618,3.6219,3.6065,3.6122,3.6037,3.6089,3.5926,3.601,3.5832,3.5986,3.5701,3.5562,3.5082,3.4796,3.4717,3.4971,3.5432,3.6064,3.6578,3.6597,3.7019,3.7294,3.7753,3.779,3.7973,3.8303,3.7807,3.7616,3.7775,3.7907,3.7877,3.7825,3.7631,3.7893,3.8198,3.8423,3.8096,3.7661,3.7533,3.6725,3.5459,3.4816,3.4394,3.4137,3.4192,3.4027,3.3935,3.3807,3.3807,3.3807,3.3935,3.4468,3.5202,3.6064,3.6971,3.7937,3.8382,3.8065,3.7703,3.7377,3.6999,3.6661,3.6392,3.6249,3.6122,3.6165,3.6249,3.6207,3.6165,3.6274,3.644,3.6333,3.6097,3.5968,3.5968,3.6054,3.6457,3.6746,3.6981,3.7323,3.7487,3.736,3.7285,3.7135,3.6904,3.6904,3.6981,3.6825,3.6643,3.644,3.6249,3.5985,3.5751,3.591,3.6129,3.6502,3.7003,3.7435,3.7533,3.7847,3.8105,3.8302,3.8684,3.7891,3.7757,3.6818,3.6129,3.5704,3.5621,3.5611,3.5599,3.5534,3.5507,3.5507,3.5507,3.5507,3.5507,3.5507,3.5507,3.5507,3.5507,3.5608,3.5392,3.5122,3.5129,3.4735,3.433,3.4354,3.4141,3.3947,3.4192,3.4633,3.5238,3.5716,3.5789,3.5991,3.645,3.6927,3.7,3.7184,3.7533,3.6869,3.6689,3.677,3.6684,3.6827,3.6734,3.7184,3.7559,3.7884,3.8072,3.7601,3.6817,3.6193,3.5514,3.4559,3.4174,3.3917,3.3862,3.3862,3.3807,3.3807,3.3807,3.3807,3.3807,3.3825,3.4266,3.4862,3.5752,3.6468,3.7418,3.8413,3.8281,3.7773,3.736,3.6746,3.6316,3.6291,3.6249,3.6011,3.5854,3.5898,3.5898,3.5854,3.5854,3.5968,3.5985,3.5783,3.5783,3.5622,3.5622,3.5941,3.6139,3.6333,3.6481,3.6724,3.6843,3.6786,3.6586,3.6316,3.6399,3.6603,3.6374,3.6097,3.5854,3.5622,3.5622,3.5622,3.5656,3.591,3.6026,3.6128,3.639,3.6416,3.6425,3.663,3.6854,3.7042,3.7058,3.6874,3.6034,3.5648,3.559,3.5579,3.5579,3.5577,3.5515,3.5507,3.5507,3.5507,3.5507,3.5507,3.5507,3.5507,3.5507,3.5507,3.5507,3.5398,3.5138,3.4999,3.4735,3.4423,3.4195,3.4018,3.3895,3.3834,3.399,3.4559,3.4908,3.5037,3.5459,3.6009,3.6101,3.6156,3.6303,3.6439,3.6079,3.5553,3.5294,3.5119,3.5598,3.6119,3.6677,3.7272,3.7482,3.748,3.7014,3.5991,3.4963,3.4394,3.4082,3.388,3.3862,3.3807,3.3807,3.3807,3.3807,3.3807,3.3807,3.3807,3.3807,3.41,3.4679,3.5255,3.5999,3.6783,3.7778,3.8241,3.7718,3.7396,3.6768,3.6147,3.6207,3.6182,3.5871,3.5639,3.5622,3.5667,3.5622,3.5622,3.5622,3.5622,3.5639,3.5639,3.5639,3.5639,3.5667,3.5783,3.5941,3.6054,3.6182,3.6249,3.6249,3.6165,3.5941,3.5941,3.6054,3.5783,3.5639,3.5639,3.5639,3.5639,3.5639,3.5577,3.5362,3.5328,3.5411,3.5448,3.5227,3.5156,3.5247,3.5372,3.5363,3.607,3.5891,3.5631,3.5528,3.5522,3.5522,3.5509,3.5528,3.5501,3.5507,3.5507,3.5507,3.5507,3.5507,3.5507,3.5507,3.5507,3.5474,3.5488,3.5446,3.5016,3.4851,3.4614,3.4237,3.3954,3.3868,3.3842,3.3834,3.3807,3.399,3.4082,3.4174,3.4156,3.4669,3.521,3.5302,3.5495,3.5567,3.5264,3.4708,3.4965,3.4978,3.5201,3.5732,3.6365,3.6511,3.6684,3.7126,3.6461,3.5459,3.4431,3.3954,3.3807,3.3807,3.3807,3.3807,3.3807,3.3807,3.3807,3.3807,3.3807,3.3807,3.378,3.3744,3.4229,3.4566,3.5192,3.5755,3.6667,3.7551,3.743,3.7648,3.723,3.6422,3.6139,3.5941,3.5667,3.5639,3.5622,3.5622,3.5622,3.5622,3.5622,3.5639,3.5639,3.5639,3.5639,3.5639,3.5639,3.5639,3.5622,3.5667,3.58,3.5711,3.5783,3.5871,3.5694,3.5622,3.5639,3.5639,3.5639,3.5639,3.5639,3.5639,3.5577,3.5577,3.5299,3.483,3.4611,3.4578,3.4099,3.3882,3.3943,3.4044,3.4166]}]]